Wetterdaten: Mittwoch, 17.10.2018
Datum Zeit Temp. A. Pool Temp. Temp. 5cm Feuchte A. Luftdruck Regen Wind Richtung Richtung Sonnenschein ET UV Solar Taupunkt Windchill Windben Empfang
17.10.2018 00:00 9,7 C 12,8 C 6,1 C 86 % 1018,8 hPa 0,0 l/m 3,5 km/h (1 Bft) SW 222 0 min 0,000 mm 0,0 UV-I 0 W/m 7,5 C 9,7 C 4,8 km/h (1 Bft) 97,87 %
17.10.2018 00:02 9,7 C 12,8 C 6,1 C 86 % 1018,7 hPa 0,0 l/m 4,6 km/h (1 Bft) SW 222 0 min 0,000 mm 0,0 UV-I 0 W/m 7,5 C 9,7 C 6,4 km/h (2 Bft) 6,25 %
17.10.2018 00:04 9,6 C 12,8 C 6,1 C 86 % 1018,8 hPa 0,0 l/m 4,5 km/h (1 Bft) SW 222 0 min 0,000 mm 0,0 UV-I 0 W/m 7,4 C 9,6 C 4,8 km/h (1 Bft) 80,65 %
17.10.2018 00:06 9,4 C 12,8 C 5,6 C 87 % 1018,7 hPa 0,0 l/m 4,3 km/h (1 Bft) SW 222 0 min 0,000 mm 0,0 UV-I 0 W/m 7,3 C 9,4 C 6,4 km/h (2 Bft) 95,74 %
17.10.2018 00:08 9,5 C 12,8 C 5,6 C 88 % 1018,7 hPa 0,0 l/m 3,7 km/h (1 Bft) SW 222 0 min 0,000 mm 0,0 UV-I 0 W/m 7,6 C 9,5 C 4,8 km/h (1 Bft) 93,62 %
17.10.2018 00:10 9,4 C 12,8 C 5,6 C 87 % 1018,7 hPa 0,0 l/m 2,4 km/h (1 Bft) SW 222 0 min 0,000 mm 0,0 UV-I 0 W/m 7,3 C 9,4 C 3,2 km/h (1 Bft) 95,74 %
17.10.2018 00:12 9,3 C 12,8 C 5,6 C 88 % 1018,7 hPa 0,0 l/m 1,7 km/h (1 Bft) SW 222 0 min 0,000 mm 0,0 UV-I 0 W/m 7,4 C 9,3 C 3,2 km/h (1 Bft) 95,74 %
17.10.2018 00:14 9,3 C 12,8 C 5,6 C 88 % 1018,7 hPa 0,0 l/m 2,6 km/h (1 Bft) SW 222 0 min 0,000 mm 0,0 UV-I 0 W/m 7,4 C 9,3 C 4,8 km/h (1 Bft) 95,74 %
17.10.2018 00:16 9,3 C 12,8 C 5,6 C 88 % 1018,7 hPa 0,0 l/m 3,1 km/h (1 Bft) SW 222 0 min 0,000 mm 0,0 UV-I 0 W/m 7,4 C 9,3 C 4,8 km/h (1 Bft) 93,62 %
17.10.2018 00:18 9,2 C 12,8 C 5,6 C 88 % 1018,7 hPa 0,0 l/m 3,0 km/h (1 Bft) SW 222 0 min 0,000 mm 0,0 UV-I 0 W/m 7,3 C 9,2 C 4,8 km/h (1 Bft) 91,67 %
17.10.2018 00:20 9,4 C 12,8 C 5,0 C 89 % 1018,7 hPa 0,0 l/m 3,2 km/h (1 Bft) SW 221 0 min 0,000 mm 0,0 UV-I 0 W/m 7,7 C 9,4 C 4,8 km/h (1 Bft) 93,62 %
17.10.2018 00:22 9,6 C 12,8 C 5,0 C 89 % 1018,7 hPa 0,0 l/m 2,9 km/h (1 Bft) SW 221 0 min 0,000 mm 0,0 UV-I 0 W/m 7,9 C 9,6 C 3,2 km/h (1 Bft) 95,74 %
17.10.2018 00:24 9,7 C 12,8 C 5,0 C 88 % 1018,7 hPa 0,0 l/m 2,8 km/h (1 Bft) SW 221 0 min 0,000 mm 0,0 UV-I 0 W/m 7,8 C 9,7 C 3,2 km/h (1 Bft) 97,92 %
17.10.2018 00:26 9,7 C 12,8 C 5,0 C 88 % 1018,7 hPa 0,0 l/m 2,9 km/h (1 Bft) SW 221 0 min 0,000 mm 0,0 UV-I 0 W/m 7,8 C 9,7 C 3,2 km/h (1 Bft) 93,62 %
17.10.2018 00:28 9,6 C 12,8 C 5,0 C 87 % 1018,7 hPa 0,0 l/m 1,5 km/h (1 Bft) SW 221 0 min 0,000 mm 0,0 UV-I 0 W/m 7,5 C 9,6 C 3,2 km/h (1 Bft) 95,74 %
17.10.2018 00:30 9,4 C 12,8 C 5,0 C 87 % 1018,7 hPa 0,0 l/m 1,0 km/h (0 Bft) SW 222 0 min 0,000 mm 0,0 UV-I 0 W/m 7,3 C 9,4 C 1,6 km/h (1 Bft) 97,87 %
17.10.2018 00:32 9,4 C 12,8 C 5,0 C 88 % 1018,8 hPa 0,0 l/m 0,7 km/h (0 Bft) SW 221 0 min 0,000 mm 0,0 UV-I 0 W/m 7,5 C 9,4 C 1,6 km/h (1 Bft) 94,74 %
17.10.2018 00:34 9,2 C 12,8 C 5,0 C 87 % 1018,8 hPa 0,0 l/m 1,3 km/h (1 Bft) SW 222 0 min 0,000 mm 0,0 UV-I 0 W/m 7,2 C 9,2 C 1,6 km/h (1 Bft) 96,00 %
17.10.2018 00:36 8,9 C 12,8 C 5,0 C 87 % 1018,8 hPa 0,0 l/m 1,4 km/h (1 Bft) SW 222 0 min 0,000 mm 0,0 UV-I 0 W/m 6,9 C 8,9 C 1,6 km/h (1 Bft) 97,87 %
17.10.2018 00:38 8,7 C 12,8 C 5,0 C 88 % 1018,8 hPa 0,0 l/m 1,6 km/h (1 Bft) SW 222 0 min 0,000 mm 0,0 UV-I 0 W/m 6,8 C 8,7 C 3,2 km/h (1 Bft) 95,74 %
17.10.2018 00:40 8,6 C 12,8 C 5,0 C 89 % 1018,8 hPa 0,0 l/m 2,8 km/h (1 Bft) SW 221 0 min 0,000 mm 0,0 UV-I 0 W/m 6,9 C 8,6 C 4,8 km/h (1 Bft) 97,87 %
17.10.2018 00:42 8,6 C 12,8 C 5,0 C 89 % 1018,7 hPa 0,0 l/m 3,3 km/h (1 Bft) SW 221 0 min 0,000 mm 0,0 UV-I 0 W/m 6,9 C 8,6 C 4,8 km/h (1 Bft) 94,34 %
17.10.2018 00:44 8,5 C 12,8 C 5,0 C 89 % 1018,7 hPa 0,0 l/m 2,8 km/h (1 Bft) SW 221 0 min 0,000 mm 0,0 UV-I 0 W/m 6,8 C 8,5 C 3,2 km/h (1 Bft) 97,87 %
17.10.2018 00:46 8,5 C 12,8 C 5,0 C 89 % 1018,7 hPa 0,0 l/m 3,0 km/h (1 Bft) SW 221 0 min 0,000 mm 0,0 UV-I 0 W/m 6,8 C 8,5 C 4,8 km/h (1 Bft) 97,87 %
17.10.2018 00:48 8,5 C 12,8 C 5,0 C 89 % 1018,8 hPa 0,0 l/m 2,4 km/h (1 Bft) SW 221 0 min 0,000 mm 0,0 UV-I 0 W/m 6,8 C 8,5 C 3,2 km/h (1 Bft) 97,87 %
17.10.2018 00:50 8,6 C 12,8 C 4,4 C 90 % 1018,8 hPa 0,0 l/m 2,5 km/h (1 Bft) SW 221 0 min 0,000 mm 0,0 UV-I 0 W/m 7,1 C 8,6 C 3,2 km/h (1 Bft) 97,37 %
17.10.2018 00:52 8,8 C 12,8 C 4,4 C 90 % 1018,8 hPa 0,0 l/m 3,3 km/h (1 Bft) SW 221 0 min 0,000 mm 0,0 UV-I 0 W/m 7,3 C 8,8 C 4,8 km/h (1 Bft) 97,92 %
17.10.2018 00:54 9,0 C 12,8 C 4,4 C 89 % 1018,8 hPa 0,0 l/m 4,0 km/h (1 Bft) SW 221 0 min 0,000 mm 0,0 UV-I 0 W/m 7,3 C 9,0 C 4,8 km/h (1 Bft) 97,87 %
17.10.2018 00:56 8,9 C 12,8 C 5,0 C 88 % 1018,8 hPa 0,0 l/m 3,8 km/h (1 Bft) SW 221 0 min 0,000 mm 0,0 UV-I 0 W/m 7,0 C 8,9 C 4,8 km/h (1 Bft) 95,74 %
17.10.2018 00:58 8,8 C 12,8 C 5,6 C 88 % 1018,8 hPa 0,0 l/m 4,8 km/h (1 Bft) SW 217 0 min 0,000 mm 0,0 UV-I 0 W/m 6,9 C 8,8 C 6,4 km/h (2 Bft) 95,74 %
17.10.2018 01:00 8,6 C 12,8 C 5,6 C 88 % 1018,8 hPa 0,0 l/m 4,3 km/h (1 Bft) SW 217 0 min 0,000 mm 0,0 UV-I 0 W/m 6,7 C 8,6 C 6,4 km/h (2 Bft) 93,62 %
17.10.2018 01:02 8,4 C 12,8 C 5,0 C 88 % 1018,8 hPa 0,0 l/m 3,9 km/h (1 Bft) SW 217 0 min 0,000 mm 0,0 UV-I 0 W/m 6,5 C 8,4 C 4,8 km/h (1 Bft) 94,00 %
17.10.2018 01:04 8,4 C 12,8 C 5,0 C 89 % 1018,8 hPa 0,0 l/m 3,2 km/h (1 Bft) SW 217 0 min 0,000 mm 0,0 UV-I 0 W/m 6,7 C 8,4 C 4,8 km/h (1 Bft) 100,00 %
17.10.2018 01:06 8,5 C 12,8 C 5,0 C 90 % 1018,8 hPa 0,0 l/m 2,7 km/h (1 Bft) SW 217 0 min 0,000 mm 0,0 UV-I 0 W/m 7,0 C 8,5 C 3,2 km/h (1 Bft) 100,00 %
17.10.2018 01:08 8,6 C 12,8 C 4,4 C 90 % 1018,8 hPa 0,0 l/m 2,8 km/h (1 Bft) SW 217 0 min 0,000 mm 0,0 UV-I 0 W/m 7,1 C 8,6 C 4,8 km/h (1 Bft) 100,00 %
17.10.2018 01:10 8,7 C 12,8 C 4,4 C 89 % 1018,8 hPa 0,0 l/m 3,3 km/h (1 Bft) SW 217 0 min 0,000 mm 0,0 UV-I 0 W/m 7,0 C 8,7 C 4,8 km/h (1 Bft) 100,00 %
17.10.2018 01:12 8,8 C 12,8 C 4,4 C 89 % 1018,8 hPa 0,0 l/m 3,0 km/h (1 Bft) SW 217 0 min 0,000 mm 0,0 UV-I 0 W/m 7,1 C 8,8 C 4,8 km/h (1 Bft) 100,00 %
17.10.2018 01:14 8,7 C 12,8 C 5,0 C 88 % 1018,8 hPa 0,0 l/m 2,6 km/h (1 Bft) SW 217 0 min 0,000 mm 0,0 UV-I 0 W/m 6,8 C 8,7 C 3,2 km/h (1 Bft) 100,00 %
17.10.2018 01:16 8,8 C 12,8 C 5,0 C 88 % 1018,8 hPa 0,0 l/m 3,2 km/h (1 Bft) SW 217 0 min 0,000 mm 0,0 UV-I 0 W/m 6,9 C 8,8 C 3,2 km/h (1 Bft) 100,00 %
17.10.2018 01:18 8,7 C 12,8 C 5,0 C 88 % 1018,8 hPa 0,0 l/m 2,8 km/h (1 Bft) SW 217 0 min 0,000 mm 0,0 UV-I 0 W/m 6,8 C 8,7 C 4,8 km/h (1 Bft) 95,74 %
17.10.2018 01:20 8,7 C 12,8 C 5,0 C 88 % 1018,8 hPa 0,0 l/m 3,1 km/h (1 Bft) SW 217 0 min 0,000 mm 0,0 UV-I 0 W/m 6,8 C 8,7 C 4,8 km/h (1 Bft) 97,14 %
17.10.2018 01:22 8,5 C 12,8 C 5,0 C 88 % 1018,8 hPa 0,0 l/m 3,7 km/h (1 Bft) SW 217 0 min 0,000 mm 0,0 UV-I 0 W/m 6,6 C 8,5 C 4,8 km/h (1 Bft) 95,74 %
17.10.2018 01:24 8,3 C 12,8 C 5,0 C 88 % 1018,8 hPa 0,0 l/m 4,0 km/h (1 Bft) SW 217 0 min 0,000 mm 0,0 UV-I 0 W/m 6,4 C 8,3 C 4,8 km/h (1 Bft) 93,62 %
17.10.2018 01:26 8,2 C 12,8 C 4,4 C 90 % 1018,7 hPa 0,0 l/m 3,5 km/h (1 Bft) SW 217 0 min 0,000 mm 0,0 UV-I 0 W/m 6,7 C 8,2 C 4,8 km/h (1 Bft) 95,74 %
17.10.2018 01:28 8,3 C 12,8 C 4,4 C 90 % 1018,8 hPa 0,0 l/m 3,4 km/h (1 Bft) SW 217 0 min 0,000 mm 0,0 UV-I 0 W/m 6,8 C 8,3 C 4,8 km/h (1 Bft) 96,00 %
17.10.2018 01:30 8,4 C 12,8 C 4,4 C 90 % 1018,7 hPa 0,0 l/m 3,3 km/h (1 Bft) SW 217 0 min 0,000 mm 0,0 UV-I 0 W/m 6,9 C 8,4 C 4,8 km/h (1 Bft) 95,83 %
17.10.2018 01:32 8,5 C 12,2 C 4,4 C 90 % 1018,7 hPa 0,0 l/m 3,1 km/h (1 Bft) SW 217 0 min 0,000 mm 0,0 UV-I 0 W/m 7,0 C 8,5 C 3,2 km/h (1 Bft) 95,74 %
17.10.2018 01:34 8,7 C 12,2 C 4,4 C 90 % 1018,7 hPa 0,0 l/m 2,7 km/h (1 Bft) SW 217 0 min 0,000 mm 0,0 UV-I 0 W/m 7,2 C 8,7 C 3,2 km/h (1 Bft) 91,49 %
17.10.2018 01:36 8,6 C 12,2 C 4,4 C 89 % 1018,6 hPa 0,0 l/m 2,2 km/h (1 Bft) SW 217 0 min 0,000 mm 0,0 UV-I 0 W/m 6,9 C 8,6 C 3,2 km/h (1 Bft) 96,00 %
17.10.2018 01:38 8,6 C 12,2 C 4,4 C 89 % 1018,6 hPa 0,0 l/m 2,3 km/h (1 Bft) SW 217 0 min 0,000 mm 0,0 UV-I 0 W/m 6,9 C 8,6 C 3,2 km/h (1 Bft) 96,00 %
17.10.2018 01:40 8,2 C 12,2 C 4,4 C 88 % 1018,6 hPa 0,0 l/m 2,7 km/h (1 Bft) SW 217 0 min 0,000 mm 0,0 UV-I 0 W/m 6,3 C 8,2 C 3,2 km/h (1 Bft) 92,11 %
17.10.2018 01:42 8,1 C 12,2 C 3,9 C 89 % 1018,6 hPa 0,0 l/m 2,2 km/h (1 Bft) SW 217 0 min 0,000 mm 0,0 UV-I 0 W/m 6,4 C 8,1 C 4,8 km/h (1 Bft) 97,87 %
17.10.2018 01:44 8,1 C 12,2 C 3,9 C 90 % 1018,6 hPa 0,0 l/m 1,5 km/h (1 Bft) SW 217 0 min 0,000 mm 0,0 UV-I 0 W/m 6,6 C 8,1 C 3,2 km/h (1 Bft) 97,87 %
17.10.2018 01:46 8,2 C 12,2 C 3,9 C 90 % 1018,6 hPa 0,0 l/m 1,6 km/h (1 Bft) SW 217 0 min 0,000 mm 0,0 UV-I 0 W/m 6,7 C 8,2 C 3,2 km/h (1 Bft) 96,00 %
17.10.2018 01:48 8,2 C 12,2 C 3,9 C 90 % 1018,6 hPa 0,0 l/m 2,2 km/h (1 Bft) SW 217 0 min 0,000 mm 0,0 UV-I 0 W/m 6,7 C 8,2 C 3,2 km/h (1 Bft) 98,00 %
17.10.2018 01:50 8,2 C 12,8 C 3,9 C 90 % 1018,6 hPa 0,0 l/m 1,1 km/h (1 Bft) SW 217 0 min 0,000 mm 0,0 UV-I 0 W/m 6,7 C 8,2 C 1,6 km/h (1 Bft) 95,74 %
17.10.2018 01:52 8,1 C 12,8 C 3,9 C 89 % 1018,7 hPa 0,0 l/m 0,1 km/h (0 Bft) SW 217 0 min 0,000 mm 0,0 UV-I 0 W/m 6,4 C 8,1 C 1,6 km/h (1 Bft) 95,74 %
17.10.2018 01:54 8,0 C 12,2 C 3,9 C 90 % 1018,8 hPa 0,0 l/m 1,4 km/h (1 Bft) SW 217 0 min 0,000 mm 0,0 UV-I 0 W/m 6,5 C 8,0 C 3,2 km/h (1 Bft) 97,87 %
17.10.2018 01:56 7,9 C 12,2 C 3,9 C 90 % 1018,7 hPa 0,0 l/m 3,0 km/h (1 Bft) SW 217 0 min 0,000 mm 0,0 UV-I 0 W/m 6,4 C 7,9 C 4,8 km/h (1 Bft) 95,74 %
17.10.2018 01:58 7,9 C 12,2 C 3,9 C 90 % 1018,8 hPa 0,0 l/m 2,3 km/h (1 Bft) SW 217 0 min 0,000 mm 0,0 UV-I 0 W/m 6,4 C 7,9 C 3,2 km/h (1 Bft) 97,14 %
17.10.2018 02:00 7,8 C 12,2 C 3,9 C 90 % 1018,8 hPa 0,0 l/m 3,0 km/h (1 Bft) SW 217 0 min 0,000 mm 0,0 UV-I 0 W/m 6,3 C 7,8 C 4,8 km/h (1 Bft) 98,00 %
17.10.2018 02:02 7,8 C 12,2 C 4,4 C 90 % 1018,8 hPa 0,0 l/m 3,2 km/h (1 Bft) SW 217 0 min 0,000 mm 0,0 UV-I 0 W/m 6,3 C 7,8 C 4,8 km/h (1 Bft) 95,74 %
17.10.2018 02:04 7,8 C 12,2 C 4,4 C 90 % 1018,8 hPa 0,0 l/m 3,1 km/h (1 Bft) SW 217 0 min 0,000 mm 0,0 UV-I 0 W/m 6,3 C 7,8 C 3,2 km/h (1 Bft) 98,00 %
17.10.2018 02:06 7,8 C 12,2 C 4,4 C 90 % 1018,7 hPa 0,0 l/m 3,1 km/h (1 Bft) SW 217 0 min 0,000 mm 0,0 UV-I 0 W/m 6,3 C 7,8 C 4,8 km/h (1 Bft) 97,87 %
17.10.2018 02:08 7,7 C 12,2 C 4,4 C 90 % 1018,8 hPa 0,0 l/m 1,9 km/h (1 Bft) SW 217 0 min 0,000 mm 0,0 UV-I 0 W/m 6,2 C 7,7 C 3,2 km/h (1 Bft) 96,00 %
17.10.2018 02:10 7,7 C 12,2 C 4,4 C 90 % 1018,7 hPa 0,0 l/m 1,7 km/h (1 Bft) SW 217 0 min 0,000 mm 0,0 UV-I 0 W/m 6,2 C 7,7 C 3,2 km/h (1 Bft) 100,00 %
17.10.2018 02:12 7,8 C 12,2 C 3,9 C 90 % 1018,7 hPa 0,0 l/m 2,0 km/h (1 Bft) SW 217 0 min 0,000 mm 0,0 UV-I 0 W/m 6,3 C 7,8 C 3,2 km/h (1 Bft) 100,00 %
17.10.2018 02:14 7,9 C 12,2 C 3,9 C 90 % 1018,7 hPa 0,0 l/m 2,5 km/h (1 Bft) SW 217 0 min 0,000 mm 0,0 UV-I 0 W/m 6,4 C 7,9 C 3,2 km/h (1 Bft) 100,00 %
17.10.2018 02:16 8,1 C 12,2 C 4,4 C 90 % 1018,7 hPa 0,0 l/m 3,0 km/h (1 Bft) SW 217 0 min 0,000 mm 0,0 UV-I 0 W/m 6,6 C 8,1 C 3,2 km/h (1 Bft) 97,87 %
17.10.2018 02:18 8,1 C 12,2 C 4,4 C 89 % 1018,7 hPa 0,0 l/m 3,8 km/h (1 Bft) SW 217 0 min 0,000 mm 0,0 UV-I 0 W/m 6,4 C 8,1 C 4,8 km/h (1 Bft) 100,00 %
17.10.2018 02:20 7,8 C 12,2 C 4,4 C 88 % 1018,7 hPa 0,0 l/m 4,1 km/h (1 Bft) SW 217 0 min 0,000 mm 0,0 UV-I 0 W/m 5,9 C 7,8 C 4,8 km/h (1 Bft) 97,87 %
17.10.2018 02:22 7,6 C 12,2 C 5,0 C 89 % 1018,7 hPa 0,0 l/m 3,4 km/h (1 Bft) SW 217 0 min 0,000 mm 0,0 UV-I 0 W/m 5,9 C 7,6 C 4,8 km/h (1 Bft) 97,87 %
17.10.2018 02:24 7,5 C 12,2 C 5,0 C 90 % 1018,8 hPa 0,0 l/m 2,4 km/h (1 Bft) SW 217 0 min 0,000 mm 0,0 UV-I 0 W/m 6,0 C 7,5 C 3,2 km/h (1 Bft) 97,37 %
17.10.2018 02:26 7,6 C 12,2 C 4,4 C 91 % 1018,7 hPa 0,0 l/m 2,2 km/h (1 Bft) SW 217 0 min 0,000 mm 0,0 UV-I 0 W/m 6,2 C 7,6 C 3,2 km/h (1 Bft) 100,00 %
17.10.2018 02:28 7,7 C 12,2 C 4,4 C 91 % 1018,7 hPa 0,0 l/m 2,2 km/h (1 Bft) SW 217 0 min 0,000 mm 0,0 UV-I 0 W/m 6,3 C 7,7 C 3,2 km/h (1 Bft) 100,00 %
17.10.2018 02:30 7,8 C 12,2 C 4,4 C 91 % 1018,7 hPa 0,0 l/m 2,7 km/h (1 Bft) SW 217 0 min 0,000 mm 0,0 UV-I 0 W/m 6,4 C 7,8 C 3,2 km/h (1 Bft) 100,00 %
17.10.2018 02:32 7,9 C 12,2 C 4,4 C 91 % 1018,7 hPa 0,0 l/m 3,2 km/h (1 Bft) SW 217 0 min 0,000 mm 0,0 UV-I 0 W/m 6,5 C 7,9 C 4,8 km/h (1 Bft) 100,00 %
17.10.2018 02:34 7,8 C 12,2 C 4,4 C 90 % 1018,7 hPa 0,0 l/m 3,3 km/h (1 Bft) SW 217 0 min 0,000 mm 0,0 UV-I 0 W/m 6,3 C 7,8 C 4,8 km/h (1 Bft) 100,00 %
17.10.2018 02:36 7,7 C 12,2 C 4,4 C 90 % 1018,7 hPa 0,0 l/m 3,4 km/h (1 Bft) SW 217 0 min 0,000 mm 0,0 UV-I 0 W/m 6,2 C 7,7 C 4,8 km/h (1 Bft) 97,37 %
17.10.2018 02:38 7,8 C 12,2 C 4,4 C 91 % 1018,7 hPa 0,0 l/m 3,6 km/h (1 Bft) SW 217 0 min 0,000 mm 0,0 UV-I 0 W/m 6,4 C 7,8 C 4,8 km/h (1 Bft) 97,87 %
17.10.2018 02:40 7,7 C 12,2 C 3,9 C 91 % 1018,7 hPa 0,0 l/m 3,6 km/h (1 Bft) SW 217 0 min 0,000 mm 0,0 UV-I 0 W/m 6,3 C 7,7 C 4,8 km/h (1 Bft) 98,00 %
17.10.2018 02:42 7,5 C 12,2 C 3,9 C 90 % 1018,8 hPa 0,0 l/m 3,6 km/h (1 Bft) SW 217 0 min 0,000 mm 0,0 UV-I 0 W/m 6,0 C 7,5 C 4,8 km/h (1 Bft) 95,74 %
17.10.2018 02:44 7,3 C 12,2 C 3,9 C 90 % 1018,7 hPa 0,0 l/m 2,5 km/h (1 Bft) SW 217 0 min 0,000 mm 0,0 UV-I 0 W/m 5,8 C 7,3 C 3,2 km/h (1 Bft) 95,74 %
17.10.2018 02:46 7,2 C 12,2 C 3,9 C 90 % 1018,8 hPa 0,0 l/m 3,1 km/h (1 Bft) SW 217 0 min 0,000 mm 0,0 UV-I 0 W/m 5,7 C 7,2 C 4,8 km/h (1 Bft) 97,87 %
17.10.2018 02:48 7,2 C 12,2 C 3,9 C 91 % 1018,8 hPa 0,0 l/m 2,8 km/h (1 Bft) SW 217 0 min 0,000 mm 0,0 UV-I 0 W/m 5,8 C 7,2 C 4,8 km/h (1 Bft) 95,83 %
17.10.2018 02:50 7,2 C 12,2 C 3,9 C 92 % 1018,8 hPa 0,0 l/m 2,2 km/h (1 Bft) SW 217 0 min 0,000 mm 0,0 UV-I 0 W/m 6,0 C 7,2 C 3,2 km/h (1 Bft) 97,87 %
17.10.2018 02:52 7,2 C 12,2 C 3,9 C 92 % 1018,8 hPa 0,0 l/m 1,7 km/h (1 Bft) SW 217 0 min 0,000 mm 0,0 UV-I 0 W/m 6,0 C 7,2 C 3,2 km/h (1 Bft) 97,87 %
17.10.2018 02:54 7,2 C 12,2 C 3,9 C 92 % 1018,8 hPa 0,0 l/m 1,8 km/h (1 Bft) SW 217 0 min 0,000 mm 0,0 UV-I 0 W/m 6,0 C 7,2 C 3,2 km/h (1 Bft) 98,00 %
17.10.2018 02:56 7,3 C 12,2 C 3,9 C 92 % 1018,8 hPa 0,0 l/m 1,5 km/h (1 Bft) SW 217 0 min 0,000 mm 0,0 UV-I 0 W/m 6,1 C 7,3 C 3,2 km/h (1 Bft) 97,37 %
17.10.2018 02:58 7,4 C 12,2 C 3,9 C 92 % 1018,8 hPa 0,0 l/m 1,3 km/h (1 Bft) SW 217 0 min 0,000 mm 0,0 UV-I 0 W/m 6,2 C 7,4 C 1,6 km/h (1 Bft) 100,00 %
17.10.2018 03:00 7,4 C 12,2 C 3,3 C 93 % 1018,8 hPa 0,0 l/m 1,0 km/h (0 Bft) SW 217 0 min 0,000 mm 0,0 UV-I 0 W/m 6,3 C 7,4 C 1,6 km/h (1 Bft) 100,00 %
17.10.2018 03:02 7,4 C 12,2 C 3,3 C 92 % 1018,8 hPa 0,0 l/m 1,1 km/h (1 Bft) SW 217 0 min 0,000 mm 0,0 UV-I 0 W/m 6,2 C 7,4 C 1,6 km/h (1 Bft) 100,00 %
17.10.2018 03:04 7,2 C 12,2 C 3,3 C 92 % 1018,8 hPa 0,0 l/m 1,8 km/h (1 Bft) SW 217 0 min 0,000 mm 0,0 UV-I 0 W/m 6,0 C 7,2 C 3,2 km/h (1 Bft) 97,87 %
17.10.2018 03:06 7,0 C 12,2 C 3,3 C 91 % 1018,8 hPa 0,0 l/m 1,9 km/h (1 Bft) SW 217 0 min 0,000 mm 0,0 UV-I 0 W/m 5,6 C 7,0 C 3,2 km/h (1 Bft) 100,00 %
17.10.2018 03:08 6,9 C 12,2 C 3,3 C 92 % 1018,7 hPa 0,0 l/m 1,8 km/h (1 Bft) SW 217 0 min 0,000 mm 0,0 UV-I 0 W/m 5,7 C 6,9 C 3,2 km/h (1 Bft) 100,00 %
17.10.2018 03:10 7,1 C 12,2 C 3,3 C 93 % 1018,7 hPa 0,0 l/m 1,0 km/h (0 Bft) SW 217 0 min 0,000 mm 0,0 UV-I 0 W/m 6,0 C 7,1 C 1,6 km/h (1 Bft) 97,87 %
17.10.2018 03:12 7,2 C 12,2 C 2,8 C 93 % 1018,7 hPa 0,0 l/m 0,1 km/h (0 Bft) SW 217 0 min 0,000 mm 0,0 UV-I 0 W/m 6,1 C 7,2 C 1,6 km/h (1 Bft) 100,00 %
17.10.2018 03:14 7,3 C 12,2 C 3,3 C 93 % 1018,7 hPa 0,0 l/m 0,0 km/h (0 Bft) SW 217 0 min 0,000 mm 0,0 UV-I 0 W/m 6,2 C 7,3 C 0,0 km/h (0 Bft) 100,00 %
17.10.2018 03:16 7,3 C 12,2 C 2,8 C 93 % 1018,8 hPa 0,0 l/m 0,5 km/h (0 Bft) SW 217 0 min 0,000 mm 0,0 UV-I 0 W/m 6,2 C 7,3 C 1,6 km/h (1 Bft) 100,00 %
17.10.2018 03:18 7,3 C 12,2 C 3,3 C 93 % 1018,7 hPa 0,0 l/m 0,0 km/h (0 Bft) SW 217 0 min 0,000 mm 0,0 UV-I 0 W/m 6,2 C 7,3 C 0,0 km/h (0 Bft) 97,87 %
17.10.2018 03:20 7,3 C 12,2 C 3,3 C 92 % 1018,7 hPa 0,0 l/m 0,0 km/h (0 Bft) SW 217 0 min 0,000 mm 0,0 UV-I 0 W/m 6,1 C 7,3 C 0,0 km/h (0 Bft) 97,87 %
17.10.2018 03:22 7,3 C 12,2 C 3,3 C 92 % 1018,7 hPa 0,0 l/m 0,0 km/h (0 Bft) SW 217 0 min 0,000 mm 0,0 UV-I 0 W/m 6,1 C 7,3 C 0,0 km/h (0 Bft) 100,00 %
17.10.2018 03:24 7,3 C 12,2 C 3,3 C 92 % 1018,7 hPa 0,0 l/m 0,0 km/h (0 Bft) SW 217 0 min 0,000 mm 0,0 UV-I 0 W/m 6,1 C 7,3 C 0,0 km/h (0 Bft) 98,00 %
17.10.2018 03:26 7,2 C 12,2 C 3,3 C 92 % 1018,7 hPa 0,0 l/m 0,0 km/h (0 Bft) SW 217 0 min 0,000 mm 0,0 UV-I 0 W/m 6,0 C 7,2 C 0,0 km/h (0 Bft) 97,87 %
17.10.2018 03:28 7,1 C 12,2 C 3,9 C 92 % 1018,7 hPa 0,0 l/m 0,0 km/h (0 Bft) SW 217 0 min 0,000 mm 0,0 UV-I 0 W/m 5,9 C 7,1 C 0,0 km/h (0 Bft) 93,75 %
17.10.2018 03:30 7,1 C 12,2 C 3,9 C 92 % 1018,8 hPa 0,0 l/m 0,0 km/h (0 Bft) SW 217 0 min 0,000 mm 0,0 UV-I 0 W/m 5,9 C 7,1 C 0,0 km/h (0 Bft) 97,87 %
17.10.2018 03:32 7,1 C 12,2 C 3,9 C 92 % 1018,7 hPa 0,0 l/m 0,0 km/h (0 Bft) SW 217 0 min 0,000 mm 0,0 UV-I 0 W/m 5,9 C 7,1 C 0,0 km/h (0 Bft) 93,62 %
17.10.2018 03:34 7,1 C 12,2 C 3,9 C 92 % 1018,8 hPa 0,0 l/m 1,0 km/h (0 Bft) SW 217 0 min 0,000 mm 0,0 UV-I 0 W/m 5,9 C 7,1 C 3,2 km/h (1 Bft) 95,74 %
17.10.2018 03:36 7,1 C 12,2 C 3,9 C 92 % 1018,8 hPa 0,0 l/m 1,1 km/h (1 Bft) SW 217 0 min 0,000 mm 0,0 UV-I 0 W/m 5,9 C 7,1 C 3,2 km/h (1 Bft) 97,87 %
17.10.2018 03:38 6,9 C 12,2 C 3,9 C 92 % 1018,7 hPa 0,0 l/m 1,2 km/h (1 Bft) SW 217 0 min 0,000 mm 0,0 UV-I 0 W/m 5,7 C 6,9 C 1,6 km/h (1 Bft) 93,62 %
17.10.2018 03:40 6,9 C 12,2 C 3,9 C 92 % 1018,7 hPa 0,0 l/m 0,1 km/h (0 Bft) SW 217 0 min 0,000 mm 0,0 UV-I 0 W/m 5,7 C 6,9 C 1,6 km/h (1 Bft) 97,87 %
17.10.2018 03:42 7,0 C 12,2 C 4,4 C 92 % 1018,7 hPa 0,0 l/m 0,0 km/h (0 Bft) SW 217 0 min 0,000 mm 0,0 UV-I 0 W/m 5,8 C 7,0 C 0,0 km/h (0 Bft) 95,92 %
17.10.2018 03:44 7,0 C 12,2 C 3,9 C 92 % 1018,7 hPa 0,0 l/m 0,0 km/h (0 Bft) SW 217 0 min 0,000 mm 0,0 UV-I 0 W/m 5,8 C 7,0 C 0,0 km/h (0 Bft) 97,22 %
17.10.2018 03:46 7,1 C 12,2 C 3,9 C 92 % 1018,7 hPa 0,0 l/m 0,0 km/h (0 Bft) SW 217 0 min 0,000 mm 0,0 UV-I 0 W/m 5,9 C 7,1 C 0,0 km/h (0 Bft) 97,87 %
17.10.2018 03:48 7,1 C 12,2 C 3,9 C 92 % 1018,7 hPa 0,0 l/m 0,0 km/h (0 Bft) SW 217 0 min 0,000 mm 0,0 UV-I 0 W/m 5,9 C 7,1 C 0,0 km/h (0 Bft) 95,74 %
17.10.2018 03:50 7,1 C 12,2 C 3,3 C 91 % 1018,7 hPa 0,0 l/m 0,0 km/h (0 Bft) SW 217 0 min 0,000 mm 0,0 UV-I 0 W/m 5,7 C 7,1 C 0,0 km/h (0 Bft) 94,00 %
17.10.2018 03:52 7,0 C 12,2 C 3,3 C 92 % 1018,7 hPa 0,0 l/m 0,0 km/h (0 Bft) SW 217 0 min 0,000 mm 0,0 UV-I 0 W/m 5,8 C 7,0 C 0,0 km/h (0 Bft) 93,88 %
17.10.2018 03:54 6,9 C 12,2 C 3,3 C 92 % 1018,7 hPa 0,0 l/m 0,0 km/h (0 Bft) SW 217 0 min 0,000 mm 0,0 UV-I 0 W/m 5,7 C 6,9 C 0,0 km/h (0 Bft) 91,49 %
17.10.2018 03:56 6,8 C 12,2 C 3,3 C 92 % 1018,7 hPa 0,0 l/m 0,0 km/h (0 Bft) SW 217 0 min 0,000 mm 0,0 UV-I 0 W/m 5,6 C 6,8 C 0,0 km/h (0 Bft) 93,62 %
17.10.2018 03:58 6,9 C 12,2 C 3,3 C 92 % 1018,7 hPa 0,0 l/m 0,0 km/h (0 Bft) SW 217 0 min 0,000 mm 0,0 UV-I 0 W/m 5,7 C 6,9 C 0,0 km/h (0 Bft) 95,74 %
17.10.2018 04:00 6,9 C 12,2 C 2,8 C 92 % 1018,6 hPa 0,0 l/m 0,0 km/h (0 Bft) SW 217 0 min 0,000 mm 0,0 UV-I 0 W/m 5,7 C 6,9 C 0,0 km/h (0 Bft) 94,00 %
17.10.2018 04:02 6,8 C 12,2 C 2,8 C 92 % 1018,6 hPa 0,0 l/m 0,0 km/h (0 Bft) SW 217 0 min 0,000 mm 0,0 UV-I 0 W/m 5,6 C 6,8 C 0,0 km/h (0 Bft) 97,22 %
17.10.2018 04:04 6,9 C 12,2 C 3,3 C 93 % 1018,6 hPa 0,0 l/m 0,0 km/h (0 Bft) SW 217 0 min 0,000 mm 0,0 UV-I 0 W/m 5,8 C 6,9 C 1,6 km/h (1 Bft) 91,49 %
17.10.2018 04:06 6,8 C 12,2 C 2,8 C 92 % 1018,6 hPa 0,0 l/m 1,8 km/h (1 Bft) SW 217 0 min 0,000 mm 0,0 UV-I 0 W/m 5,6 C 6,8 C 3,2 km/h (1 Bft) 91,67 %
17.10.2018 04:08 6,8 C 12,2 C 3,3 C 93 % 1018,7 hPa 0,0 l/m 2,5 km/h (1 Bft) SW 217 0 min 0,000 mm 0,0 UV-I 0 W/m 5,7 C 6,8 C 3,2 km/h (1 Bft) 92,11 %
17.10.2018 04:10 6,8 C 12,2 C 3,9 C 93 % 1018,6 hPa 0,0 l/m 2,8 km/h (1 Bft) SW 217 0 min 0,000 mm 0,0 UV-I 0 W/m 5,7 C 6,8 C 3,2 km/h (1 Bft) 93,62 %
17.10.2018 04:12 6,7 C 12,2 C 3,9 C 92 % 1018,6 hPa 0,0 l/m 3,3 km/h (1 Bft) SW 217 0 min 0,000 mm 0,0 UV-I 0 W/m 5,5 C 6,7 C 4,8 km/h (1 Bft) 94,00 %
17.10.2018 04:14 6,7 C 12,2 C 3,9 C 92 % 1018,6 hPa 0,0 l/m 2,7 km/h (1 Bft) SW 217 0 min 0,000 mm 0,0 UV-I 0 W/m 5,5 C 6,7 C 3,2 km/h (1 Bft) 93,62 %
17.10.2018 04:16 6,7 C 12,2 C 3,3 C 93 % 1018,6 hPa 0,0 l/m 1,8 km/h (1 Bft) SW 217 0 min 0,000 mm 0,0 UV-I 0 W/m 5,6 C 6,7 C 3,2 km/h (1 Bft) 95,74 %
17.10.2018 04:18 6,8 C 12,2 C 3,3 C 93 % 1018,7 hPa 0,0 l/m 1,5 km/h (1 Bft) SW 217 0 min 0,000 mm 0,0 UV-I 0 W/m 5,7 C 6,8 C 3,2 km/h (1 Bft) 95,74 %
17.10.2018 04:20 6,8 C 12,2 C 3,3 C 93 % 1018,6 hPa 0,0 l/m 1,8 km/h (1 Bft) SW 217 0 min 0,000 mm 0,0 UV-I 0 W/m 5,7 C 6,8 C 3,2 km/h (1 Bft) 95,74 %
17.10.2018 04:22 6,9 C 12,2 C 2,8 C 93 % 1018,7 hPa 0,0 l/m 2,2 km/h (1 Bft) SW 217 0 min 0,000 mm 0,0 UV-I 0 W/m 5,8 C 6,9 C 3,2 km/h (1 Bft) 98,00 %
17.10.2018 04:25 6,8 C 12,2 C 3,3 C 93 % 1018,6 hPa 0,0 l/m 3,0 km/h (1 Bft) SW 217 0 min 0,000 mm 0,0 UV-I 0 W/m 5,7 C 6,8 C 4,8 km/h (1 Bft) 95,89 %
17.10.2018 04:26 6,7 C 12,2 C 3,9 C 92 % 1018,6 hPa 0,0 l/m 3,5 km/h (1 Bft) SW 217 0 min 0,000 mm 0,0 UV-I 0 W/m 5,5 C 6,7 C 4,8 km/h (1 Bft) 100,00 %
17.10.2018 04:28 6,6 C 12,2 C 3,9 C 92 % 1018,6 hPa 0,0 l/m 3,0 km/h (1 Bft) SW 217 0 min 0,000 mm 0,0 UV-I 0 W/m 5,4 C 6,6 C 3,2 km/h (1 Bft) 97,87 %
17.10.2018 04:30 6,5 C 12,2 C 3,9 C 92 % 1018,6 hPa 0,0 l/m 2,8 km/h (1 Bft) SW 217 0 min 0,000 mm 0,0 UV-I 0 W/m 5,3 C 6,5 C 3,2 km/h (1 Bft) 95,74 %
17.10.2018 04:32 6,4 C 12,2 C 3,3 C 92 % 1018,6 hPa 0,0 l/m 2,4 km/h (1 Bft) SW 217 0 min 0,000 mm 0,0 UV-I 0 W/m 5,2 C 6,4 C 3,2 km/h (1 Bft) 97,87 %
17.10.2018 04:34 6,6 C 12,2 C 3,3 C 93 % 1018,6 hPa 0,0 l/m 2,0 km/h (1 Bft) SW 217 0 min 0,000 mm 0,0 UV-I 0 W/m 5,6 C 6,6 C 3,2 km/h (1 Bft) 93,62 %
17.10.2018 04:36 6,7 C 12,2 C 3,3 C 93 % 1018,6 hPa 0,0 l/m 2,0 km/h (1 Bft) SW 217 0 min 0,000 mm 0,0 UV-I 0 W/m 5,6 C 6,7 C 3,2 km/h (1 Bft) 100,00 %
17.10.2018 04:38 6,7 C 12,2 C 2,8 C 93 % 1018,5 hPa 0,0 l/m 2,6 km/h (1 Bft) SW 217 0 min 0,000 mm 0,0 UV-I 0 W/m 5,6 C 6,7 C 3,2 km/h (1 Bft) 100,00 %
17.10.2018 04:40 6,8 C 12,2 C 2,8 C 93 % 1018,6 hPa 0,0 l/m 3,2 km/h (1 Bft) SW 217 0 min 0,000 mm 0,0 UV-I 0 W/m 5,7 C 6,8 C 4,8 km/h (1 Bft) 97,87 %
17.10.2018 04:42 6,7 C 12,2 C 3,3 C 93 % 1018,6 hPa 0,0 l/m 3,6 km/h (1 Bft) SW 217 0 min 0,000 mm 0,0 UV-I 0 W/m 5,6 C 6,7 C 4,8 km/h (1 Bft) 100,00 %
17.10.2018 04:44 6,6 C 12,2 C 3,9 C 92 % 1018,6 hPa 0,0 l/m 4,0 km/h (1 Bft) SW 217 0 min 0,000 mm 0,0 UV-I 0 W/m 5,4 C 6,6 C 4,8 km/h (1 Bft) 100,00 %
17.10.2018 04:46 6,4 C 12,2 C 3,9 C 92 % 1018,6 hPa 0,0 l/m 4,3 km/h (1 Bft) SW 217 0 min 0,000 mm 0,0 UV-I 0 W/m 5,2 C 6,4 C 4,8 km/h (1 Bft) 97,87 %
17.10.2018 04:48 6,2 C 12,2 C 3,9 C 92 % 1018,6 hPa 0,0 l/m 4,2 km/h (1 Bft) SW 217 0 min 0,000 mm 0,0 UV-I 0 W/m 5,0 C 6,2 C 4,8 km/h (1 Bft) 100,00 %
17.10.2018 04:50 6,2 C 12,2 C 3,3 C 93 % 1018,6 hPa 0,0 l/m 4,0 km/h (1 Bft) SW 217 0 min 0,000 mm 0,0 UV-I 0 W/m 5,2 C 6,2 C 4,8 km/h (1 Bft) 96,00 %
17.10.2018 04:52 6,3 C 12,2 C 3,3 C 93 % 1018,6 hPa 0,0 l/m 4,8 km/h (1 Bft) SW 217 0 min 0,000 mm 0,0 UV-I 0 W/m 5,3 C 6,3 C 6,4 km/h (2 Bft) 100,00 %
17.10.2018 04:54 6,4 C 12,2 C 2,8 C 93 % 1018,6 hPa 0,0 l/m 4,7 km/h (1 Bft) SW 217 0 min 0,000 mm 0,0 UV-I 0 W/m 5,4 C 6,4 C 6,4 km/h (2 Bft) 100,00 %
17.10.2018 04:56 6,4 C 12,2 C 2,8 C 93 % 1018,6 hPa 0,0 l/m 4,6 km/h (1 Bft) SW 217 0 min 0,000 mm 0,0 UV-I 0 W/m 5,4 C 6,4 C 4,8 km/h (1 Bft) 100,00 %
17.10.2018 04:58 6,4 C 12,2 C 2,8 C 93 % 1018,5 hPa 0,0 l/m 3,6 km/h (1 Bft) SW 217 0 min 0,000 mm 0,0 UV-I 0 W/m 5,4 C 6,4 C 6,4 km/h (2 Bft) 100,00 %
17.10.2018 05:00 6,5 C 12,2 C 2,8 C 93 % 1018,5 hPa 0,0 l/m 2,3 km/h (1 Bft) SW 217 0 min 0,000 mm 0,0 UV-I 0 W/m 5,5 C 6,5 C 3,2 km/h (1 Bft) 100,00 %
17.10.2018 05:02 6,6 C 12,2 C 2,8 C 93 % 1018,6 hPa 0,0 l/m 2,5 km/h (1 Bft) SW 217 0 min 0,000 mm 0,0 UV-I 0 W/m 5,6 C 6,6 C 3,2 km/h (1 Bft) 95,74 %
17.10.2018 05:04 6,5 C 12,2 C 2,8 C 93 % 1018,6 hPa 0,0 l/m 2,6 km/h (1 Bft) SW 217 0 min 0,000 mm 0,0 UV-I 0 W/m 5,5 C 6,5 C 3,2 km/h (1 Bft) 100,00 %
17.10.2018 05:06 6,5 C 12,2 C 2,8 C 93 % 1018,6 hPa 0,0 l/m 2,6 km/h (1 Bft) SW 217 0 min 0,000 mm 0,0 UV-I 0 W/m 5,5 C 6,5 C 3,2 km/h (1 Bft) 97,87 %
17.10.2018 05:08 6,4 C 12,2 C 2,8 C 93 % 1018,6 hPa 0,0 l/m 2,5 km/h (1 Bft) SW 217 0 min 0,000 mm 0,0 UV-I 0 W/m 5,4 C 6,4 C 3,2 km/h (1 Bft) 97,87 %
17.10.2018 05:10 6,2 C 12,2 C 2,8 C 92 % 1018,6 hPa 0,0 l/m 2,7 km/h (1 Bft) SW 217 0 min 0,000 mm 0,0 UV-I 0 W/m 5,0 C 6,2 C 3,2 km/h (1 Bft) 95,74 %
17.10.2018 05:12 6,2 C 12,2 C 3,3 C 93 % 1018,7 hPa 0,0 l/m 3,0 km/h (1 Bft) SW 217 0 min 0,000 mm 0,0 UV-I 0 W/m 5,2 C 6,2 C 4,8 km/h (1 Bft) 97,87 %
17.10.2018 05:14 6,2 C 12,2 C 3,3 C 93 % 1018,6 hPa 0,0 l/m 4,4 km/h (1 Bft) SW 217 0 min 0,000 mm 0,0 UV-I 0 W/m 5,2 C 6,2 C 4,8 km/h (1 Bft) 95,74 %
17.10.2018 05:16 6,1 C 12,2 C 3,3 C 93 % 1018,7 hPa 0,0 l/m 4,3 km/h (1 Bft) SW 217 0 min 0,000 mm 0,0 UV-I 0 W/m 5,1 C 6,1 C 6,4 km/h (2 Bft) 97,87 %
17.10.2018 05:18 6,1 C 12,2 C 3,3 C 93 % 1018,7 hPa 0,0 l/m 3,8 km/h (1 Bft) SW 217 0 min 0,000 mm 0,0 UV-I 0 W/m 5,1 C 6,1 C 6,4 km/h (2 Bft) 93,62 %
17.10.2018 05:20 6,2 C 12,2 C 3,9 C 93 % 1018,7 hPa 0,0 l/m 4,1 km/h (1 Bft) SW 217 0 min 0,000 mm 0,0 UV-I 0 W/m 5,2 C 6,2 C 4,8 km/h (1 Bft) 91,49 %
17.10.2018 05:22 6,1 C 12,2 C 3,3 C 93 % 1018,7 hPa 0,0 l/m 3,5 km/h (1 Bft) SW 217 0 min 0,000 mm 0,0 UV-I 0 W/m 5,1 C 6,1 C 4,8 km/h (1 Bft) 95,83 %
17.10.2018 05:24 6,0 C 12,2 C 3,3 C 92 % 1018,7 hPa 0,0 l/m 2,3 km/h (1 Bft) SW 217 0 min 0,000 mm 0,0 UV-I 0 W/m 4,8 C 6,0 C 3,2 km/h (1 Bft) 97,87 %
17.10.2018 05:26 6,2 C 12,2 C 3,3 C 93 % 1018,7 hPa 0,0 l/m 1,3 km/h (1 Bft) SW 217 0 min 0,000 mm 0,0 UV-I 0 W/m 5,2 C 6,2 C 1,6 km/h (1 Bft) 97,87 %
17.10.2018 05:28 6,2 C 12,2 C 2,8 C 93 % 1018,7 hPa 0,0 l/m 1,6 km/h (1 Bft) SW 217 0 min 0,000 mm 0,0 UV-I 0 W/m 5,2 C 6,2 C 3,2 km/h (1 Bft) 97,87 %
17.10.2018 05:30 6,2 C 12,2 C 3,3 C 93 % 1018,7 hPa 0,0 l/m 2,4 km/h (1 Bft) SW 217 0 min 0,000 mm 0,0 UV-I 0 W/m 5,2 C 6,2 C 3,2 km/h (1 Bft) 100,00 %
17.10.2018 05:32 6,1 C 12,2 C 3,9 C 93 % 1018,7 hPa 0,0 l/m 3,3 km/h (1 Bft) SW 217 0 min 0,000 mm 0,0 UV-I 0 W/m 5,1 C 6,1 C 4,8 km/h (1 Bft) 93,62 %
17.10.2018 05:34 6,1 C 12,2 C 3,9 C 93 % 1018,7 hPa 0,0 l/m 2,6 km/h (1 Bft) SW 217 0 min 0,000 mm 0,0 UV-I 0 W/m 5,1 C 6,1 C 3,2 km/h (1 Bft) 100,00 %
17.10.2018 05:36 6,1 C 12,2 C 3,3 C 93 % 1018,7 hPa 0,0 l/m 2,3 km/h (1 Bft) SW 217 0 min 0,000 mm 0,0 UV-I 0 W/m 5,1 C 6,1 C 3,2 km/h (1 Bft) 95,74 %
17.10.2018 05:38 6,1 C 12,2 C 3,3 C 93 % 1018,7 hPa 0,0 l/m 1,5 km/h (1 Bft) SW 217 0 min 0,000 mm 0,0 UV-I 0 W/m 5,1 C 6,1 C 1,6 km/h (1 Bft) 95,74 %
17.10.2018 05:40 6,0 C 12,2 C 3,3 C 92 % 1018,7 hPa 0,0 l/m 2,1 km/h (1 Bft) SW 217 0 min 0,000 mm 0,0 UV-I 0 W/m 4,8 C 6,0 C 3,2 km/h (1 Bft) 100,00 %
17.10.2018 05:42 5,9 C 12,2 C 3,3 C 92 % 1018,7 hPa 0,0 l/m 2,3 km/h (1 Bft) SW 217 0 min 0,000 mm 0,0 UV-I 0 W/m 4,7 C 5,9 C 3,2 km/h (1 Bft) 100,00 %
17.10.2018 05:44 5,8 C 12,2 C 3,3 C 92 % 1018,7 hPa 0,0 l/m 2,2 km/h (1 Bft) SW 217 0 min 0,000 mm 0,0 UV-I 0 W/m 4,6 C 5,8 C 3,2 km/h (1 Bft) 97,87 %
17.10.2018 05:46 5,8 C 12,2 C 2,8 C 93 % 1018,7 hPa 0,0 l/m 1,6 km/h (1 Bft) SW 217 0 min 0,000 mm 0,0 UV-I 0 W/m 4,8 C 5,8 C 3,2 km/h (1 Bft) 100,00 %
17.10.2018 05:48 5,8 C 12,2 C 2,8 C 93 % 1018,7 hPa 0,0 l/m 1,4 km/h (1 Bft) SW 217 0 min 0,000 mm 0,0 UV-I 0 W/m 4,8 C 5,8 C 1,6 km/h (1 Bft) 97,87 %
17.10.2018 05:50 5,9 C 12,2 C 2,8 C 93 % 1018,7 hPa 0,0 l/m 1,2 km/h (1 Bft) SW 217 0 min 0,000 mm 0,0 UV-I 0 W/m 4,9 C 5,9 C 1,6 km/h (1 Bft) 100,00 %
17.10.2018 05:52 5,9 C 12,2 C 2,2 C 93 % 1018,8 hPa 0,0 l/m 1,6 km/h (1 Bft) SW 217 0 min 0,000 mm 0,0 UV-I 0 W/m 4,9 C 5,9 C 3,2 km/h (1 Bft) 100,00 %
17.10.2018 05:54 5,9 C 12,2 C 2,2 C 93 % 1018,8 hPa 0,0 l/m 1,6 km/h (1 Bft) SW 217 0 min 0,000 mm 0,0 UV-I 0 W/m 4,9 C 5,9 C 3,2 km/h (1 Bft) 100,00 %
17.10.2018 05:56 5,9 C 12,2 C 2,2 C 93 % 1018,8 hPa 0,0 l/m 0,0 km/h (0 Bft) SW 217 0 min 0,000 mm 0,0 UV-I 0 W/m 4,9 C 5,9 C 0,0 km/h (0 Bft) 95,74 %
17.10.2018 05:58 6,1 C 12,2 C 2,2 C 93 % 1018,8 hPa 0,0 l/m 0,0 km/h (0 Bft) SW 217 0 min 0,000 mm 0,0 UV-I 0 W/m 5,1 C 6,1 C 0,0 km/h (0 Bft) 97,96 %
17.10.2018 06:00 6,0 C 12,2 C 2,2 C 93 % 1018,9 hPa 0,0 l/m 0,0 km/h (0 Bft) SW 217 0 min 0,000 mm 0,0 UV-I 0 W/m 5,0 C 6,0 C 0,0 km/h (0 Bft) 100,00 %
17.10.2018 06:02 6,0 C 12,2 C 2,2 C 93 % 1018,9 hPa 0,0 l/m 1,6 km/h (1 Bft) SW 217 0 min 0,000 mm 0,0 UV-I 0 W/m 5,0 C 6,0 C 3,2 km/h (1 Bft) 97,92 %
17.10.2018 06:04 6,0 C 12,2 C 2,2 C 93 % 1018,9 hPa 0,0 l/m 2,2 km/h (1 Bft) SW 217 0 min 0,000 mm 0,0 UV-I 0 W/m 5,0 C 6,0 C 3,2 km/h (1 Bft) 100,00 %
17.10.2018 06:06 6,0 C 12,2 C 2,8 C 93 % 1019,0 hPa 0,0 l/m 3,1 km/h (1 Bft) SW 217 0 min 0,000 mm 0,0 UV-I 0 W/m 5,0 C 6,0 C 4,8 km/h (1 Bft) 97,87 %
17.10.2018 06:08 5,9 C 12,2 C 3,3 C 93 % 1019,0 hPa 0,0 l/m 4,3 km/h (1 Bft) SW 217 0 min 0,000 mm 0,0 UV-I 0 W/m 4,9 C 5,9 C 4,8 km/h (1 Bft) 95,74 %
17.10.2018 06:10 5,8 C 12,2 C 3,3 C 93 % 1019,0 hPa 0,0 l/m 4,3 km/h (1 Bft) SW 217 0 min 0,000 mm 0,0 UV-I 0 W/m 4,8 C 5,8 C 4,8 km/h (1 Bft) 100,00 %
17.10.2018 06:12 5,7 C 12,2 C 3,3 C 93 % 1019,0 hPa 0,0 l/m 4,8 km/h (1 Bft) SW 218 0 min 0,000 mm 0,0 UV-I 0 W/m 4,7 C 5,7 C 6,4 km/h (2 Bft) 100,00 %
17.10.2018 06:15 5,8 C 12,2 C 3,3 C 94 % 1019,0 hPa 0,0 l/m 3,9 km/h (1 Bft) SW 218 0 min 0,000 mm 0,0 UV-I 0 W/m 4,9 C 5,8 C 6,4 km/h (2 Bft) 100,00 %
17.10.2018 06:16 5,9 C 12,2 C 3,3 C 94 % 1019,0 hPa 0,0 l/m 3,8 km/h (1 Bft) SW 218 0 min 0,000 mm 0,0 UV-I 0 W/m 5,0 C 5,9 C 4,8 km/h (1 Bft) 100,00 %
17.10.2018 06:18 6,1 C 12,2 C 2,8 C 94 % 1019,0 hPa 0,0 l/m 3,4 km/h (1 Bft) SW 218 0 min 0,000 mm 0,0 UV-I 0 W/m 5,2 C 6,1 C 4,8 km/h (1 Bft) 100,00 %
17.10.2018 06:20 6,1 C 12,2 C 2,8 C 94 % 1019,0 hPa 0,0 l/m 3,2 km/h (1 Bft) SW 218 0 min 0,000 mm 0,0 UV-I 0 W/m 5,2 C 6,1 C 3,2 km/h (1 Bft) 100,00 %
17.10.2018 06:22 6,1 C 12,2 C 2,8 C 94 % 1019,0 hPa 0,0 l/m 3,5 km/h (1 Bft) SW 218 0 min 0,000 mm 0,0 UV-I 0 W/m 5,2 C 6,1 C 4,8 km/h (1 Bft) 93,62 %
17.10.2018 06:24 6,0 C 12,2 C 2,8 C 93 % 1019,0 hPa 0,0 l/m 3,3 km/h (1 Bft) SW 218 0 min 0,000 mm 0,0 UV-I 0 W/m 5,0 C 6,0 C 4,8 km/h (1 Bft) 94,00 %
17.10.2018 06:26 5,9 C 12,2 C 2,8 C 93 % 1019,0 hPa 0,0 l/m 3,2 km/h (1 Bft) SW 218 0 min 0,000 mm 0,0 UV-I 0 W/m 4,9 C 5,9 C 4,8 km/h (1 Bft) 96,00 %
17.10.2018 06:28 5,9 C 12,2 C 2,8 C 93 % 1019,0 hPa 0,0 l/m 2,2 km/h (1 Bft) SW 218 0 min 0,000 mm 0,0 UV-I 0 W/m 4,9 C 5,9 C 3,2 km/h (1 Bft) 92,11 %
17.10.2018 06:30 5,9 C 12,2 C 2,2 C 93 % 1019,0 hPa 0,0 l/m 2,7 km/h (1 Bft) SW 218 0 min 0,000 mm 0,0 UV-I 0 W/m 4,9 C 5,9 C 3,2 km/h (1 Bft) 93,62 %
17.10.2018 06:32 6,1 C 12,2 C 2,2 C 94 % 1019,0 hPa 0,0 l/m 2,1 km/h (1 Bft) SW 218 0 min 0,000 mm 0,0 UV-I 0 W/m 5,2 C 6,1 C 3,2 km/h (1 Bft) 94,00 %
17.10.2018 06:34 6,2 C 12,2 C 2,2 C 94 % 1019,0 hPa 0,0 l/m 1,8 km/h (1 Bft) SW 218 0 min 0,000 mm 0,0 UV-I 0 W/m 5,3 C 6,2 C 3,2 km/h (1 Bft) 93,62 %
17.10.2018 06:36 6,2 C 12,2 C 2,2 C 94 % 1019,0 hPa 0,0 l/m 1,6 km/h (1 Bft) SW 218 0 min 0,000 mm 0,0 UV-I 0 W/m 5,3 C 6,2 C 3,2 km/h (1 Bft) 96,00 %
17.10.2018 06:38 6,3 C 12,2 C 2,2 C 93 % 1019,1 hPa 0,0 l/m 2,0 km/h (1 Bft) SW 218 0 min 0,000 mm 0,0 UV-I 0 W/m 5,3 C 6,3 C 3,2 km/h (1 Bft) 95,74 %
17.10.2018 06:40 6,3 C 12,2 C 1,7 C 93 % 1019,0 hPa 0,0 l/m 1,9 km/h (1 Bft) SW 218 0 min 0,000 mm 0,0 UV-I 0 W/m 5,3 C 6,3 C 3,2 km/h (1 Bft) 91,49 %
17.10.2018 06:42 6,3 C 12,2 C 1,7 C 93 % 1019,0 hPa 0,0 l/m 1,7 km/h (1 Bft) SW 218 0 min 0,000 mm 0,0 UV-I 0 W/m 5,3 C 6,3 C 3,2 km/h (1 Bft) 89,74 %
17.10.2018 06:44 6,2 C 12,2 C 1,7 C 92 % 1019,0 hPa 0,0 l/m 0,9 km/h (0 Bft) SW 218 0 min 0,000 mm 0,0 UV-I 0 W/m 5,0 C 6,2 C 1,6 km/h (1 Bft) 89,36 %
17.10.2018 06:46 6,1 C 12,2 C 2,2 C 92 % 1019,0 hPa 0,0 l/m 0,8 km/h (0 Bft) SW 218 0 min 0,000 mm 0,0 UV-I 0 W/m 4,9 C 6,1 C 1,6 km/h (1 Bft) 95,74 %
17.10.2018 06:48 6,1 C 12,2 C 2,2 C 92 % 1019,0 hPa 0,0 l/m 1,8 km/h (1 Bft) SW 218 0 min 0,000 mm 0,0 UV-I 0 W/m 4,9 C 6,1 C 3,2 km/h (1 Bft) 93,62 %
17.10.2018 06:50 5,9 C 12,2 C 2,2 C 92 % 1019,1 hPa 0,0 l/m 2,2 km/h (1 Bft) SW 218 0 min 0,000 mm 0,0 UV-I 0 W/m 4,7 C 5,9 C 3,2 km/h (1 Bft) 95,74 %
17.10.2018 06:52 5,9 C 12,2 C 2,2 C 92 % 1019,1 hPa 0,0 l/m 2,4 km/h (1 Bft) SW 218 0 min 0,000 mm 0,0 UV-I 0 W/m 4,7 C 5,9 C 3,2 km/h (1 Bft) 95,74 %
17.10.2018 06:54 5,8 C 12,2 C 2,2 C 93 % 1019,1 hPa 0,0 l/m 2,0 km/h (1 Bft) SW 218 0 min 0,000 mm 0,0 UV-I 0 W/m 4,8 C 5,8 C 3,2 km/h (1 Bft) 96,23 %
17.10.2018 06:56 5,9 C 12,2 C 2,2 C 93 % 1019,1 hPa 0,0 l/m 2,4 km/h (1 Bft) SW 218 0 min 0,000 mm 0,0 UV-I 0 W/m 4,9 C 5,9 C 3,2 km/h (1 Bft) 95,74 %
17.10.2018 06:58 5,8 C 12,2 C 2,2 C 93 % 1019,0 hPa 0,0 l/m 2,5 km/h (1 Bft) SW 218 0 min 0,000 mm 0,0 UV-I 0 W/m 4,8 C 5,8 C 3,2 km/h (1 Bft) 96,00 %
17.10.2018 07:00 5,7 C 12,2 C 2,2 C 93 % 1019,0 hPa 0,0 l/m 2,3 km/h (1 Bft) SW 218 0 min 0,000 mm 0,0 UV-I 0 W/m 4,7 C 5,7 C 3,2 km/h (1 Bft) 93,62 %
17.10.2018 07:02 5,7 C 12,2 C 2,2 C 94 % 1019,0 hPa 0,0 l/m 1,6 km/h (1 Bft) SW 218 0 min 0,000 mm 0,0 UV-I 0 W/m 4,8 C 5,7 C 3,2 km/h (1 Bft) 97,56 %
17.10.2018 07:04 5,8 C 12,2 C 2,2 C 94 % 1019,0 hPa 0,0 l/m 0,9 km/h (0 Bft) SW 218 0 min 0,000 mm 0,0 UV-I 0 W/m 4,9 C 5,8 C 1,6 km/h (1 Bft) 87,23 %
17.10.2018 07:06 5,9 C 12,2 C 2,2 C 94 % 1019,0 hPa 0,0 l/m 1,0 km/h (0 Bft) SW 218 0 min 0,000 mm 0,0 UV-I 0 W/m 5,0 C 5,9 C 1,6 km/h (1 Bft) 97,87 %
17.10.2018 07:08 6,1 C 12,2 C 2,2 C 94 % 1019,1 hPa 0,0 l/m 0,7 km/h (0 Bft) SW 218 0 min 0,000 mm 0,0 UV-I 0 W/m 5,2 C 6,1 C 1,6 km/h (1 Bft) 97,87 %
17.10.2018 07:10 6,1 C 12,2 C 1,7 C 94 % 1019,0 hPa 0,0 l/m 0,0 km/h (0 Bft) SW 218 0 min 0,000 mm 0,0 UV-I 0 W/m 5,2 C 6,1 C 0,0 km/h (0 Bft) 97,87 %
17.10.2018 07:12 6,0 C 12,2 C 1,7 C 94 % 1019,1 hPa 0,0 l/m 0,0 km/h (0 Bft) SW 218 0 min 0,000 mm 0,0 UV-I 0 W/m 5,1 C 6,0 C 0,0 km/h (0 Bft) 97,87 %
17.10.2018 07:14 5,9 C 12,2 C 1,7 C 94 % 1019,0 hPa 0,0 l/m 0,0 km/h (0 Bft) SW 218 0 min 0,000 mm 0,0 UV-I 0 W/m 5,0 C 5,9 C 0,0 km/h (0 Bft) 95,74 %
17.10.2018 07:16 5,8 C 12,2 C 1,7 C 94 % 1019,1 hPa 0,0 l/m 0,0 km/h (0 Bft) SW 218 0 min 0,000 mm 0,0 UV-I 0 W/m 4,9 C 5,8 C 0,0 km/h (0 Bft) 98,00 %
17.10.2018 07:18 5,6 C 12,2 C 1,7 C 94 % 1019,1 hPa 0,0 l/m 0,0 km/h (0 Bft) SW 218 0 min 0,000 mm 0,0 UV-I 3 W/m 4,7 C 5,6 C 0,0 km/h (0 Bft) 97,87 %
17.10.2018 07:20 5,4 C 12,2 C 2,2 C 93 % 1019,1 hPa 0,0 l/m 0,0 km/h (0 Bft) SW 218 0 min 0,000 mm 0,0 UV-I 5 W/m 4,4 C 5,4 C 0,0 km/h (0 Bft) 97,87 %
17.10.2018 07:22 5,4 C 12,2 C 2,8 C 93 % 1019,1 hPa 0,0 l/m 0,0 km/h (0 Bft) SW 218 0 min 0,000 mm 0,0 UV-I 5 W/m 4,4 C 5,4 C 0,0 km/h (0 Bft) 95,83 %
17.10.2018 07:24 5,3 C 12,2 C 2,8 C 94 % 1019,1 hPa 0,0 l/m 0,0 km/h (0 Bft) SW 218 0 min 0,000 mm 0,0 UV-I 5 W/m 4,4 C 5,3 C 0,0 km/h (0 Bft) 97,87 %
17.10.2018 07:26 5,4 C 12,2 C 2,8 C 94 % 1019,1 hPa 0,0 l/m 0,0 km/h (0 Bft) SW 218 0 min 0,000 mm 0,0 UV-I 6 W/m 4,5 C 5,4 C 0,0 km/h (0 Bft) 100,00 %
17.10.2018 07:28 5,6 C 12,2 C 2,8 C 94 % 1019,2 hPa 0,0 l/m 0,0 km/h (0 Bft) SW 218 0 min 0,000 mm 0,0 UV-I 7 W/m 4,7 C 5,6 C 0,0 km/h (0 Bft) 96,00 %
17.10.2018 07:30 5,6 C 12,2 C 2,2 C 94 % 1019,2 hPa 0,0 l/m 0,0 km/h (0 Bft) SW 218 0 min 0,000 mm 0,0 UV-I 7 W/m 4,7 C 5,6 C 0,0 km/h (0 Bft) 96,00 %
17.10.2018 07:32 5,6 C 12,2 C 2,2 C 94 % 1019,2 hPa 0,0 l/m 1,5 km/h (1 Bft) SW 218 0 min 0,000 mm 0,0 UV-I 8 W/m 4,7 C 5,6 C 3,2 km/h (1 Bft) 95,74 %
17.10.2018 07:34 5,6 C 12,2 C 2,2 C 94 % 1019,1 hPa 0,0 l/m 2,1 km/h (1 Bft) SW 217 0 min 0,000 mm 0,0 UV-I 9 W/m 4,7 C 5,6 C 3,2 km/h (1 Bft) 100,00 %
17.10.2018 07:36 5,5 C 12,2 C 2,2 C 94 % 1019,2 hPa 0,0 l/m 2,1 km/h (1 Bft) SW 218 2 min 0,000 mm 0,0 UV-I 9 W/m 4,6 C 5,5 C 3,2 km/h (1 Bft) 100,00 %
17.10.2018 07:38 5,5 C 12,2 C 2,2 C 93 % 1019,3 hPa 0,0 l/m 1,5 km/h (1 Bft) SW 218 0 min 0,000 mm 0,0 UV-I 10 W/m 4,5 C 5,5 C 3,2 km/h (1 Bft) 100,00 %
17.10.2018 07:40 5,5 C 12,2 C 2,2 C 94 % 1019,3 hPa 0,0 l/m 0,7 km/h (0 Bft) SW 218 0 min 0,000 mm 0,0 UV-I 11 W/m 4,6 C 5,5 C 1,6 km/h (1 Bft) 94,74 %
17.10.2018 07:42 5,5 C 12,2 C 2,2 C 94 % 1019,3 hPa 0,0 l/m 0,5 km/h (0 Bft) SW 218 0 min 0,000 mm 0,0 UV-I 11 W/m 4,6 C 5,5 C 1,6 km/h (1 Bft) 96,00 %
17.10.2018 07:44 5,5 C 12,2 C 2,2 C 94 % 1019,3 hPa 0,0 l/m 1,2 km/h (1 Bft) SW 218 0 min 0,000 mm 0,0 UV-I 12 W/m 4,6 C 5,5 C 1,6 km/h (1 Bft) 93,62 %
17.10.2018 07:46 5,4 C 12,2 C 2,2 C 94 % 1019,3 hPa 0,0 l/m 0,8 km/h (0 Bft) SW 218 0 min 0,000 mm 0,0 UV-I 12 W/m 4,5 C 5,4 C 1,6 km/h (1 Bft) 98,00 %
17.10.2018 07:48 5,4 C 12,2 C 2,2 C 94 % 1019,3 hPa 0,0 l/m 0,1 km/h (0 Bft) SW 218 0 min 0,000 mm 0,0 UV-I 14 W/m 4,5 C 5,4 C 1,6 km/h (1 Bft) 97,87 %
17.10.2018 07:50 5,5 C 12,2 C 2,2 C 94 % 1019,4 hPa 0,0 l/m 0,6 km/h (0 Bft) SW 218 0 min 0,000 mm 0,0 UV-I 15 W/m 4,6 C 5,5 C 1,6 km/h (1 Bft) 97,87 %
17.10.2018 07:52 5,5 C 12,2 C 2,2 C 94 % 1019,4 hPa 0,0 l/m 2,0 km/h (1 Bft) SW 218 0 min 0,000 mm 0,0 UV-I 16 W/m 4,6 C 5,5 C 3,2 km/h (1 Bft) 97,87 %
17.10.2018 07:54 5,5 C 12,2 C 2,8 C 94 % 1019,4 hPa 0,0 l/m 2,4 km/h (1 Bft) SW 218 0 min 0,000 mm 0,0 UV-I 18 W/m 4,6 C 5,5 C 3,2 km/h (1 Bft) 97,87 %
17.10.2018 07:56 5,5 C 12,2 C 2,8 C 94 % 1019,4 hPa 0,0 l/m 2,5 km/h (1 Bft) SW 218 0 min 0,000 mm 0,0 UV-I 20 W/m 4,6 C 5,5 C 3,2 km/h (1 Bft) 93,62 %
17.10.2018 07:58 5,4 C 12,2 C 2,8 C 94 % 1019,4 hPa 0,0 l/m 2,1 km/h (1 Bft) SW 218 0 min 0,000 mm 0,0 UV-I 22 W/m 4,5 C 5,4 C 3,2 km/h (1 Bft) 98,00 %
17.10.2018 08:00 5,3 C 12,2 C 3,3 C 94 % 1019,4 hPa 0,0 l/m 2,0 km/h (1 Bft) SW 218 0 min 0,000 mm 0,0 UV-I 29 W/m 4,4 C 5,3 C 3,2 km/h (1 Bft) 100,00 %
17.10.2018 08:02 5,3 C 12,2 C 3,3 C 94 % 1019,5 hPa 0,0 l/m 2,0 km/h (1 Bft) SW 218 0 min 0,000 mm 0,0 UV-I 45 W/m 4,4 C 5,3 C 3,2 km/h (1 Bft) 97,22 %
17.10.2018 08:04 5,3 C 12,2 C 3,3 C 94 % 1019,4 hPa 0,0 l/m 1,8 km/h (1 Bft) SW 218 0 min 0,000 mm 0,0 UV-I 51 W/m 4,4 C 5,3 C 3,2 km/h (1 Bft) 97,87 %
17.10.2018 08:06 5,3 C 12,2 C 3,3 C 94 % 1019,5 hPa 0,0 l/m 1,7 km/h (1 Bft) SW 218 2 min 0,000 mm 0,0 UV-I 55 W/m 4,4 C 5,3 C 3,2 km/h (1 Bft) 100,00 %
17.10.2018 08:08 5,4 C 12,2 C 3,9 C 94 % 1019,5 hPa 0,0 l/m 2,8 km/h (1 Bft) SW 218 2 min 0,000 mm 0,0 UV-I 59 W/m 4,5 C 5,4 C 3,2 km/h (1 Bft) 100,00 %
17.10.2018 08:10 5,5 C 12,2 C 3,9 C 94 % 1019,5 hPa 0,0 l/m 2,8 km/h (1 Bft) SW 218 2 min 0,000 mm 0,0 UV-I 63 W/m 4,6 C 5,5 C 3,2 km/h (1 Bft) 97,87 %
17.10.2018 08:12 5,6 C 12,2 C 4,4 C 94 % 1019,5 hPa 0,0 l/m 3,0 km/h (1 Bft) SW 218 2 min 0,000 mm 0,0 UV-I 67 W/m 4,7 C 5,6 C 3,2 km/h (1 Bft) 100,00 %
17.10.2018 08:15 5,8 C 12,2 C 4,4 C 94 % 1019,5 hPa 0,0 l/m 2,8 km/h (1 Bft) SW 218 3 min 0,000 mm 0,0 UV-I 71 W/m 4,9 C 5,8 C 3,2 km/h (1 Bft) 100,00 %
17.10.2018 08:16 5,8 C 12,2 C 4,4 C 94 % 1019,5 hPa 0,0 l/m 2,4 km/h (1 Bft) SW 218 1 min 0,000 mm 0,0 UV-I 75 W/m 4,9 C 5,8 C 3,2 km/h (1 Bft) 100,00 %
17.10.2018 08:18 5,9 C 12,2 C 4,4 C 94 % 1019,6 hPa 0,0 l/m 2,0 km/h (1 Bft) SW 218 2 min 0,000 mm 0,0 UV-I 77 W/m 5,0 C 5,9 C 3,2 km/h (1 Bft) 97,87 %
17.10.2018 08:21 6,2 C 12,2 C 4,4 C 94 % 1019,6 hPa 0,0 l/m 1,4 km/h (1 Bft) SW 218 3 min 0,000 mm 0,0 UV-I 82 W/m 5,3 C 6,2 C 3,2 km/h (1 Bft) 100,00 %
17.10.2018 08:22 6,2 C 12,2 C 4,4 C 94 % 1019,6 hPa 0,0 l/m 1,3 km/h (1 Bft) SW 218 1 min 0,000 mm 0,0 UV-I 85 W/m 5,3 C 6,2 C 1,6 km/h (1 Bft) 95,65 %
17.10.2018 08:26 6,3 C 12,2 C 5,0 C 94 % 1019,6 hPa 0,0 l/m 0,9 km/h (0 Bft) SW 218 4 min 0,000 mm 0,0 UV-I 91 W/m 5,4 C 6,3 C 1,6 km/h (1 Bft) 100,00 %
17.10.2018 08:28 6,3 C 12,2 C 5,0 C 94 % 1019,7 hPa 0,0 l/m 0,8 km/h (0 Bft) SW 218 2 min 0,000 mm 0,0 UV-I 94 W/m 5,4 C 6,3 C 1,6 km/h (1 Bft) 100,00 %
17.10.2018 08:30 6,3 C 12,2 C 5,0 C 94 % 1019,7 hPa 0,0 l/m 1,3 km/h (1 Bft) SW 218 2 min 0,000 mm 0,0 UV-I 98 W/m 5,4 C 6,3 C 1,6 km/h (1 Bft) 98,00 %
17.10.2018 08:32 6,4 C 12,2 C 5,6 C 94 % 1019,7 hPa 0,0 l/m 1,8 km/h (1 Bft) SW 218 2 min 0,000 mm 0,0 UV-I 103 W/m 5,5 C 6,4 C 3,2 km/h (1 Bft) 100,00 %
17.10.2018 08:34 6,5 C 12,2 C 5,6 C 94 % 1019,7 hPa 0,0 l/m 1,5 km/h (1 Bft) SW 218 2 min 0,000 mm 0,0 UV-I 107 W/m 5,6 C 6,5 C 3,2 km/h (1 Bft) 100,00 %
17.10.2018 08:36 6,7 C 12,2 C 5,6 C 94 % 1019,7 hPa 0,0 l/m 1,3 km/h (1 Bft) SW 218 2 min 0,000 mm 0,0 UV-I 111 W/m 5,8 C 6,7 C 1,6 km/h (1 Bft) 98,00 %
17.10.2018 08:38 6,9 C 12,2 C 5,6 C 94 % 1019,7 hPa 0,0 l/m 0,7 km/h (0 Bft) SW 218 2 min 0,000 mm 0,0 UV-I 114 W/m 6,0 C 6,9 C 1,6 km/h (1 Bft) 100,00 %
17.10.2018 08:40 7,1 C 12,2 C 5,6 C 94 % 1019,7 hPa 0,0 l/m 0,0 km/h (0 Bft) SW 218 2 min 0,000 mm 0,0 UV-I 118 W/m 6,2 C 7,1 C 0,0 km/h (0 Bft) 100,00 %
17.10.2018 08:42 7,2 C 12,2 C 5,6 C 94 % 1019,7 hPa 0,0 l/m 0,0 km/h (0 Bft) SW 218 2 min 0,000 mm 0,0 UV-I 122 W/m 6,3 C 7,2 C 0,0 km/h (0 Bft) 98,00 %
17.10.2018 08:44 7,4 C 12,2 C 5,6 C 94 % 1019,7 hPa 0,0 l/m 0,0 km/h (0 Bft) SW 218 2 min 0,000 mm 0,0 UV-I 126 W/m 6,5 C 7,4 C 0,0 km/h (0 Bft) 97,87 %
17.10.2018 08:46 7,4 C 12,2 C 5,6 C 94 % 1019,7 hPa 0,0 l/m 0,0 km/h (0 Bft) SW 218 2 min 0,000 mm 0,0 UV-I 130 W/m 6,5 C 7,4 C 0,0 km/h (0 Bft) 96,00 %
17.10.2018 08:48 7,4 C 12,2 C 6,1 C 93 % 1019,6 hPa 0,0 l/m 0,0 km/h (0 Bft) SW 218 2 min 0,000 mm 0,0 UV-I 135 W/m 6,3 C 7,4 C 1,6 km/h (1 Bft) 100,00 %
17.10.2018 08:50 7,6 C 12,2 C 6,7 C 93 % 1019,6 hPa 0,0 l/m 1,2 km/h (1 Bft) SW 218 2 min 0,000 mm 0,0 UV-I 140 W/m 6,5 C 7,6 C 1,6 km/h (1 Bft) 95,16 %
17.10.2018 08:52 7,8 C 12,2 C 6,7 C 93 % 1019,6 hPa 0,0 l/m 1,8 km/h (1 Bft) SW 218 2 min 0,000 mm 0,0 UV-I 145 W/m 6,7 C 7,8 C 3,2 km/h (1 Bft) 96,00 %
17.10.2018 08:54 8,0 C 12,2 C 6,7 C 94 % 1019,6 hPa 0,0 l/m 2,3 km/h (1 Bft) SW 217 2 min 0,000 mm 0,0 UV-I 150 W/m 7,1 C 8,0 C 3,2 km/h (1 Bft) 92,11 %
17.10.2018 08:56 8,3 C 12,2 C 7,2 C 94 % 1019,6 hPa 0,0 l/m 2,0 km/h (1 Bft) SW 217 2 min 0,000 mm 0,0 UV-I 156 W/m 7,4 C 8,3 C 3,2 km/h (1 Bft) 96,61 %
17.10.2018 08:58 8,4 C 12,2 C 7,2 C 94 % 1019,6 hPa 0,0 l/m 1,6 km/h (1 Bft) SW 217 2 min 0,000 mm 0,0 UV-I 161 W/m 7,5 C 8,4 C 3,2 km/h (1 Bft) 94,74 %
17.10.2018 09:00 8,6 C 12,2 C 7,8 C 93 % 1019,6 hPa 0,0 l/m 1,4 km/h (1 Bft) SW 217 2 min 0,051 mm 0,0 UV-I 164 W/m 7,5 C 8,6 C 3,2 km/h (1 Bft) 94,34 %
17.10.2018 09:02 8,7 C 12,2 C 7,8 C 93 % 1019,6 hPa 0,0 l/m 1,3 km/h (1 Bft) SW 217 2 min 0,000 mm 0,0 UV-I 171 W/m 7,6 C 8,7 C 3,2 km/h (1 Bft) 92,11 %
17.10.2018 09:04 8,8 C 12,2 C 7,8 C 93 % 1019,6 hPa 0,0 l/m 0,6 km/h (0 Bft) SW 217 2 min 0,000 mm 0,0 UV-I 176 W/m 7,7 C 8,8 C 1,6 km/h (1 Bft) 96,00 %
17.10.2018 09:06 8,9 C 12,2 C 7,8 C 93 % 1019,6 hPa 0,0 l/m 0,0 km/h (0 Bft) SW 217 2 min 0,000 mm 0,0 UV-I 182 W/m 7,8 C 8,9 C 0,0 km/h (0 Bft) 92,00 %
17.10.2018 09:08 8,8 C 12,2 C 7,8 C 92 % 1019,6 hPa 0,0 l/m 0,5 km/h (0 Bft) SW 217 2 min 0,000 mm 0,0 UV-I 186 W/m 7,6 C 8,8 C 1,6 km/h (1 Bft) 100,00 %
17.10.2018 09:10 8,8 C 12,2 C 7,8 C 92 % 1019,6 hPa 0,0 l/m 1,0 km/h (0 Bft) SW 217 2 min 0,000 mm 0,0 UV-I 192 W/m 7,6 C 8,8 C 1,6 km/h (1 Bft) 96,43 %
17.10.2018 09:12 8,9 C 12,2 C 7,8 C 92 % 1019,7 hPa 0,0 l/m 0,8 km/h (0 Bft) SW 217 2 min 0,000 mm 0,0 UV-I 197 W/m 7,7 C 8,9 C 1,6 km/h (1 Bft) 97,37 %
17.10.2018 09:14 9,1 C 12,2 C 8,3 C 91 % 1019,7 hPa 0,0 l/m 1,5 km/h (1 Bft) SW 217 2 min 0,000 mm 0,0 UV-I 201 W/m 7,7 C 9,1 C 1,6 km/h (1 Bft) 100,00 %
17.10.2018 09:16 9,0 C 12,2 C 8,3 C 91 % 1019,7 hPa 0,0 l/m 1,6 km/h (1 Bft) SW 217 2 min 0,000 mm 0,0 UV-I 206 W/m 7,6 C 9,0 C 3,2 km/h (1 Bft) 100,00 %
17.10.2018 09:18 9,1 C 12,2 C 8,3 C 91 % 1019,7 hPa 0,0 l/m 1,6 km/h (1 Bft) SW 217 2 min 0,000 mm 0,0 UV-I 210 W/m 7,7 C 9,1 C 3,2 km/h (1 Bft) 100,00 %
17.10.2018 09:20 9,2 C 12,2 C 8,3 C 91 % 1019,7 hPa 0,0 l/m 1,6 km/h (1 Bft) SW 217 2 min 0,000 mm 0,0 UV-I 215 W/m 7,8 C 9,2 C 3,2 km/h (1 Bft) 100,00 %
17.10.2018 09:22 9,3 C 12,2 C 8,3 C 91 % 1019,6 hPa 0,0 l/m 1,9 km/h (1 Bft) SW 217 2 min 0,000 mm 0,0 UV-I 220 W/m 7,9 C 9,3 C 3,2 km/h (1 Bft) 97,87 %
17.10.2018 09:24 9,3 C 12,2 C 8,3 C 91 % 1019,6 hPa 0,0 l/m 2,2 km/h (1 Bft) SW 218 2 min 0,000 mm 0,0 UV-I 226 W/m 7,9 C 9,3 C 3,2 km/h (1 Bft) 100,00 %
17.10.2018 09:26 9,4 C 12,2 C 8,3 C 91 % 1019,6 hPa 0,0 l/m 2,1 km/h (1 Bft) SW 220 2 min 0,000 mm 0,0 UV-I 230 W/m 8,0 C 9,4 C 3,2 km/h (1 Bft) 100,00 %
17.10.2018 09:28 9,6 C 12,2 C 8,9 C 90 % 1019,6 hPa 0,0 l/m 3,0 km/h (1 Bft) N-NO 30 2 min 0,000 mm 0,1 UV-I 232 W/m 8,0 C 9,6 C 4,8 km/h (1 Bft) 100,00 %
17.10.2018 09:30 9,6 C 12,2 C 8,9 C 90 % 1019,6 hPa 0,0 l/m 2,3 km/h (1 Bft) N-NO 30 2 min 0,000 mm 0,5 UV-I 236 W/m 8,0 C 9,6 C 3,2 km/h (1 Bft) 100,00 %
17.10.2018 09:32 9,7 C 12,2 C 8,9 C 90 % 1019,6 hPa 0,0 l/m 2,0 km/h (1 Bft) N-NO 30 2 min 0,000 mm 0,5 UV-I 240 W/m 8,1 C 9,7 C 4,8 km/h (1 Bft) 97,56 %
17.10.2018 09:34 9,7 C 12,2 C 8,9 C 90 % 1019,6 hPa 0,0 l/m 2,5 km/h (1 Bft) N-NO 30 2 min 0,000 mm 0,5 UV-I 246 W/m 8,1 C 9,7 C 3,2 km/h (1 Bft) 100,00 %
17.10.2018 09:36 9,8 C 12,2 C 8,9 C 89 % 1019,6 hPa 0,0 l/m 2,2 km/h (1 Bft) N-NO 30 2 min 0,000 mm 0,5 UV-I 249 W/m 8,1 C 9,8 C 3,2 km/h (1 Bft) 100,00 %
17.10.2018 09:38 9,9 C 12,2 C 8,9 C 89 % 1019,7 hPa 0,0 l/m 2,5 km/h (1 Bft) N-NO 30 2 min 0,000 mm 0,5 UV-I 254 W/m 8,2 C 9,9 C 3,2 km/h (1 Bft) 97,87 %
17.10.2018 09:40 9,9 C 12,2 C 9,4 C 89 % 1019,6 hPa 0,0 l/m 1,9 km/h (1 Bft) N-NO 30 2 min 0,000 mm 0,5 UV-I 258 W/m 8,2 C 9,9 C 3,2 km/h (1 Bft) 100,00 %
17.10.2018 09:42 9,9 C 12,2 C 9,4 C 89 % 1019,6 hPa 0,0 l/m 2,0 km/h (1 Bft) N-NO 30 2 min 0,000 mm 0,5 UV-I 263 W/m 8,2 C 9,9 C 3,2 km/h (1 Bft) 100,00 %
17.10.2018 09:44 9,9 C 12,2 C 9,4 C 89 % 1019,6 hPa 0,0 l/m 1,7 km/h (1 Bft) N-NO 30 2 min 0,000 mm 0,6 UV-I 268 W/m 8,2 C 9,9 C 3,2 km/h (1 Bft) 100,00 %
17.10.2018 09:46 10,1 C 12,2 C 9,4 C 88 % 1019,5 hPa 0,0 l/m 2,2 km/h (1 Bft) N-NO 30 2 min 0,000 mm 0,6 UV-I 272 W/m 8,2 C 10,1 C 3,2 km/h (1 Bft) 100,00 %
17.10.2018 09:48 10,2 C 12,2 C 9,4 C 88 % 1019,6 hPa 0,0 l/m 2,1 km/h (1 Bft) N-NO 30 2 min 0,000 mm 0,6 UV-I 278 W/m 8,3 C 10,2 C 3,2 km/h (1 Bft) 100,00 %
17.10.2018 09:50 10,3 C 12,2 C 9,4 C 87 % 1019,6 hPa 0,0 l/m 2,5 km/h (1 Bft) N-NO 30 2 min 0,000 mm 0,6 UV-I 282 W/m 8,2 C 10,3 C 3,2 km/h (1 Bft) 100,00 %
17.10.2018 09:52 10,3 C 12,2 C 9,4 C 87 % 1019,6 hPa 0,0 l/m 2,5 km/h (1 Bft) N-NO 28 2 min 0,000 mm 0,6 UV-I 287 W/m 8,2 C 10,3 C 3,2 km/h (1 Bft) 97,87 %
17.10.2018 09:54 10,4 C 12,2 C 10,0 C 87 % 1019,6 hPa 0,0 l/m 2,5 km/h (1 Bft) N 9 2 min 0,000 mm 0,6 UV-I 291 W/m 8,3 C 10,4 C 3,2 km/h (1 Bft) 97,67 %
17.10.2018 09:56 10,4 C 12,2 C 10,0 C 86 % 1019,6 hPa 0,0 l/m 3,3 km/h (1 Bft) N 11 2 min 0,000 mm 0,6 UV-I 295 W/m 8,2 C 10,4 C 4,8 km/h (1 Bft) 100,00 %
17.10.2018 09:58 10,5 C 12,2 C 10,0 C 87 % 1019,6 hPa 0,0 l/m 3,8 km/h (1 Bft) N 11 2 min 0,000 mm 0,7 UV-I 298 W/m 8,4 C 10,5 C 4,8 km/h (1 Bft) 97,87 %
17.10.2018 10:00 10,6 C 12,2 C 10,0 C 86 % 1019,6 hPa 0,0 l/m 3,3 km/h (1 Bft) N-NO 13 2 min 0,101 mm 0,7 UV-I 301 W/m 8,4 C 10,6 C 4,8 km/h (1 Bft) 98,00 %
17.10.2018 10:02 10,7 C 12,2 C 10,6 C 86 % 1019,6 hPa 0,0 l/m 2,2 km/h (1 Bft) N-NO 13 2 min 0,000 mm 0,7 UV-I 306 W/m 8,5 C 10,7 C 3,2 km/h (1 Bft) 100,00 %
17.10.2018 10:04 10,9 C 12,2 C 10,6 C 86 % 1019,5 hPa 0,0 l/m 2,0 km/h (1 Bft) N-NO 13 2 min 0,000 mm 0,7 UV-I 309 W/m 8,7 C 10,9 C 3,2 km/h (1 Bft) 96,00 %
17.10.2018 10:06 10,9 C 12,2 C 10,6 C 86 % 1019,6 hPa 0,0 l/m 1,0 km/h (0 Bft) N-NO 13 2 min 0,000 mm 0,7 UV-I 314 W/m 8,7 C 10,9 C 1,6 km/h (1 Bft) 96,23 %
17.10.2018 10:08 10,8 C 12,2 C 10,6 C 86 % 1019,5 hPa 0,0 l/m 1,9 km/h (1 Bft) N 11 2 min 0,000 mm 0,7 UV-I 318 W/m 8,6 C 10,8 C 3,2 km/h (1 Bft) 98,00 %
17.10.2018 10:10 10,8 C 12,2 C 11,1 C 87 % 1019,5 hPa 0,0 l/m 3,0 km/h (1 Bft) N 11 2 min 0,000 mm 0,8 UV-I 322 W/m 8,7 C 10,8 C 4,8 km/h (1 Bft) 97,87 %
17.10.2018 10:12 11,1 C 12,2 C 11,1 C 87 % 1019,5 hPa 0,0 l/m 1,8 km/h (1 Bft) N 11 2 min 0,000 mm 0,8 UV-I 324 W/m 9,0 C 11,1 C 4,8 km/h (1 Bft) 97,87 %
17.10.2018 10:14 11,3 C 12,2 C 11,7 C 87 % 1019,5 hPa 0,0 l/m 2,8 km/h (1 Bft) N-NO 18 2 min 0,000 mm 0,8 UV-I 330 W/m 9,2 C 11,3 C 4,8 km/h (1 Bft) 97,73 %
17.10.2018 10:16 11,4 C 12,2 C 11,7 C 86 % 1019,5 hPa 0,0 l/m 3,1 km/h (1 Bft) N-NO 18 2 min 0,000 mm 0,8 UV-I 333 W/m 9,1 C 11,4 C 4,8 km/h (1 Bft) 96,00 %
17.10.2018 10:18 11,4 C 12,2 C 11,7 C 85 % 1019,5 hPa 0,0 l/m 2,8 km/h (1 Bft) N-NO 17 2 min 0,000 mm 0,8 UV-I 337 W/m 9,0 C 11,4 C 6,4 km/h (2 Bft) 94,74 %
17.10.2018 10:20 11,6 C 12,2 C 11,7 C 85 % 1019,5 hPa 0,0 l/m 3,0 km/h (1 Bft) N-NO 17 2 min 0,000 mm 0,8 UV-I 339 W/m 9,2 C 11,6 C 4,8 km/h (1 Bft) 97,87 %
17.10.2018 10:22 11,5 C 12,2 C 12,2 C 85 % 1019,4 hPa 0,0 l/m 2,8 km/h (1 Bft) N-NO 17 2 min 0,000 mm 0,8 UV-I 343 W/m 9,1 C 11,5 C 4,8 km/h (1 Bft) 95,74 %
17.10.2018 10:24 11,5 C 12,2 C 12,8 C 85 % 1019,4 hPa 0,0 l/m 3,4 km/h (1 Bft) N 9 2 min 0,000 mm 0,9 UV-I 347 W/m 9,1 C 11,5 C 4,8 km/h (1 Bft) 97,87 %
17.10.2018 10:26 11,6 C 12,2 C 12,8 C 85 % 1019,4 hPa 0,0 l/m 1,2 km/h (1 Bft) N 9 2 min 0,000 mm 0,9 UV-I 351 W/m 9,2 C 11,6 C 3,2 km/h (1 Bft) 97,87 %
17.10.2018 10:28 11,7 C 12,2 C 13,9 C 85 % 1019,4 hPa 0,0 l/m 2,6 km/h (1 Bft) O-NO 61 2 min 0,000 mm 0,9 UV-I 354 W/m 9,3 C 11,7 C 4,8 km/h (1 Bft) 97,87 %
17.10.2018 10:30 11,8 C 12,2 C 13,9 C 85 % 1019,4 hPa 0,0 l/m 3,1 km/h (1 Bft) O-NO 65 2 min 0,000 mm 0,9 UV-I 358 W/m 9,4 C 11,8 C 4,8 km/h (1 Bft) 96,23 %
17.10.2018 10:32 11,9 C 12,2 C 14,4 C 84 % 1019,4 hPa 0,0 l/m 4,1 km/h (1 Bft) NO 52 2 min 0,000 mm 0,9 UV-I 362 W/m 9,3 C 11,9 C 6,4 km/h (2 Bft) 95,83 %
17.10.2018 10:34 12,0 C 12,2 C 15,6 C 84 % 1019,4 hPa 0,0 l/m 5,0 km/h (1 Bft) NO 41 2 min 0,000 mm 0,9 UV-I 366 W/m 9,4 C 12,0 C 6,4 km/h (2 Bft) 96,88 %
17.10.2018 10:36 12,2 C 12,2 C 16,7 C 85 % 1019,4 hPa 0,0 l/m 3,5 km/h (1 Bft) O 87 2 min 0,000 mm 1,0 UV-I 369 W/m 9,8 C 12,2 C 6,4 km/h (2 Bft) 98,00 %
17.10.2018 10:38 12,2 C 12,2 C 18,3 C 83 % 1019,4 hPa 0,0 l/m 4,6 km/h (1 Bft) O 88 2 min 0,000 mm 1,0 UV-I 372 W/m 9,4 C 12,2 C 6,4 km/h (2 Bft) 98,00 %
17.10.2018 10:40 12,2 C 12,2 C 18,9 C 83 % 1019,4 hPa 0,0 l/m 4,9 km/h (1 Bft) O-NO 69 2 min 0,000 mm 1,0 UV-I 376 W/m 9,4 C 12,2 C 8,0 km/h (2 Bft) 97,87 %
17.10.2018 10:42 12,2 C 12,2 C 20,0 C 84 % 1019,4 hPa 0,0 l/m 4,8 km/h (1 Bft) O-NO 66 2 min 0,000 mm 1,0 UV-I 379 W/m 9,6 C 12,2 C 6,4 km/h (2 Bft) 97,92 %
17.10.2018 10:44 12,2 C 12,2 C 20,6 C 83 % 1019,4 hPa 0,0 l/m 3,8 km/h (1 Bft) NO 46 2 min 0,000 mm 1,0 UV-I 382 W/m 9,4 C 12,2 C 4,8 km/h (1 Bft) 100,00 %
17.10.2018 10:46 12,3 C 12,2 C 20,6 C 83 % 1019,4 hPa 0,0 l/m 4,3 km/h (1 Bft) NO 51 2 min 0,000 mm 1,0 UV-I 384 W/m 9,5 C 12,3 C 6,4 km/h (2 Bft) 100,00 %
17.10.2018 10:49 12,3 C 12,2 C 21,1 C 83 % 1019,4 hPa 0,0 l/m 3,5 km/h (1 Bft) NO 50 3 min 0,000 mm 1,1 UV-I 388 W/m 9,5 C 12,3 C 4,8 km/h (1 Bft) 100,00 %
17.10.2018 10:50 12,4 C 12,2 C 21,7 C 83 % 1019,4 hPa 0,0 l/m 3,7 km/h (1 Bft) NO 49 1 min 0,000 mm 1,1 UV-I 390 W/m 9,6 C 12,4 C 4,8 km/h (1 Bft) 100,00 %
17.10.2018 10:52 12,4 C 12,2 C 21,7 C 83 % 1019,4 hPa 0,0 l/m 2,6 km/h (1 Bft) NO 49 2 min 0,000 mm 1,1 UV-I 392 W/m 9,6 C 12,4 C 4,8 km/h (1 Bft) 100,00 %
17.10.2018 10:54 12,5 C 12,2 C 22,2 C 82 % 1019,4 hPa 0,0 l/m 3,0 km/h (1 Bft) O-NO 63 2 min 0,000 mm 1,1 UV-I 397 W/m 9,5 C 12,5 C 4,8 km/h (1 Bft) 97,37 %
17.10.2018 10:56 12,6 C 12,2 C 22,8 C 82 % 1019,4 hPa 0,0 l/m 2,8 km/h (1 Bft) O-NO 69 2 min 0,000 mm 1,1 UV-I 398 W/m 9,6 C 12,6 C 4,8 km/h (1 Bft) 98,00 %
17.10.2018 10:58 12,6 C 12,2 C 23,3 C 81 % 1019,5 hPa 0,0 l/m 2,5 km/h (1 Bft) O-NO 69 2 min 0,000 mm 1,1 UV-I 402 W/m 9,4 C 12,6 C 4,8 km/h (1 Bft) 98,00 %
17.10.2018 11:00 12,7 C 12,2 C 23,9 C 81 % 1019,4 hPa 0,0 l/m 2,3 km/h (1 Bft) NO 51 2 min 0,178 mm 1,2 UV-I 404 W/m 9,5 C 12,7 C 3,2 km/h (1 Bft) 100,00 %
17.10.2018 11:02 12,8 C 12,2 C 23,3 C 81 % 1019,4 hPa 0,0 l/m 2,6 km/h (1 Bft) NO 51 2 min 0,000 mm 1,2 UV-I 406 W/m 9,6 C 12,8 C 4,8 km/h (1 Bft) 100,00 %
17.10.2018 11:04 12,7 C 12,2 C 23,9 C 80 % 1019,5 hPa 0,0 l/m 0,4 km/h (0 Bft) NO 51 2 min 0,000 mm 1,2 UV-I 409 W/m 9,3 C 12,7 C 1,6 km/h (1 Bft) 100,00 %
17.10.2018 11:06 12,8 C 12,2 C 24,4 C 79 % 1019,5 hPa 0,0 l/m 2,3 km/h (1 Bft) NO 52 2 min 0,000 mm 1,2 UV-I 412 W/m 9,2 C 12,8 C 4,8 km/h (1 Bft) 100,00 %
17.10.2018 11:08 13,0 C 12,2 C 25,0 C 79 % 1019,5 hPa 0,0 l/m 2,4 km/h (1 Bft) NO 55 2 min 0,000 mm 1,2 UV-I 413 W/m 9,4 C 13,0 C 4,8 km/h (1 Bft) 100,00 %
17.10.2018 11:10 12,9 C 12,2 C 25,0 C 79 % 1019,5 hPa 0,0 l/m 1,8 km/h (1 Bft) NO 55 2 min 0,000 mm 1,2 UV-I 417 W/m 9,3 C 12,9 C 4,8 km/h (1 Bft) 100,00 %
17.10.2018 11:12 12,9 C 12,2 C 25,6 C 79 % 1019,4 hPa 0,0 l/m 2,5 km/h (1 Bft) O-NO 74 2 min 0,000 mm 1,3 UV-I 419 W/m 9,3 C 12,9 C 4,8 km/h (1 Bft) 100,00 %
17.10.2018 11:14 13,2 C 12,2 C 25,6 C 80 % 1019,4 hPa 0,0 l/m 3,7 km/h (1 Bft) NO 49 2 min 0,000 mm 1,3 UV-I 423 W/m 9,8 C 13,2 C 4,8 km/h (1 Bft) 98,11 %
17.10.2018 11:16 13,4 C 12,2 C 25,0 C 80 % 1019,4 hPa 0,0 l/m 3,2 km/h (1 Bft) NO 49 2 min 0,000 mm 1,3 UV-I 425 W/m 10,0 C 13,4 C 4,8 km/h (1 Bft) 95,45 %
17.10.2018 11:18 13,5 C 12,2 C 25,6 C 79 % 1019,4 hPa 0,0 l/m 2,9 km/h (1 Bft) NO 49 2 min 0,000 mm 1,3 UV-I 426 W/m 9,9 C 13,5 C 4,8 km/h (1 Bft) 96,00 %
17.10.2018 11:20 13,6 C 12,2 C 24,4 C 78 % 1019,3 hPa 0,0 l/m 1,6 km/h (1 Bft) NO 49 2 min 0,000 mm 1,3 UV-I 427 W/m 9,8 C 13,6 C 3,2 km/h (1 Bft) 100,00 %
17.10.2018 11:22 13,6 C 12,2 C 25,0 C 79 % 1019,4 hPa 0,0 l/m 3,8 km/h (1 Bft) O-NO 78 2 min 0,000 mm 1,3 UV-I 431 W/m 10,0 C 13,6 C 6,4 km/h (2 Bft) 98,11 %
17.10.2018 11:24 13,7 C 12,2 C 25,0 C 80 % 1019,3 hPa 0,0 l/m 2,7 km/h (1 Bft) O-NO 77 2 min 0,000 mm 1,3 UV-I 434 W/m 10,3 C 13,7 C 6,4 km/h (2 Bft) 96,00 %
17.10.2018 11:26 13,8 C 12,2 C 25,0 C 79 % 1019,4 hPa 0,0 l/m 4,0 km/h (1 Bft) O-NO 60 2 min 0,000 mm 1,3 UV-I 438 W/m 10,2 C 13,8 C 4,8 km/h (1 Bft) 98,00 %
17.10.2018 11:29 13,7 C 12,2 C 24,4 C 78 % 1019,4 hPa 0,0 l/m 2,8 km/h (1 Bft) N-NO 25 3 min 0,000 mm 1,3 UV-I 440 W/m 9,9 C 13,7 C 6,4 km/h (2 Bft) 96,88 %
17.10.2018 11:30 13,8 C 12,2 C 24,4 C 78 % 1019,4 hPa 0,0 l/m 5,6 km/h (1 Bft) NO 35 1 min 0,000 mm 1,4 UV-I 441 W/m 10,0 C 13,8 C 6,4 km/h (2 Bft) 96,30 %
17.10.2018 11:32 13,9 C 12,2 C 23,9 C 79 % 1019,3 hPa 0,0 l/m 4,4 km/h (1 Bft) NO 50 2 min 0,000 mm 1,4 UV-I 443 W/m 10,3 C 13,9 C 6,4 km/h (2 Bft) 95,74 %
17.10.2018 11:34 13,9 C 12,2 C 24,4 C 78 % 1019,3 hPa 0,0 l/m 2,8 km/h (1 Bft) NO 50 2 min 0,000 mm 1,4 UV-I 446 W/m 10,1 C 13,9 C 4,8 km/h (1 Bft) 100,00 %
17.10.2018 11:36 13,9 C 12,2 C 25,0 C 78 % 1019,3 hPa 0,0 l/m 4,2 km/h (1 Bft) O 88 2 min 0,000 mm 1,4 UV-I 446 W/m 10,1 C 13,9 C 6,4 km/h (2 Bft) 98,00 %
17.10.2018 11:38 13,9 C 12,2 C 25,6 C 78 % 1019,3 hPa 0,0 l/m 4,0 km/h (1 Bft) O 84 2 min 0,000 mm 1,4 UV-I 451 W/m 10,1 C 13,9 C 6,4 km/h (2 Bft) 100,00 %
17.10.2018 11:40 13,9 C 12,2 C 26,1 C 77 % 1019,3 hPa 0,0 l/m 2,5 km/h (1 Bft) O 89 2 min 0,000 mm 1,4 UV-I 453 W/m 9,9 C 13,9 C 4,8 km/h (1 Bft) 100,00 %
17.10.2018 11:42 14,2 C 12,2 C 26,1 C 78 % 1019,3 hPa 0,0 l/m 4,1 km/h (1 Bft) NO 44 2 min 0,000 mm 1,5 UV-I 455 W/m 10,4 C 14,2 C 8,0 km/h (2 Bft) 100,00 %
17.10.2018 11:44 14,3 C 12,2 C 25,6 C 77 % 1019,3 hPa 0,0 l/m 6,0 km/h (2 Bft) O-NO 73 2 min 0,000 mm 1,5 UV-I 456 W/m 10,3 C 14,3 C 9,7 km/h (2 Bft) 100,00 %
17.10.2018 11:46 14,4 C 12,2 C 25,6 C 77 % 1019,3 hPa 0,0 l/m 3,7 km/h (1 Bft) O-NO 73 2 min 0,000 mm 1,5 UV-I 458 W/m 10,4 C 14,4 C 6,4 km/h (2 Bft) 98,00 %
17.10.2018 11:48 14,4 C 12,2 C 26,1 C 76 % 1019,3 hPa 0,0 l/m 1,4 km/h (1 Bft) O-NO 78 2 min 0,000 mm 1,5 UV-I 459 W/m 10,2 C 14,4 C 3,2 km/h (1 Bft) 97,37 %
17.10.2018 11:50 14,5 C 12,2 C 26,1 C 76 % 1019,2 hPa 0,0 l/m 2,7 km/h (1 Bft) O-NO 57 2 min 0,000 mm 1,5 UV-I 462 W/m 10,3 C 14,5 C 4,8 km/h (1 Bft) 96,23 %
17.10.2018 11:52 14,6 C 12,2 C 26,1 C 75 % 1019,2 hPa 0,0 l/m 1,8 km/h (1 Bft) NO 53 2 min 0,000 mm 1,5 UV-I 462 W/m 10,2 C 14,6 C 4,8 km/h (1 Bft) 97,56 %
17.10.2018 11:54 14,6 C 12,2 C 26,7 C 77 % 1019,2 hPa 0,0 l/m 4,3 km/h (1 Bft) O-NO 61 2 min 0,000 mm 1,5 UV-I 464 W/m 10,6 C 14,6 C 6,4 km/h (2 Bft) 98,11 %
17.10.2018 11:56 14,7 C 12,2 C 26,7 C 76 % 1019,2 hPa 0,0 l/m 2,8 km/h (1 Bft) NO 55 2 min 0,000 mm 1,6 UV-I 466 W/m 10,5 C 14,7 C 4,8 km/h (1 Bft) 97,22 %
17.10.2018 11:58 14,7 C 12,2 C 26,7 C 75 % 1019,2 hPa 0,0 l/m 1,8 km/h (1 Bft) NO 52 2 min 0,000 mm 1,6 UV-I 467 W/m 10,3 C 14,7 C 4,8 km/h (1 Bft) 94,64 %
17.10.2018 12:00 14,7 C 12,2 C 26,1 C 76 % 1019,1 hPa 0,0 l/m 1,9 km/h (1 Bft) O-NO 59 2 min 0,229 mm 1,6 UV-I 469 W/m 10,5 C 14,7 C 3,2 km/h (1 Bft) 97,87 %
17.10.2018 12:02 14,7 C 12,2 C 26,1 C 74 % 1019,1 hPa 0,0 l/m 3,0 km/h (1 Bft) O-NO 59 2 min 0,000 mm 1,6 UV-I 469 W/m 10,1 C 14,7 C 4,8 km/h (1 Bft) 98,00 %
17.10.2018 12:04 14,6 C 12,2 C 26,1 C 75 % 1019,1 hPa 0,0 l/m 2,7 km/h (1 Bft) O-NO 57 2 min 0,000 mm 1,6 UV-I 470 W/m 10,2 C 14,6 C 3,2 km/h (1 Bft) 94,74 %
17.10.2018 12:06 14,7 C 12,2 C 26,1 C 76 % 1019,1 hPa 0,0 l/m 2,4 km/h (1 Bft) NW 313 2 min 0,000 mm 1,6 UV-I 473 W/m 10,5 C 14,7 C 4,8 km/h (1 Bft) 98,00 %
17.10.2018 12:08 14,9 C 12,2 C 26,1 C 75 % 1019,0 hPa 0,0 l/m 1,6 km/h (1 Bft) NW 312 2 min 0,000 mm 1,6 UV-I 474 W/m 10,5 C 14,9 C 3,2 km/h (1 Bft) 98,11 %
17.10.2018 12:10 15,1 C 12,2 C 25,6 C 75 % 1019,0 hPa 0,0 l/m 4,2 km/h (1 Bft) N 9 2 min 0,000 mm 1,6 UV-I 476 W/m 10,7 C 15,1 C 6,4 km/h (2 Bft) 97,14 %
17.10.2018 12:12 15,2 C 12,2 C 24,4 C 73 % 1019,0 hPa 0,0 l/m 4,1 km/h (1 Bft) O-NO 78 2 min 0,000 mm 1,6 UV-I 477 W/m 10,4 C 15,2 C 6,4 km/h (2 Bft) 98,04 %
17.10.2018 12:14 15,2 C 12,2 C 25,0 C 75 % 1019,0 hPa 0,0 l/m 4,4 km/h (1 Bft) O 87 2 min 0,000 mm 1,7 UV-I 477 W/m 10,8 C 15,2 C 6,4 km/h (2 Bft) 97,87 %
17.10.2018 12:16 15,3 C 12,2 C 25,0 C 74 % 1019,0 hPa 0,0 l/m 3,9 km/h (1 Bft) O 82 2 min 0,000 mm 1,7 UV-I 477 W/m 10,7 C 15,3 C 6,4 km/h (2 Bft) 100,00 %
17.10.2018 12:18 15,3 C 12,2 C 25,6 C 73 % 1019,0 hPa 0,0 l/m 3,0 km/h (1 Bft) O-NO 73 2 min 0,000 mm 1,7 UV-I 478 W/m 10,5 C 15,3 C 4,8 km/h (1 Bft) 100,00 %
17.10.2018 12:20 15,6 C 12,2 C 26,1 C 73 % 1018,9 hPa 0,0 l/m 4,7 km/h (1 Bft) NO 45 2 min 0,000 mm 1,7 UV-I 478 W/m 10,8 C 15,6 C 6,4 km/h (2 Bft) 100,00 %
17.10.2018 12:22 15,7 C 12,2 C 26,1 C 72 % 1018,9 hPa 0,0 l/m 4,4 km/h (1 Bft) NO 46 2 min 0,000 mm 1,7 UV-I 479 W/m 10,7 C 15,7 C 6,4 km/h (2 Bft) 100,00 %
17.10.2018 12:24 15,7 C 12,2 C 25,6 C 71 % 1018,9 hPa 0,0 l/m 2,9 km/h (1 Bft) NO 44 2 min 0,000 mm 1,7 UV-I 479 W/m 10,5 C 15,7 C 6,4 km/h (2 Bft) 100,00 %
17.10.2018 12:26 15,5 C 12,2 C 26,1 C 70 % 1018,9 hPa 0,0 l/m 2,1 km/h (1 Bft) O 81 2 min 0,000 mm 1,7 UV-I 481 W/m 10,1 C 15,5 C 4,8 km/h (1 Bft) 100,00 %
17.10.2018 12:28 15,6 C 12,2 C 26,1 C 72 % 1018,9 hPa 0,0 l/m 4,2 km/h (1 Bft) NO 54 2 min 0,000 mm 1,7 UV-I 481 W/m 10,6 C 15,6 C 6,4 km/h (2 Bft) 100,00 %
17.10.2018 12:30 15,6 C 12,2 C 25,6 C 71 % 1018,8 hPa 0,0 l/m 2,6 km/h (1 Bft) NO 40 2 min 0,000 mm 1,7 UV-I 483 W/m 10,4 C 15,6 C 4,8 km/h (1 Bft) 97,87 %
17.10.2018 12:32 15,7 C 12,2 C 26,1 C 72 % 1018,8 hPa 0,0 l/m 2,4 km/h (1 Bft) NO 41 2 min 0,000 mm 1,7 UV-I 482 W/m 10,7 C 15,7 C 6,4 km/h (2 Bft) 100,00 %
17.10.2018 12:34 15,7 C 12,2 C 25,0 C 72 % 1018,8 hPa 0,0 l/m 5,6 km/h (1 Bft) NO 44 2 min 0,000 mm 1,7 UV-I 483 W/m 10,7 C 15,7 C 8,0 km/h (2 Bft) 98,00 %
17.10.2018 12:36 15,7 C 12,2 C 24,4 C 71 % 1018,7 hPa 0,0 l/m 4,0 km/h (1 Bft) O 80 2 min 0,000 mm 1,7 UV-I 482 W/m 10,5 C 15,7 C 6,4 km/h (2 Bft) 98,11 %
17.10.2018 12:38 15,9 C 12,2 C 25,6 C 74 % 1018,7 hPa 0,0 l/m 5,1 km/h (1 Bft) NO 34 2 min 0,000 mm 1,7 UV-I 483 W/m 11,3 C 15,9 C 8,0 km/h (2 Bft) 97,37 %
17.10.2018 12:40 15,8 C 12,2 C 26,1 C 70 % 1018,7 hPa 0,0 l/m 1,0 km/h (0 Bft) NO 36 2 min 0,000 mm 1,7 UV-I 483 W/m 10,3 C 15,8 C 3,2 km/h (1 Bft) 98,00 %
17.10.2018 12:42 15,7 C 12,2 C 26,7 C 70 % 1018,7 hPa 0,0 l/m 2,2 km/h (1 Bft) NO 36 2 min 0,000 mm 1,7 UV-I 482 W/m 10,2 C 15,7 C 6,4 km/h (2 Bft) 96,00 %
17.10.2018 12:44 15,9 C 12,2 C 26,1 C 72 % 1018,6 hPa 0,0 l/m 5,6 km/h (1 Bft) O-NO 59 2 min 0,000 mm 1,7 UV-I 484 W/m 10,9 C 15,9 C 6,4 km/h (2 Bft) 98,00 %
17.10.2018 12:46 15,9 C 12,2 C 25,0 C 70 % 1018,6 hPa 0,0 l/m 1,4 km/h (1 Bft) O-NO 59 2 min 0,000 mm 1,7 UV-I 483 W/m 10,4 C 15,9 C 3,2 km/h (1 Bft) 97,37 %
17.10.2018 12:48 16,1 C 12,2 C 25,6 C 71 % 1018,5 hPa 0,0 l/m 0,8 km/h (0 Bft) O-NO 59 2 min 0,000 mm 1,7 UV-I 484 W/m 10,8 C 16,1 C 1,6 km/h (1 Bft) 98,00 %
17.10.2018 12:50 16,2 C 12,2 C 25,6 C 70 % 1018,5 hPa 0,0 l/m 0,6 km/h (0 Bft) O-NO 59 2 min 0,000 mm 1,7 UV-I 486 W/m 10,7 C 16,2 C 3,2 km/h (1 Bft) 96,23 %
17.10.2018 12:52 16,3 C 12,2 C 26,1 C 70 % 1018,5 hPa 0,0 l/m 3,7 km/h (1 Bft) N 360 2 min 0,000 mm 1,7 UV-I 485 W/m 10,8 C 16,3 C 6,4 km/h (2 Bft) 97,37 %
17.10.2018 12:54 16,3 C 12,2 C 25,6 C 69 % 1018,4 hPa 0,0 l/m 4,6 km/h (1 Bft) O 82 2 min 0,000 mm 1,7 UV-I 483 W/m 10,6 C 16,3 C 6,4 km/h (2 Bft) 98,00 %
17.10.2018 12:56 16,3 C 12,2 C 25,0 C 69 % 1018,4 hPa 0,0 l/m 5,4 km/h (1 Bft) O-NO 62 2 min 0,000 mm 1,7 UV-I 483 W/m 10,6 C 16,3 C 9,7 km/h (2 Bft) 95,74 %
17.10.2018 12:58 16,3 C 12,2 C 24,4 C 69 % 1018,4 hPa 0,0 l/m 3,8 km/h (1 Bft) O-NO 64 2 min 0,000 mm 1,7 UV-I 482 W/m 10,6 C 16,3 C 6,4 km/h (2 Bft) 97,87 %
17.10.2018 13:00 16,4 C 12,2 C 23,3 C 68 % 1018,4 hPa 0,0 l/m 4,7 km/h (1 Bft) O-NO 78 2 min 0,254 mm 1,7 UV-I 483 W/m 10,5 C 16,4 C 8,0 km/h (2 Bft) 95,74 %
17.10.2018 13:02 16,4 C 12,2 C 22,8 C 69 % 1018,4 hPa 0,0 l/m 3,0 km/h (1 Bft) O 86 2 min 0,000 mm 1,7 UV-I 482 W/m 10,7 C 16,4 C 6,4 km/h (2 Bft) 97,56 %
17.10.2018 13:04 16,5 C 12,2 C 22,2 C 68 % 1018,4 hPa 0,0 l/m 2,8 km/h (1 Bft) NO 53 2 min 0,000 mm 1,7 UV-I 483 W/m 10,6 C 16,5 C 4,8 km/h (1 Bft) 98,11 %
17.10.2018 13:06 16,7 C 12,2 C 21,1 C 69 % 1018,4 hPa 0,0 l/m 3,6 km/h (1 Bft) NO 55 2 min 0,000 mm 1,7 UV-I 481 W/m 11,0 C 16,7 C 6,4 km/h (2 Bft) 98,00 %
17.10.2018 13:08 16,7 C 12,2 C 20,6 C 68 % 1018,4 hPa 0,0 l/m 3,7 km/h (1 Bft) O-NO 73 2 min 0,000 mm 1,7 UV-I 481 W/m 10,8 C 16,7 C 6,4 km/h (2 Bft) 100,00 %
17.10.2018 13:10 16,7 C 12,2 C 20,6 C 68 % 1018,4 hPa 0,0 l/m 2,6 km/h (1 Bft) O-NO 68 2 min 0,000 mm 1,7 UV-I 482 W/m 10,8 C 16,7 C 4,8 km/h (1 Bft) 100,00 %
17.10.2018 13:12 16,7 C 12,2 C 20,6 C 69 % 1018,3 hPa 0,0 l/m 4,3 km/h (1 Bft) N 355 2 min 0,000 mm 1,7 UV-I 482 W/m 11,0 C 16,7 C 8,0 km/h (2 Bft) 100,00 %
17.10.2018 13:14 16,8 C 12,2 C 20,0 C 69 % 1018,3 hPa 0,0 l/m 5,7 km/h (1 Bft) NO 36 2 min 0,000 mm 1,7 UV-I 437 W/m 11,1 C 16,8 C 8,0 km/h (2 Bft) 97,87 %
17.10.2018 13:16 16,9 C 12,2 C 20,0 C 68 % 1018,3 hPa 0,0 l/m 3,3 km/h (1 Bft) NO 41 2 min 0,000 mm 1,7 UV-I 461 W/m 11,0 C 16,9 C 4,8 km/h (1 Bft) 100,00 %
17.10.2018 13:18 16,9 C 12,2 C 20,0 C 67 % 1018,3 hPa 0,0 l/m 3,5 km/h (1 Bft) N-NO 30 2 min 0,000 mm 1,7 UV-I 478 W/m 10,7 C 16,9 C 6,4 km/h (2 Bft) 100,00 %
17.10.2018 13:20 16,9 C 12,2 C 20,6 C 67 % 1018,2 hPa 0,0 l/m 1,9 km/h (1 Bft) N-NO 22 2 min 0,000 mm 1,7 UV-I 476 W/m 10,7 C 16,9 C 3,2 km/h (1 Bft) 100,00 %
17.10.2018 13:22 17,0 C 12,2 C 20,6 C 68 % 1018,2 hPa 0,0 l/m 4,8 km/h (1 Bft) O-NO 63 2 min 0,000 mm 1,7 UV-I 475 W/m 11,0 C 17,0 C 9,7 km/h (2 Bft) 97,87 %
17.10.2018 13:24 17,2 C 12,2 C 20,0 C 69 % 1018,2 hPa 0,0 l/m 5,9 km/h (2 Bft) N-NO 26 2 min 0,000 mm 1,7 UV-I 475 W/m 11,5 C 17,2 C 9,7 km/h (2 Bft) 100,00 %
17.10.2018 13:26 17,3 C 12,2 C 20,0 C 68 % 1018,2 hPa 0,0 l/m 5,5 km/h (1 Bft) NO 42 2 min 0,000 mm 1,7 UV-I 473 W/m 11,3 C 17,3 C 8,0 km/h (2 Bft) 100,00 %
17.10.2018 13:28 17,3 C 12,2 C 20,0 C 67 % 1018,2 hPa 0,0 l/m 5,2 km/h (1 Bft) O-NO 60 2 min 0,000 mm 1,6 UV-I 472 W/m 11,1 C 17,3 C 8,0 km/h (2 Bft) 95,74 %
17.10.2018 13:30 17,2 C 12,2 C 19,4 C 67 % 1018,2 hPa 0,0 l/m 3,1 km/h (1 Bft) O 96 2 min 0,000 mm 1,6 UV-I 469 W/m 11,0 C 17,2 C 4,8 km/h (1 Bft) 97,37 %
17.10.2018 13:32 17,2 C 12,2 C 19,4 C 65 % 1018,1 hPa 0,0 l/m 1,5 km/h (1 Bft) O 96 2 min 0,000 mm 1,6 UV-I 469 W/m 10,6 C 17,2 C 3,2 km/h (1 Bft) 98,00 %
17.10.2018 13:34 17,2 C 12,2 C 19,4 C 67 % 1018,2 hPa 0,0 l/m 3,1 km/h (1 Bft) N-NW 348 2 min 0,000 mm 1,6 UV-I 467 W/m 11,0 C 17,2 C 4,8 km/h (1 Bft) 97,87 %
17.10.2018 13:36 17,3 C 12,2 C 19,4 C 66 % 1018,1 hPa 0,0 l/m 2,6 km/h (1 Bft) N-NW 348 2 min 0,000 mm 1,6 UV-I 466 W/m 10,9 C 17,3 C 4,8 km/h (1 Bft) 98,00 %
17.10.2018 13:38 17,2 C 12,2 C 19,4 C 66 % 1018,1 hPa 0,0 l/m 2,2 km/h (1 Bft) N-NW 348 2 min 0,000 mm 1,6 UV-I 464 W/m 10,8 C 17,2 C 4,8 km/h (1 Bft) 100,00 %
17.10.2018 13:40 17,4 C 12,2 C 19,4 C 66 % 1018,1 hPa 0,0 l/m 3,7 km/h (1 Bft) O-NO 68 2 min 0,000 mm 1,6 UV-I 462 W/m 11,0 C 17,4 C 6,4 km/h (2 Bft) 97,37 %
17.10.2018 13:42 17,4 C 12,2 C 19,4 C 66 % 1018,0 hPa 0,0 l/m 3,8 km/h (1 Bft) O 97 2 min 0,000 mm 1,6 UV-I 460 W/m 11,0 C 17,4 C 4,8 km/h (1 Bft) 98,00 %
17.10.2018 13:44 17,4 C 12,2 C 19,4 C 65 % 1018,1 hPa 0,0 l/m 5,2 km/h (1 Bft) O 81 2 min 0,000 mm 1,6 UV-I 459 W/m 10,8 C 17,4 C 8,0 km/h (2 Bft) 96,00 %
17.10.2018 13:46 17,5 C 12,2 C 19,4 C 64 % 1018,1 hPa 0,0 l/m 2,0 km/h (1 Bft) O 80 2 min 0,000 mm 1,6 UV-I 457 W/m 10,6 C 17,5 C 4,8 km/h (1 Bft) 100,00 %
17.10.2018 13:48 17,6 C 12,2 C 19,4 C 65 % 1018,0 hPa 0,0 l/m 4,0 km/h (1 Bft) O-NO 77 2 min 0,000 mm 1,6 UV-I 455 W/m 10,9 C 17,6 C 6,4 km/h (2 Bft) 97,14 %
17.10.2018 13:50 17,7 C 12,2 C 18,9 C 66 % 1018,0 hPa 0,0 l/m 4,0 km/h (1 Bft) O 85 2 min 0,000 mm 1,6 UV-I 455 W/m 11,3 C 17,7 C 6,4 km/h (2 Bft) 95,74 %
17.10.2018 13:52 17,6 C 12,2 C 18,9 C 64 % 1018,0 hPa 0,0 l/m 2,4 km/h (1 Bft) O-NO 65 2 min 0,000 mm 1,6 UV-I 454 W/m 10,7 C 17,6 C 4,8 km/h (1 Bft) 97,87 %
17.10.2018 13:54 17,6 C 12,2 C 18,3 C 66 % 1018,0 hPa 0,0 l/m 5,8 km/h (2 Bft) N-NO 31 2 min 0,000 mm 1,5 UV-I 452 W/m 11,2 C 17,6 C 8,0 km/h (2 Bft) 94,87 %
17.10.2018 13:56 17,7 C 12,2 C 18,3 C 65 % 1017,9 hPa 0,0 l/m 6,6 km/h (2 Bft) NO 44 2 min 0,000 mm 1,5 UV-I 452 W/m 11,0 C 17,6 C 11,3 km/h (2 Bft) 97,87 %
17.10.2018 13:58 17,7 C 12,2 C 18,3 C 63 % 1018,0 hPa 0,0 l/m 3,1 km/h (1 Bft) NO 44 2 min 0,000 mm 1,5 UV-I 448 W/m 10,6 C 17,7 C 4,8 km/h (1 Bft) 98,00 %
17.10.2018 14:00 17,6 C 12,2 C 18,3 C 64 % 1017,9 hPa 0,0 l/m 3,2 km/h (1 Bft) N 10 2 min 0,279 mm 1,5 UV-I 446 W/m 10,7 C 17,6 C 4,8 km/h (1 Bft) 100,00 %
17.10.2018 14:02 17,8 C 12,2 C 18,3 C 65 % 1017,9 hPa 0,0 l/m 4,7 km/h (1 Bft) O-NO 63 2 min 0,000 mm 1,5 UV-I 443 W/m 11,1 C 17,8 C 6,4 km/h (2 Bft) 100,00 %
17.10.2018 14:04 17,9 C 12,2 C 18,3 C 66 % 1017,9 hPa 0,0 l/m 4,3 km/h (1 Bft) O-NO 63 2 min 0,000 mm 1,5 UV-I 440 W/m 11,5 C 17,9 C 8,0 km/h (2 Bft) 98,00 %
17.10.2018 14:06 17,9 C 12,2 C 18,3 C 64 % 1017,9 hPa 0,0 l/m 2,6 km/h (1 Bft) O-NO 63 2 min 0,000 mm 1,5 UV-I 435 W/m 11,0 C 17,9 C 4,8 km/h (1 Bft) 96,23 %
17.10.2018 14:08 17,8 C 12,2 C 17,8 C 64 % 1017,9 hPa 0,0 l/m 0,3 km/h (0 Bft) O-NO 63 2 min 0,000 mm 1,4 UV-I 432 W/m 10,9 C 17,8 C 1,6 km/h (1 Bft) 94,74 %
17.10.2018 14:10 18,0 C 12,2 C 18,3 C 64 % 1017,8 hPa 0,0 l/m 3,1 km/h (1 Bft) O-NO 72 2 min 0,000 mm 1,4 UV-I 430 W/m 11,1 C 18,0 C 6,4 km/h (2 Bft) 97,87 %
17.10.2018 14:12 18,0 C 12,2 C 18,3 C 63 % 1017,8 hPa 0,0 l/m 5,3 km/h (1 Bft) NO 54 2 min 0,000 mm 1,4 UV-I 432 W/m 10,8 C 18,0 C 8,0 km/h (2 Bft) 98,11 %
17.10.2018 14:14 18,0 C 12,2 C 17,8 C 64 % 1017,8 hPa 0,0 l/m 4,0 km/h (1 Bft) O-NO 65 2 min 0,000 mm 1,4 UV-I 430 W/m 11,1 C 18,0 C 6,4 km/h (2 Bft) 98,00 %
17.10.2018 14:16 17,9 C 12,2 C 17,8 C 62 % 1017,7 hPa 0,0 l/m 2,3 km/h (1 Bft) O 89 2 min 0,000 mm 1,4 UV-I 427 W/m 10,5 C 17,9 C 3,2 km/h (1 Bft) 97,87 %
17.10.2018 14:18 17,9 C 12,2 C 17,8 C 62 % 1017,7 hPa 0,0 l/m 4,3 km/h (1 Bft) O 98 2 min 0,000 mm 1,4 UV-I 424 W/m 10,5 C 17,9 C 8,0 km/h (2 Bft) 97,37 %
17.10.2018 14:20 17,9 C 12,2 C 17,8 C 61 % 1017,7 hPa 0,0 l/m 1,6 km/h (1 Bft) O 98 2 min 0,000 mm 1,4 UV-I 422 W/m 10,3 C 17,9 C 3,2 km/h (1 Bft) 100,00 %
17.10.2018 14:22 17,8 C 12,2 C 17,8 C 61 % 1017,6 hPa 0,0 l/m 1,7 km/h (1 Bft) O 98 2 min 0,000 mm 1,4 UV-I 420 W/m 10,2 C 17,8 C 4,8 km/h (1 Bft) 97,87 %
17.10.2018 14:24 17,8 C 12,2 C 17,8 C 61 % 1017,6 hPa 0,0 l/m 3,2 km/h (1 Bft) O-SO 103 2 min 0,000 mm 1,4 UV-I 418 W/m 10,2 C 17,8 C 4,8 km/h (1 Bft) 96,00 %
17.10.2018 14:26 17,8 C 12,2 C 17,8 C 62 % 1017,6 hPa 0,0 l/m 1,9 km/h (1 Bft) O-SO 103 2 min 0,000 mm 1,3 UV-I 417 W/m 10,4 C 17,8 C 3,2 km/h (1 Bft) 97,73 %
17.10.2018 14:28 17,9 C 12,2 C 17,8 C 63 % 1017,6 hPa 0,0 l/m 3,2 km/h (1 Bft) O-NO 71 2 min 0,000 mm 1,3 UV-I 413 W/m 10,8 C 17,9 C 4,8 km/h (1 Bft) 100,00 %
17.10.2018 14:30 18,2 C 12,2 C 17,8 C 62 % 1017,6 hPa 0,0 l/m 3,6 km/h (1 Bft) NO 55 2 min 0,000 mm 1,3 UV-I 411 W/m 10,8 C 18,2 C 4,8 km/h (1 Bft) 100,00 %
17.10.2018 14:32 18,1 C 12,2 C 17,8 C 61 % 1017,6 hPa 0,0 l/m 2,4 km/h (1 Bft) NO 55 2 min 0,000 mm 1,3 UV-I 410 W/m 10,5 C 18,1 C 4,8 km/h (1 Bft) 97,44 %
17.10.2018 14:34 18,1 C 12,2 C 17,8 C 60 % 1017,6 hPa 0,0 l/m 1,7 km/h (1 Bft) O-NO 63 2 min 0,000 mm 1,3 UV-I 405 W/m 10,2 C 18,1 C 3,2 km/h (1 Bft) 100,00 %
17.10.2018 14:36 18,2 C 12,2 C 17,8 C 58 % 1017,6 hPa 0,0 l/m 2,8 km/h (1 Bft) O-SO 113 2 min 0,000 mm 1,3 UV-I 403 W/m 9,8 C 18,2 C 4,8 km/h (1 Bft) 100,00 %
17.10.2018 14:38 18,3 C 12,2 C 17,8 C 59 % 1017,6 hPa 0,0 l/m 3,4 km/h (1 Bft) O-NO 70 2 min 0,000 mm 1,3 UV-I 400 W/m 10,1 C 18,3 C 8,0 km/h (2 Bft) 100,00 %
17.10.2018 14:40 18,5 C 12,2 C 17,8 C 60 % 1017,6 hPa 0,0 l/m 4,5 km/h (1 Bft) O 86 2 min 0,000 mm 1,2 UV-I 397 W/m 10,6 C 18,5 C 6,4 km/h (2 Bft) 100,00 %
17.10.2018 14:42 18,6 C 12,2 C 17,8 C 59 % 1017,5 hPa 0,0 l/m 2,4 km/h (1 Bft) O 86 2 min 0,000 mm 1,2 UV-I 395 W/m 10,4 C 18,6 C 4,8 km/h (1 Bft) 100,00 %
17.10.2018 14:44 18,6 C 12,2 C 17,8 C 59 % 1017,5 hPa 0,0 l/m 2,9 km/h (1 Bft) O-NO 58 2 min 0,000 mm 1,2 UV-I 392 W/m 10,4 C 18,6 C 4,8 km/h (1 Bft) 100,00 %
17.10.2018 14:46 18,6 C 12,2 C 17,8 C 60 % 1017,5 hPa 0,0 l/m 3,9 km/h (1 Bft) O-NO 60 2 min 0,000 mm 1,2 UV-I 387 W/m 10,7 C 18,6 C 4,8 km/h (1 Bft) 97,87 %
17.10.2018 14:48 18,6 C 12,2 C 17,8 C 59 % 1017,4 hPa 0,0 l/m 0,9 km/h (0 Bft) O-NO 60 2 min 0,000 mm 1,2 UV-I 384 W/m 10,4 C 18,6 C 4,8 km/h (1 Bft) 100,00 %
17.10.2018 14:50 18,5 C 12,2 C 17,8 C 59 % 1017,4 hPa 0,0 l/m 2,3 km/h (1 Bft) NO 35 2 min 0,000 mm 1,2 UV-I 380 W/m 10,3 C 18,5 C 6,4 km/h (2 Bft) 100,00 %
17.10.2018 14:52 18,4 C 12,2 C 17,8 C 59 % 1017,4 hPa 0,0 l/m 2,1 km/h (1 Bft) NO 53 2 min 0,000 mm 1,1 UV-I 375 W/m 10,2 C 18,4 C 4,8 km/h (1 Bft) 96,00 %
17.10.2018 14:54 18,4 C 12,2 C 17,8 C 61 % 1017,4 hPa 0,0 l/m 2,4 km/h (1 Bft) NO 53 2 min 0,000 mm 1,1 UV-I 372 W/m 10,7 C 18,4 C 4,8 km/h (1 Bft) 100,00 %
17.10.2018 14:56 18,4 C 12,2 C 17,8 C 59 % 1017,4 hPa 0,0 l/m 1,6 km/h (1 Bft) NO 53 2 min 0,000 mm 1,1 UV-I 370 W/m 10,2 C 18,4 C 3,2 km/h (1 Bft) 100,00 %
17.10.2018 14:58 18,4 C 12,2 C 17,2 C 60 % 1017,4 hPa 0,0 l/m 1,0 km/h (0 Bft) NO 53 2 min 0,000 mm 1,1 UV-I 368 W/m 10,5 C 18,4 C 3,2 km/h (1 Bft) 100,00 %
17.10.2018 15:00 18,4 C 12,2 C 17,2 C 59 % 1017,4 hPa 0,0 l/m 1,6 km/h (1 Bft) NO 53 2 min 0,254 mm 1,1 UV-I 363 W/m 10,2 C 18,4 C 3,2 km/h (1 Bft) 97,44 %
17.10.2018 15:02 18,3 C 12,2 C 17,2 C 60 % 1017,3 hPa 0,0 l/m 2,5 km/h (1 Bft) NO 51 2 min 0,000 mm 1,1 UV-I 359 W/m 10,4 C 18,3 C 4,8 km/h (1 Bft) 100,00 %
17.10.2018 15:04 18,5 C 12,2 C 17,8 C 62 % 1017,3 hPa 0,0 l/m 6,0 km/h (2 Bft) NO 44 2 min 0,000 mm 1,0 UV-I 356 W/m 11,1 C 18,5 C 8,0 km/h (2 Bft) 100,00 %
17.10.2018 15:06 18,6 C 12,2 C 17,8 C 61 % 1017,3 hPa 0,0 l/m 3,7 km/h (1 Bft) NO 47 2 min 0,000 mm 1,0 UV-I 353 W/m 10,9 C 18,6 C 6,4 km/h (2 Bft) 100,00 %
17.10.2018 15:08 18,6 C 12,2 C 17,8 C 61 % 1017,4 hPa 0,0 l/m 2,7 km/h (1 Bft) NO 47 2 min 0,000 mm 1,0 UV-I 349 W/m 10,9 C 18,6 C 4,8 km/h (1 Bft) 100,00 %
17.10.2018 15:10 18,6 C 12,2 C 17,8 C 60 % 1017,3 hPa 0,0 l/m 2,1 km/h (1 Bft) NO 47 2 min 0,000 mm 1,0 UV-I 344 W/m 10,7 C 18,6 C 4,8 km/h (1 Bft) 100,00 %
17.10.2018 15:12 18,6 C 12,2 C 17,8 C 61 % 1017,4 hPa 0,0 l/m 3,2 km/h (1 Bft) O-NO 57 2 min 0,000 mm 1,0 UV-I 338 W/m 10,9 C 18,6 C 6,4 km/h (2 Bft) 100,00 %
17.10.2018 15:14 18,6 C 12,2 C 17,8 C 61 % 1017,3 hPa 0,0 l/m 1,6 km/h (1 Bft) O-NO 57 2 min 0,000 mm 0,9 UV-I 335 W/m 10,9 C 18,6 C 3,2 km/h (1 Bft) 100,00 %
17.10.2018 15:16 18,7 C 12,2 C 17,8 C 62 % 1017,3 hPa 0,0 l/m 3,4 km/h (1 Bft) NO 53 2 min 0,000 mm 0,9 UV-I 331 W/m 11,3 C 18,7 C 6,4 km/h (2 Bft) 100,00 %
17.10.2018 15:18 18,8 C 12,2 C 17,8 C 61 % 1017,3 hPa 0,0 l/m 3,7 km/h (1 Bft) NO 41 2 min 0,000 mm 0,9 UV-I 328 W/m 11,1 C 18,8 C 6,4 km/h (2 Bft) 100,00 %
17.10.2018 15:20 18,8 C 12,2 C 17,8 C 60 % 1017,3 hPa 0,0 l/m 4,1 km/h (1 Bft) N-NO 25 2 min 0,000 mm 0,9 UV-I 326 W/m 10,9 C 18,8 C 6,4 km/h (2 Bft) 98,21 %
17.10.2018 15:22 18,8 C 12,2 C 17,8 C 61 % 1017,3 hPa 0,0 l/m 2,7 km/h (1 Bft) O-NO 66 2 min 0,000 mm 0,9 UV-I 321 W/m 11,1 C 18,8 C 4,8 km/h (1 Bft) 92,11 %
17.10.2018 15:24 18,8 C 12,2 C 17,8 C 61 % 1017,3 hPa 0,0 l/m 1,9 km/h (1 Bft) O-NO 66 2 min 0,000 mm 0,8 UV-I 317 W/m 11,1 C 18,8 C 3,2 km/h (1 Bft) 97,87 %
17.10.2018 15:26 18,9 C 12,2 C 17,8 C 60 % 1017,3 hPa 0,0 l/m 2,3 km/h (1 Bft) O-SO 114 2 min 0,000 mm 0,8 UV-I 312 W/m 11,0 C 18,9 C 4,8 km/h (1 Bft) 96,23 %
17.10.2018 15:28 18,9 C 12,2 C 17,8 C 61 % 1017,3 hPa 0,0 l/m 1,5 km/h (1 Bft) O-SO 115 2 min 0,000 mm 0,8 UV-I 310 W/m 11,2 C 18,9 C 3,2 km/h (1 Bft) 98,00 %
17.10.2018 15:30 19,1 C 12,2 C 17,8 C 60 % 1017,3 hPa 0,0 l/m 3,4 km/h (1 Bft) O 101 2 min 0,000 mm 0,8 UV-I 306 W/m 11,1 C 19,1 C 6,4 km/h (2 Bft) 97,87 %
17.10.2018 15:32 19,0 C 12,2 C 17,8 C 59 % 1017,3 hPa 0,0 l/m 3,5 km/h (1 Bft) O 101 2 min 0,000 mm 0,8 UV-I 302 W/m 10,8 C 19,0 C 4,8 km/h (1 Bft) 95,74 %
17.10.2018 15:34 18,9 C 12,2 C 17,8 C 59 % 1017,3 hPa 0,0 l/m 3,5 km/h (1 Bft) O 101 2 min 0,000 mm 0,8 UV-I 300 W/m 10,7 C 18,9 C 4,8 km/h (1 Bft) 94,74 %
17.10.2018 15:36 19,0 C 12,2 C 17,2 C 61 % 1017,3 hPa 0,0 l/m 3,9 km/h (1 Bft) N-NO 22 2 min 0,000 mm 0,8 UV-I 294 W/m 11,3 C 19,0 C 6,4 km/h (2 Bft) 96,00 %
17.10.2018 15:38 19,1 C 12,2 C 17,2 C 60 % 1017,3 hPa 0,0 l/m 5,1 km/h (1 Bft) NO 40 2 min 0,000 mm 0,7 UV-I 291 W/m 11,1 C 19,1 C 6,4 km/h (2 Bft) 95,24 %
17.10.2018 15:40 19,0 C 12,2 C 17,2 C 60 % 1017,3 hPa 0,0 l/m 3,1 km/h (1 Bft) NO 40 2 min 0,000 mm 0,7 UV-I 288 W/m 11,1 C 19,0 C 4,8 km/h (1 Bft) 96,55 %
17.10.2018 15:42 18,9 C 12,2 C 17,2 C 58 % 1017,3 hPa 0,0 l/m 2,2 km/h (1 Bft) NO 40 2 min 0,000 mm 0,7 UV-I 283 W/m 10,5 C 18,9 C 4,8 km/h (1 Bft) 94,87 %
17.10.2018 15:44 18,9 C 12,2 C 17,2 C 58 % 1017,2 hPa 0,0 l/m 1,7 km/h (1 Bft) NO 40 2 min 0,000 mm 0,7 UV-I 279 W/m 10,5 C 18,9 C 3,2 km/h (1 Bft) 91,49 %
17.10.2018 15:46 18,9 C 12,2 C 16,7 C 58 % 1017,2 hPa 0,0 l/m 1,7 km/h (1 Bft) NO 40 2 min 0,000 mm 0,7 UV-I 275 W/m 10,5 C 18,9 C 3,2 km/h (1 Bft) 95,74 %
17.10.2018 15:48 18,8 C 12,2 C 16,7 C 58 % 1017,2 hPa 0,0 l/m 1,3 km/h (1 Bft) NO 40 2 min 0,000 mm 0,7 UV-I 270 W/m 10,4 C 18,8 C 3,2 km/h (1 Bft) 94,00 %
17.10.2018 15:50 18,8 C 12,2 C 16,7 C 58 % 1017,2 hPa 0,0 l/m 3,2 km/h (1 Bft) O 91 2 min 0,000 mm 0,6 UV-I 267 W/m 10,4 C 18,8 C 4,8 km/h (1 Bft) 96,00 %
17.10.2018 15:52 18,8 C 12,2 C 16,7 C 57 % 1017,2 hPa 0,0 l/m 2,0 km/h (1 Bft) O 91 2 min 0,000 mm 0,6 UV-I 263 W/m 10,1 C 18,8 C 4,8 km/h (1 Bft) 97,56 %
17.10.2018 15:54 18,6 C 12,2 C 16,7 C 57 % 1017,2 hPa 0,0 l/m 1,2 km/h (1 Bft) O 91 2 min 0,000 mm 0,6 UV-I 259 W/m 9,9 C 18,6 C 3,2 km/h (1 Bft) 98,00 %
17.10.2018 15:56 18,4 C 12,2 C 16,7 C 58 % 1017,1 hPa 0,0 l/m 0,4 km/h (0 Bft) O 91 2 min 0,000 mm 0,6 UV-I 254 W/m 10,0 C 18,4 C 1,6 km/h (1 Bft) 98,00 %
17.10.2018 15:58 18,4 C 12,2 C 16,7 C 58 % 1017,2 hPa 0,0 l/m 1,1 km/h (1 Bft) O 91 2 min 0,000 mm 0,6 UV-I 250 W/m 10,0 C 18,4 C 3,2 km/h (1 Bft) 100,00 %
17.10.2018 16:00 18,4 C 12,2 C 16,7 C 58 % 1017,2 hPa 0,0 l/m 2,3 km/h (1 Bft) O 91 2 min 0,178 mm 0,6 UV-I 245 W/m 10,0 C 18,4 C 3,2 km/h (1 Bft) 98,28 %
17.10.2018 16:02 18,4 C 12,2 C 16,7 C 58 % 1017,1 hPa 0,0 l/m 0,4 km/h (0 Bft) O 91 2 min 0,000 mm 0,5 UV-I 241 W/m 10,0 C 18,4 C 1,6 km/h (1 Bft) 100,00 %
17.10.2018 16:04 18,4 C 12,2 C 16,7 C 58 % 1017,2 hPa 0,0 l/m 1,4 km/h (1 Bft) O 91 2 min 0,000 mm 0,5 UV-I 237 W/m 10,0 C 18,4 C 4,8 km/h (1 Bft) 98,00 %
17.10.2018 16:06 18,6 C 12,2 C 16,7 C 59 % 1017,1 hPa 0,0 l/m 1,1 km/h (1 Bft) O 98 2 min 0,000 mm 0,5 UV-I 232 W/m 10,4 C 18,6 C 4,8 km/h (1 Bft) 100,00 %
17.10.2018 16:08 18,5 C 12,2 C 16,7 C 58 % 1017,1 hPa 0,0 l/m 0,0 km/h (0 Bft) O 98 2 min 0,000 mm 0,5 UV-I 228 W/m 10,1 C 18,5 C 1,6 km/h (1 Bft) 98,00 %
17.10.2018 16:10 18,5 C 12,2 C 16,1 C 60 % 1017,1 hPa 0,0 l/m 2,4 km/h (1 Bft) O 96 2 min 0,000 mm 0,5 UV-I 224 W/m 10,6 C 18,5 C 4,8 km/h (1 Bft) 100,00 %
17.10.2018 16:12 18,5 C 12,2 C 16,1 C 59 % 1017,2 hPa 0,0 l/m 1,2 km/h (1 Bft) O 96 2 min 0,000 mm 0,5 UV-I 220 W/m 10,3 C 18,5 C 3,2 km/h (1 Bft) 93,62 %
17.10.2018 16:14 18,4 C 12,2 C 16,1 C 59 % 1017,1 hPa 0,0 l/m 3,1 km/h (1 Bft) O-SO 116 2 min 0,000 mm 0,5 UV-I 215 W/m 10,2 C 18,4 C 6,4 km/h (2 Bft) 95,45 %
17.10.2018 16:16 18,4 C 12,2 C 16,1 C 58 % 1017,1 hPa 0,0 l/m 3,1 km/h (1 Bft) S-SO 148 2 min 0,000 mm 0,1 UV-I 210 W/m 10,0 C 18,4 C 4,8 km/h (1 Bft) 97,87 %
17.10.2018 16:18 18,3 C 12,2 C 16,1 C 59 % 1017,1 hPa 0,0 l/m 1,6 km/h (1 Bft) S-SO 148 2 min 0,000 mm 0,0 UV-I 209 W/m 10,1 C 18,3 C 3,2 km/h (1 Bft) 98,00 %
17.10.2018 16:20 18,3 C 12,2 C 16,1 C 59 % 1017,2 hPa 0,0 l/m 0,4 km/h (0 Bft) S-SO 148 2 min 0,000 mm 0,0 UV-I 205 W/m 10,1 C 18,3 C 1,6 km/h (1 Bft) 97,44 %
17.10.2018 16:22 18,3 C 12,2 C 16,1 C 59 % 1017,2 hPa 0,0 l/m 1,7 km/h (1 Bft) S-SO 148 2 min 0,000 mm 0,0 UV-I 200 W/m 10,1 C 18,3 C 4,8 km/h (1 Bft) 98,11 %
17.10.2018 16:24 18,4 C 12,2 C 16,1 C 59 % 1017,1 hPa 0,0 l/m 1,5 km/h (1 Bft) S-SO 148 2 min 0,000 mm 0,0 UV-I 195 W/m 10,2 C 18,4 C 3,2 km/h (1 Bft) 97,87 %
17.10.2018 16:26 18,4 C 12,2 C 16,1 C 61 % 1017,1 hPa 0,0 l/m 2,3 km/h (1 Bft) O-SO 106 2 min 0,000 mm 0,0 UV-I 191 W/m 10,7 C 18,4 C 3,2 km/h (1 Bft) 98,00 %
17.10.2018 16:28 18,5 C 12,2 C 16,1 C 61 % 1017,1 hPa 0,0 l/m 2,5 km/h (1 Bft) O-SO 106 2 min 0,000 mm 0,0 UV-I 187 W/m 10,8 C 18,5 C 4,8 km/h (1 Bft) 97,87 %
17.10.2018 16:30 18,4 C 12,2 C 16,1 C 61 % 1017,1 hPa 0,0 l/m 1,9 km/h (1 Bft) O-SO 106 2 min 0,000 mm 0,0 UV-I 183 W/m 10,7 C 18,4 C 3,2 km/h (1 Bft) 97,37 %
17.10.2018 16:32 18,4 C 12,2 C 16,1 C 60 % 1017,1 hPa 0,0 l/m 2,6 km/h (1 Bft) O-SO 106 2 min 0,000 mm 0,0 UV-I 178 W/m 10,5 C 18,4 C 3,2 km/h (1 Bft) 97,87 %
17.10.2018 16:34 18,4 C 12,2 C 15,6 C 60 % 1017,1 hPa 0,0 l/m 1,4 km/h (1 Bft) O-SO 106 2 min 0,000 mm 0,0 UV-I 173 W/m 10,5 C 18,4 C 1,6 km/h (1 Bft) 97,87 %
17.10.2018 16:36 18,4 C 12,2 C 15,6 C 60 % 1017,1 hPa 0,0 l/m 1,1 km/h (1 Bft) O-SO 106 2 min 0,000 mm 0,0 UV-I 169 W/m 10,5 C 18,4 C 3,2 km/h (1 Bft) 97,87 %
17.10.2018 16:38 18,4 C 12,2 C 15,6 C 60 % 1017,1 hPa 0,0 l/m 1,6 km/h (1 Bft) O-SO 106 2 min 0,000 mm 0,0 UV-I 165 W/m 10,5 C 18,4 C 3,2 km/h (1 Bft) 96,00 %
17.10.2018 16:40 18,4 C 12,2 C 15,6 C 59 % 1017,1 hPa 0,0 l/m 2,5 km/h (1 Bft) O-SO 106 2 min 0,000 mm 0,0 UV-I 160 W/m 10,2 C 18,4 C 3,2 km/h (1 Bft) 97,73 %
17.10.2018 16:42 18,4 C 12,2 C 15,6 C 59 % 1017,1 hPa 0,0 l/m 2,3 km/h (1 Bft) O-SO 106 2 min 0,000 mm 0,0 UV-I 156 W/m 10,2 C 18,4 C 3,2 km/h (1 Bft) 97,87 %
17.10.2018 16:44 18,4 C 12,2 C 15,6 C 60 % 1017,1 hPa 0,0 l/m 2,6 km/h (1 Bft) O-SO 106 2 min 0,000 mm 0,0 UV-I 152 W/m 10,5 C 18,4 C 3,2 km/h (1 Bft) 98,00 %
17.10.2018 16:46 18,3 C 12,2 C 15,6 C 61 % 1017,1 hPa 0,0 l/m 3,3 km/h (1 Bft) O-SO 106 2 min 0,000 mm 0,0 UV-I 148 W/m 10,6 C 18,3 C 4,8 km/h (1 Bft) 95,74 %
17.10.2018 16:48 18,3 C 12,2 C 15,6 C 60 % 1017,1 hPa 0,0 l/m 3,3 km/h (1 Bft) O-SO 106 2 min 0,000 mm 0,0 UV-I 144 W/m 10,4 C 18,3 C 4,8 km/h (1 Bft) 94,74 %
17.10.2018 16:50 18,3 C 12,2 C 15,6 C 60 % 1017,1 hPa 0,0 l/m 2,5 km/h (1 Bft) O-SO 106 2 min 0,000 mm 0,0 UV-I 140 W/m 10,4 C 18,3 C 3,2 km/h (1 Bft) 98,00 %
17.10.2018 16:52 18,3 C 12,2 C 15,6 C 60 % 1017,1 hPa 0,0 l/m 2,1 km/h (1 Bft) O-SO 106 2 min 0,000 mm 0,0 UV-I 136 W/m 10,4 C 18,3 C 3,2 km/h (1 Bft) 96,23 %
17.10.2018 16:54 18,3 C 12,2 C 15,6 C 60 % 1017,1 hPa 0,0 l/m 2,5 km/h (1 Bft) O-SO 106 2 min 0,000 mm 0,0 UV-I 132 W/m 10,4 C 18,3 C 3,2 km/h (1 Bft) 97,87 %
17.10.2018 16:56 18,2 C 12,2 C 15,6 C 62 % 1017,1 hPa 0,0 l/m 4,0 km/h (1 Bft) O-SO 106 2 min 0,000 mm 0,0 UV-I 127 W/m 10,8 C 18,2 C 4,8 km/h (1 Bft) 96,00 %
17.10.2018 16:58 18,2 C 12,2 C 15,6 C 61 % 1017,0 hPa 0,0 l/m 3,7 km/h (1 Bft) O-SO 105 2 min 0,000 mm 0,0 UV-I 124 W/m 10,6 C 18,2 C 4,8 km/h (1 Bft) 97,22 %
17.10.2018 17:00 18,2 C 12,2 C 15,6 C 61 % 1017,0 hPa 0,0 l/m 2,3 km/h (1 Bft) O-SO 105 2 min 0,127 mm 0,0 UV-I 120 W/m 10,6 C 18,2 C 3,2 km/h (1 Bft) 94,34 %
17.10.2018 17:02 18,2 C 12,2 C 15,0 C 61 % 1017,0 hPa 0,0 l/m 2,9 km/h (1 Bft) O-SO 105 2 min 0,000 mm 0,0 UV-I 116 W/m 10,6 C 18,2 C 3,2 km/h (1 Bft) 94,00 %
17.10.2018 17:04 18,2 C 12,2 C 15,0 C 61 % 1017,0 hPa 0,0 l/m 2,1 km/h (1 Bft) O-SO 105 2 min 0,000 mm 0,0 UV-I 111 W/m 10,6 C 18,2 C 3,2 km/h (1 Bft) 92,68 %
17.10.2018 17:06 18,1 C 12,2 C 14,4 C 62 % 1017,1 hPa 0,0 l/m 2,1 km/h (1 Bft) O-SO 105 2 min 0,000 mm 0,0 UV-I 107 W/m 10,7 C 18,1 C 3,2 km/h (1 Bft) 96,00 %
17.10.2018 17:08 18,1 C 12,2 C 14,4 C 61 % 1017,0 hPa 0,0 l/m 1,6 km/h (1 Bft) O-SO 105 2 min 0,000 mm 0,0 UV-I 103 W/m 10,5 C 18,1 C 3,2 km/h (1 Bft) 95,74 %
17.10.2018 17:10 18,0 C 12,2 C 13,9 C 62 % 1017,0 hPa 0,0 l/m 1,9 km/h (1 Bft) O-SO 105 2 min 0,000 mm 0,0 UV-I 100 W/m 10,6 C 18,0 C 3,2 km/h (1 Bft) 95,74 %
17.10.2018 17:12 17,9 C 12,2 C 13,9 C 62 % 1017,1 hPa 0,0 l/m 1,7 km/h (1 Bft) O-SO 105 2 min 0,000 mm 0,0 UV-I 97 W/m 10,5 C 17,9 C 3,2 km/h (1 Bft) 95,74 %
17.10.2018 17:14 17,9 C 12,2 C 13,9 C 63 % 1017,0 hPa 0,0 l/m 1,5 km/h (1 Bft) O-SO 105 2 min 0,000 mm 0,0 UV-I 92 W/m 10,8 C 17,9 C 3,2 km/h (1 Bft) 96,00 %
17.10.2018 17:16 17,8 C 12,2 C 13,3 C 63 % 1017,0 hPa 0,0 l/m 2,0 km/h (1 Bft) O-SO 105 2 min 0,000 mm 0,0 UV-I 90 W/m 10,7 C 17,8 C 3,2 km/h (1 Bft) 94,74 %
17.10.2018 17:18 17,8 C 12,2 C 13,3 C 63 % 1017,0 hPa 0,0 l/m 2,1 km/h (1 Bft) O-SO 105 2 min 0,000 mm 0,0 UV-I 86 W/m 10,7 C 17,8 C 3,2 km/h (1 Bft) 98,00 %
17.10.2018 17:20 17,8 C 12,2 C 12,8 C 62 % 1017,0 hPa 0,0 l/m 1,9 km/h (1 Bft) O-SO 105 2 min 0,000 mm 0,0 UV-I 82 W/m 10,4 C 17,8 C 3,2 km/h (1 Bft) 94,00 %
17.10.2018 17:22 17,7 C 12,2 C 12,8 C 63 % 1017,1 hPa 0,0 l/m 1,8 km/h (1 Bft) O-SO 105 2 min 0,000 mm 0,0 UV-I 78 W/m 10,6 C 17,7 C 3,2 km/h (1 Bft) 98,00 %
17.10.2018 17:24 17,7 C 12,2 C 12,8 C 63 % 1017,1 hPa 0,0 l/m 2,1 km/h (1 Bft) O-SO 105 2 min 0,000 mm 0,0 UV-I 75 W/m 10,6 C 17,7 C 3,2 km/h (1 Bft) 95,12 %
17.10.2018 17:26 17,6 C 12,2 C 12,2 C 63 % 1017,0 hPa 0,0 l/m 2,2 km/h (1 Bft) O-SO 105 2 min 0,000 mm 0,0 UV-I 71 W/m 10,5 C 17,6 C 3,2 km/h (1 Bft) 94,00 %
17.10.2018 17:28 17,5 C 12,2 C 12,2 C 63 % 1017,0 hPa 0,0 l/m 2,4 km/h (1 Bft) O-SO 105 2 min 0,000 mm 0,0 UV-I 68 W/m 10,4 C 17,5 C 3,2 km/h (1 Bft) 95,74 %
17.10.2018 17:30 17,5 C 12,2 C 11,7 C 64 % 1017,1 hPa 0,0 l/m 1,4 km/h (1 Bft) O-SO 105 2 min 0,000 mm 0,0 UV-I 65 W/m 10,6 C 17,5 C 3,2 km/h (1 Bft) 93,62 %
17.10.2018 17:32 17,4 C 12,2 C 11,7 C 65 % 1017,1 hPa 0,0 l/m 1,9 km/h (1 Bft) O-SO 105 2 min 0,000 mm 0,0 UV-I 61 W/m 10,8 C 17,4 C 3,2 km/h (1 Bft) 97,62 %
17.10.2018 17:34 17,2 C 12,2 C 11,7 C 65 % 1017,0 hPa 0,0 l/m 1,5 km/h (1 Bft) O-SO 105 2 min 0,000 mm 0,0 UV-I 57 W/m 10,6 C 17,2 C 3,2 km/h (1 Bft) 97,87 %
17.10.2018 17:36 17,2 C 12,2 C 11,7 C 65 % 1017,1 hPa 0,0 l/m 1,7 km/h (1 Bft) O-SO 105 2 min 0,000 mm 0,0 UV-I 54 W/m 10,6 C 17,2 C 3,2 km/h (1 Bft) 98,11 %
17.10.2018 17:38 17,2 C 12,2 C 11,1 C 65 % 1017,1 hPa 0,0 l/m 2,3 km/h (1 Bft) O-SO 105 2 min 0,000 mm 0,0 UV-I 50 W/m 10,6 C 17,2 C 3,2 km/h (1 Bft) 98,00 %
17.10.2018 17:40 17,0 C 12,2 C 11,1 C 65 % 1017,1 hPa 0,0 l/m 2,9 km/h (1 Bft) O-SO 105 2 min 0,000 mm 0,0 UV-I 47 W/m 10,4 C 17,0 C 4,8 km/h (1 Bft) 97,37 %
17.10.2018 17:42 16,9 C 12,2 C 11,1 C 66 % 1017,1 hPa 0,0 l/m 2,8 km/h (1 Bft) O-SO 105 2 min 0,000 mm 0,0 UV-I 45 W/m 10,5 C 16,9 C 4,8 km/h (1 Bft) 97,87 %
17.10.2018 17:44 16,8 C 12,2 C 10,6 C 66 % 1017,1 hPa 0,0 l/m 2,8 km/h (1 Bft) O-SO 109 2 min 0,000 mm 0,0 UV-I 41 W/m 10,4 C 16,8 C 4,8 km/h (1 Bft) 97,87 %
17.10.2018 17:46 16,8 C 12,2 C 10,6 C 66 % 1017,1 hPa 0,0 l/m 2,3 km/h (1 Bft) S-SW 198 2 min 0,000 mm 0,0 UV-I 39 W/m 10,4 C 16,8 C 3,2 km/h (1 Bft) 96,23 %
17.10.2018 17:48 16,7 C 12,2 C 10,6 C 66 % 1017,0 hPa 0,0 l/m 1,9 km/h (1 Bft) S-SW 198 2 min 0,000 mm 0,0 UV-I 37 W/m 10,3 C 16,7 C 3,2 km/h (1 Bft) 97,87 %
17.10.2018 17:50 16,6 C 12,2 C 10,6 C 66 % 1017,0 hPa 0,0 l/m 2,5 km/h (1 Bft) S-SW 198 2 min 0,000 mm 0,0 UV-I 37 W/m 10,2 C 16,6 C 3,2 km/h (1 Bft) 97,14 %
17.10.2018 17:52 16,3 C 12,2 C 10,0 C 67 % 1017,0 hPa 0,0 l/m 3,0 km/h (1 Bft) S-SW 198 2 min 0,000 mm 0,0 UV-I 30 W/m 10,2 C 16,3 C 4,8 km/h (1 Bft) 98,00 %
17.10.2018 17:54 16,1 C 12,2 C 10,0 C 68 % 1017,0 hPa 0,0 l/m 2,4 km/h (1 Bft) S-SW 198 2 min 0,000 mm 0,0 UV-I 26 W/m 10,2 C 16,1 C 3,2 km/h (1 Bft) 97,87 %
17.10.2018 17:56 16,1 C 12,2 C 10,0 C 68 % 1017,0 hPa 0,0 l/m 2,9 km/h (1 Bft) S-SW 198 2 min 0,000 mm 0,0 UV-I 24 W/m 10,2 C 16,1 C 3,2 km/h (1 Bft) 95,74 %
17.10.2018 17:58 16,2 C 12,2 C 10,0 C 67 % 1017,0 hPa 0,0 l/m 2,4 km/h (1 Bft) S-SW 198 2 min 0,000 mm 0,0 UV-I 22 W/m 10,1 C 16,2 C 3,2 km/h (1 Bft) 97,14 %
17.10.2018 18:00 16,2 C 12,2 C 9,4 C 67 % 1017,0 hPa 0,0 l/m 2,6 km/h (1 Bft) S-SW 198 2 min 0,051 mm 0,0 UV-I 19 W/m 10,1 C 16,2 C 3,2 km/h (1 Bft) 96,92 %
17.10.2018 18:02 15,9 C 12,2 C 9,4 C 67 % 1017,0 hPa 0,0 l/m 3,3 km/h (1 Bft) S-SW 198 0 min 0,000 mm 0,0 UV-I 17 W/m 9,8 C 15,9 C 4,8 km/h (1 Bft) 97,14 %
17.10.2018 18:04 15,7 C 12,2 C 9,4 C 68 % 1017,1 hPa 0,0 l/m 3,0 km/h (1 Bft) S-SW 198 0 min 0,000 mm 0,0 UV-I 15 W/m 9,8 C 15,7 C 4,8 km/h (1 Bft) 100,00 %
17.10.2018 18:06 15,5 C 12,2 C 8,9 C 69 % 1017,0 hPa 0,0 l/m 3,2 km/h (1 Bft) S-SW 198 0 min 0,000 mm 0,0 UV-I 12 W/m 9,8 C 15,5 C 4,8 km/h (1 Bft) 100,00 %
17.10.2018 18:08 15,4 C 12,2 C 8,9 C 69 % 1017,0 hPa 0,0 l/m 3,0 km/h (1 Bft) S-SW 198 0 min 0,000 mm 0,0 UV-I 11 W/m 9,7 C 15,4 C 4,8 km/h (1 Bft) 100,00 %
17.10.2018 18:10 15,4 C 12,2 C 8,9 C 69 % 1017,0 hPa 0,0 l/m 2,8 km/h (1 Bft) S-SW 198 0 min 0,000 mm 0,0 UV-I 11 W/m 9,7 C 15,4 C 3,2 km/h (1 Bft) 100,00 %
17.10.2018 18:12 15,2 C 12,2 C 8,9 C 69 % 1017,1 hPa 0,0 l/m 2,1 km/h (1 Bft) S-SW 198 0 min 0,000 mm 0,0 UV-I 9 W/m 9,6 C 15,2 C 3,2 km/h (1 Bft) 98,18 %
17.10.2018 18:14 15,1 C 12,2 C 8,9 C 70 % 1017,1 hPa 0,0 l/m 0,7 km/h (0 Bft) S-SW 198 0 min 0,000 mm 0,0 UV-I 8 W/m 9,7 C 15,1 C 1,6 km/h (1 Bft) 100,00 %
17.10.2018 18:16 14,8 C 12,2 C 8,9 C 71 % 1017,1 hPa 0,0 l/m 0,0 km/h (0 Bft) S-SW 198 0 min 0,000 mm 0,0 UV-I 7 W/m 9,6 C 14,8 C 0,0 km/h (0 Bft) 100,00 %
17.10.2018 18:18 14,7 C 12,2 C 8,9 C 71 % 1017,1 hPa 0,0 l/m 0,0 km/h (0 Bft) S-SW 198 0 min 0,000 mm 0,0 UV-I 6 W/m 9,5 C 14,7 C 0,0 km/h (0 Bft) 97,87 %
17.10.2018 18:20 14,6 C 12,2 C 8,9 C 72 % 1017,1 hPa 0,0 l/m 0,0 km/h (0 Bft) S-SW 198 0 min 0,000 mm 0,0 UV-I 5 W/m 9,6 C 14,6 C 0,0 km/h (0 Bft) 100,00 %
17.10.2018 18:22 14,4 C 12,2 C 8,3 C 73 % 1017,1 hPa 0,0 l/m 0,1 km/h (0 Bft) S-SW 198 0 min 0,000 mm 0,0 UV-I 5 W/m 9,6 C 14,4 C 1,6 km/h (1 Bft) 97,87 %
17.10.2018 18:24 14,2 C 12,2 C 8,3 C 74 % 1017,1 hPa 0,0 l/m 1,1 km/h (1 Bft) S-SW 198 0 min 0,000 mm 0,0 UV-I 5 W/m 9,6 C 14,2 C 1,6 km/h (1 Bft) 97,87 %
17.10.2018 18:26 14,1 C 12,2 C 8,3 C 74 % 1017,1 hPa 0,0 l/m 1,0 km/h (0 Bft) S-SW 198 0 min 0,000 mm 0,0 UV-I 0 W/m 9,5 C 14,1 C 1,6 km/h (1 Bft) 98,00 %
17.10.2018 18:28 13,9 C 12,2 C 8,3 C 75 % 1017,2 hPa 0,0 l/m 0,8 km/h (0 Bft) S-SW 198 0 min 0,000 mm 0,0 UV-I 0 W/m 9,5 C 13,9 C 1,6 km/h (1 Bft) 98,00 %
17.10.2018 18:30 13,8 C 12,2 C 8,3 C 75 % 1017,2 hPa 0,0 l/m 0,5 km/h (0 Bft) S-SW 198 0 min 0,000 mm 0,0 UV-I 0 W/m 9,4 C 13,8 C 1,6 km/h (1 Bft) 97,14 %
17.10.2018 18:32 13,8 C 12,2 C 8,3 C 75 % 1017,2 hPa 0,0 l/m 0,6 km/h (0 Bft) S-SW 198 0 min 0,000 mm 0,0 UV-I 0 W/m 9,4 C 13,8 C 1,6 km/h (1 Bft) 97,92 %
17.10.2018 18:34 13,6 C 12,2 C 8,3 C 76 % 1017,2 hPa 0,0 l/m 0,6 km/h (0 Bft) S-SW 198 0 min 0,000 mm 0,0 UV-I 0 W/m 9,4 C 13,6 C 1,6 km/h (1 Bft) 98,11 %
17.10.2018 18:36 13,3 C 12,2 C 8,3 C 77 % 1017,2 hPa 0,0 l/m 1,2 km/h (1 Bft) S-SW 198 0 min 0,000 mm 0,0 UV-I 0 W/m 9,4 C 13,3 C 1,6 km/h (1 Bft) 98,00 %
17.10.2018 18:38 13,1 C 12,2 C 8,3 C 78 % 1017,2 hPa 0,0 l/m 1,2 km/h (1 Bft) S-SW 198 0 min 0,000 mm 0,0 UV-I 0 W/m 9,4 C 13,1 C 1,6 km/h (1 Bft) 98,00 %
17.10.2018 18:40 13,0 C 12,2 C 8,3 C 79 % 1017,2 hPa 0,0 l/m 0,8 km/h (0 Bft) S-SW 198 0 min 0,000 mm 0,0 UV-I 0 W/m 9,4 C 13,0 C 1,6 km/h (1 Bft) 97,56 %
17.10.2018 18:42 13,1 C 12,2 C 8,3 C 79 % 1017,2 hPa 0,0 l/m 0,5 km/h (0 Bft) S-SW 198 0 min 0,000 mm 0,0 UV-I 0 W/m 9,5 C 13,1 C 1,6 km/h (1 Bft) 97,87 %
17.10.2018 18:44 13,1 C 12,2 C 8,3 C 79 % 1017,3 hPa 0,0 l/m 0,0 km/h (0 Bft) S-SW 198 0 min 0,000 mm 0,0 UV-I 0 W/m 9,5 C 13,1 C 0,0 km/h (0 Bft) 97,87 %
17.10.2018 18:46 13,1 C 12,2 C 8,3 C 79 % 1017,2 hPa 0,0 l/m 0,0 km/h (0 Bft) S-SW 198 0 min 0,000 mm 0,0 UV-I 0 W/m 9,5 C 13,1 C 0,0 km/h (0 Bft) 98,00 %
17.10.2018 18:48 13,0 C 12,2 C 8,3 C 79 % 1017,3 hPa 0,0 l/m 0,0 km/h (0 Bft) S-SW 198 0 min 0,000 mm 0,0 UV-I 0 W/m 9,4 C 13,0 C 0,0 km/h (0 Bft) 100,00 %
17.10.2018 18:50 12,9 C 12,2 C 7,8 C 80 % 1017,3 hPa 0,0 l/m 0,0 km/h (0 Bft) S-SW 198 0 min 0,000 mm 0,0 UV-I 0 W/m 9,5 C 12,9 C 0,0 km/h (0 Bft) 98,00 %
17.10.2018 18:52 13,0 C 12,2 C 8,3 C 80 % 1017,3 hPa 0,0 l/m 0,0 km/h (0 Bft) S-SW 198 0 min 0,000 mm 0,0 UV-I 0 W/m 9,6 C 13,0 C 0,0 km/h (0 Bft) 100,00 %
17.10.2018 18:54 13,0 C 12,2 C 8,3 C 80 % 1017,3 hPa 0,0 l/m 0,0 km/h (0 Bft) S-SW 198 0 min 0,000 mm 0,0 UV-I 0 W/m 9,6 C 13,0 C 0,0 km/h (0 Bft) 97,87 %
17.10.2018 18:56 13,0 C 12,2 C 7,8 C 80 % 1017,3 hPa 0,0 l/m 0,0 km/h (0 Bft) S-SW 198 0 min 0,000 mm 0,0 UV-I 0 W/m 9,6 C 13,0 C 0,0 km/h (0 Bft) 100,00 %
17.10.2018 18:59 13,1 C 12,2 C 7,8 C 79 % 1017,3 hPa 0,0 l/m 0,0 km/h (0 Bft) S-SW 198 0 min 0,000 mm 0,0 UV-I 0 W/m 9,5 C 13,1 C 0,0 km/h (0 Bft) 98,63 %
17.10.2018 19:00 13,1 C 12,2 C 7,8 C 79 % 1017,3 hPa 0,0 l/m 0,0 km/h (0 Bft) S-SW 198 0 min 0,000 mm 0,0 UV-I 0 W/m 9,5 C 13,1 C 0,0 km/h (0 Bft) 93,33 %
17.10.2018 19:02 13,1 C 12,2 C 7,8 C 79 % 1017,3 hPa 0,0 l/m 0,0 km/h (0 Bft) S-SW 198 0 min 0,000 mm 0,0 UV-I 0 W/m 9,5 C 13,1 C 0,0 km/h (0 Bft) 100,00 %
17.10.2018 19:04 13,1 C 12,2 C 7,8 C 79 % 1017,3 hPa 0,0 l/m 0,0 km/h (0 Bft) S-SW 198 0 min 0,000 mm 0,0 UV-I 0 W/m 9,5 C 13,1 C 0,0 km/h (0 Bft) 100,00 %
17.10.2018 19:06 13,1 C 12,2 C 7,2 C 79 % 1017,3 hPa 0,0 l/m 0,3 km/h (0 Bft) S-SW 198 0 min 0,000 mm 0,0 UV-I 0 W/m 9,5 C 13,1 C 1,6 km/h (1 Bft) 98,11 %
17.10.2018 19:08 12,9 C 12,2 C 7,2 C 79 % 1017,3 hPa 0,0 l/m 0,8 km/h (0 Bft) S-SW 198 0 min 0,000 mm 0,0 UV-I 0 W/m 9,3 C 12,9 C 1,6 km/h (1 Bft) 100,00 %
17.10.2018 19:10 12,9 C 12,2 C 7,2 C 79 % 1017,4 hPa 0,0 l/m 1,3 km/h (1 Bft) S-SW 198 0 min 0,000 mm 0,0 UV-I 0 W/m 9,3 C 12,9 C 1,6 km/h (1 Bft) 97,73 %
17.10.2018 19:12 12,9 C 12,2 C 7,2 C 79 % 1017,4 hPa 0,0 l/m 1,9 km/h (1 Bft) S-SW 198 0 min 0,000 mm 0,0 UV-I 0 W/m 9,3 C 12,9 C 3,2 km/h (1 Bft) 97,87 %
17.10.2018 19:14 13,0 C 12,2 C 7,2 C 79 % 1017,4 hPa 0,0 l/m 3,0 km/h (1 Bft) S-SW 198 0 min 0,000 mm 0,0 UV-I 0 W/m 9,4 C 13,0 C 4,8 km/h (1 Bft) 100,00 %
17.10.2018 19:16 13,1 C 12,2 C 7,2 C 79 % 1017,4 hPa 0,0 l/m 2,4 km/h (1 Bft) S-SW 198 0 min 0,000 mm 0,0 UV-I 0 W/m 9,5 C 13,1 C 3,2 km/h (1 Bft) 100,00 %
17.10.2018 19:18 13,2 C 12,2 C 7,2 C 79 % 1017,4 hPa 0,0 l/m 2,3 km/h (1 Bft) S-SW 198 0 min 0,000 mm 0,0 UV-I 0 W/m 9,6 C 13,2 C 3,2 km/h (1 Bft) 97,87 %
17.10.2018 19:20 13,2 C 12,2 C 7,2 C 79 % 1017,4 hPa 0,0 l/m 2,4 km/h (1 Bft) S-SW 198 0 min 0,000 mm 0,0 UV-I 0 W/m 9,6 C 13,2 C 3,2 km/h (1 Bft) 100,00 %
17.10.2018 19:22 13,4 C 12,2 C 7,2 C 78 % 1017,5 hPa 0,0 l/m 3,1 km/h (1 Bft) O-SO 105 0 min 0,000 mm 0,0 UV-I 0 W/m 9,6 C 13,4 C 4,8 km/h (1 Bft) 97,87 %
17.10.2018 19:24 13,4 C 12,2 C 7,2 C 78 % 1017,5 hPa 0,0 l/m 3,9 km/h (1 Bft) O-SO 105 0 min 0,000 mm 0,0 UV-I 0 W/m 9,6 C 13,4 C 4,8 km/h (1 Bft) 100,00 %
17.10.2018 19:26 13,5 C 12,2 C 7,2 C 78 % 1017,5 hPa 0,0 l/m 4,0 km/h (1 Bft) O 98 0 min 0,000 mm 0,0 UV-I 0 W/m 9,7 C 13,5 C 6,4 km/h (2 Bft) 100,00 %
17.10.2018 19:28 13,6 C 12,2 C 7,2 C 78 % 1017,5 hPa 0,0 l/m 3,9 km/h (1 Bft) O 98 0 min 0,000 mm 0,0 UV-I 0 W/m 9,8 C 13,6 C 4,8 km/h (1 Bft) 100,00 %
17.10.2018 19:30 13,9 C 12,2 C 7,2 C 77 % 1017,5 hPa 0,0 l/m 3,8 km/h (1 Bft) O 98 0 min 0,000 mm 0,0 UV-I 0 W/m 9,9 C 13,9 C 4,8 km/h (1 Bft) 100,00 %
17.10.2018 19:32 14,2 C 12,2 C 7,2 C 75 % 1017,5 hPa 0,0 l/m 3,2 km/h (1 Bft) O 98 0 min 0,000 mm 0,0 UV-I 0 W/m 9,8 C 14,2 C 4,8 km/h (1 Bft) 100,00 %
17.10.2018 19:34 14,4 C 12,2 C 7,2 C 75 % 1017,5 hPa 0,0 l/m 3,1 km/h (1 Bft) O 98 0 min 0,000 mm 0,0 UV-I 0 W/m 10,0 C 14,4 C 3,2 km/h (1 Bft) 96,00 %
17.10.2018 19:36 14,5 C 12,2 C 6,7 C 74 % 1017,5 hPa 0,0 l/m 2,8 km/h (1 Bft) O 98 0 min 0,000 mm 0,0 UV-I 0 W/m 9,9 C 14,5 C 3,2 km/h (1 Bft) 97,56 %
17.10.2018 19:38 14,6 C 12,2 C 7,2 C 74 % 1017,5 hPa 0,0 l/m 3,5 km/h (1 Bft) O 99 0 min 0,000 mm 0,0 UV-I 0 W/m 10,0 C 14,6 C 4,8 km/h (1 Bft) 100,00 %
17.10.2018 19:40 14,5 C 12,2 C 7,2 C 74 % 1017,5 hPa 0,0 l/m 4,0 km/h (1 Bft) O 101 0 min 0,000 mm 0,0 UV-I 0 W/m 9,9 C 14,5 C 6,4 km/h (2 Bft) 100,00 %
17.10.2018 19:42 14,4 C 12,2 C 7,8 C 74 % 1017,6 hPa 0,0 l/m 3,8 km/h (1 Bft) O-SO 103 0 min 0,000 mm 0,0 UV-I 0 W/m 9,8 C 14,4 C 6,4 km/h (2 Bft) 98,00 %
17.10.2018 19:44 14,4 C 12,2 C 7,8 C 74 % 1017,5 hPa 0,0 l/m 4,0 km/h (1 Bft) O 88 0 min 0,000 mm 0,0 UV-I 0 W/m 9,8 C 14,4 C 6,4 km/h (2 Bft) 97,14 %
17.10.2018 19:46 14,4 C 12,2 C 7,8 C 74 % 1017,4 hPa 0,0 l/m 4,0 km/h (1 Bft) O-SO 111 0 min 0,000 mm 0,0 UV-I 0 W/m 9,8 C 14,4 C 4,8 km/h (1 Bft) 98,11 %
17.10.2018 19:48 14,4 C 12,2 C 7,8 C 74 % 1017,5 hPa 0,0 l/m 2,8 km/h (1 Bft) O-SO 111 0 min 0,000 mm 0,0 UV-I 0 W/m 9,8 C 14,4 C 4,8 km/h (1 Bft) 96,00 %
17.10.2018 19:50 14,4 C 12,2 C 7,8 C 74 % 1017,4 hPa 0,0 l/m 3,3 km/h (1 Bft) O 95 0 min 0,000 mm 0,0 UV-I 0 W/m 9,8 C 14,4 C 6,4 km/h (2 Bft) 95,12 %
17.10.2018 19:52 14,5 C 12,2 C 7,8 C 74 % 1017,5 hPa 0,0 l/m 3,0 km/h (1 Bft) O 95 0 min 0,000 mm 0,0 UV-I 0 W/m 9,9 C 14,5 C 4,8 km/h (1 Bft) 94,00 %
17.10.2018 19:54 14,5 C 12,2 C 8,3 C 74 % 1017,5 hPa 0,0 l/m 2,7 km/h (1 Bft) O 95 0 min 0,000 mm 0,0 UV-I 0 W/m 9,9 C 14,5 C 4,8 km/h (1 Bft) 96,00 %
17.10.2018 19:56 14,4 C 12,2 C 8,3 C 74 % 1017,5 hPa 0,0 l/m 3,0 km/h (1 Bft) O 95 0 min 0,000 mm 0,0 UV-I 0 W/m 9,8 C 14,4 C 4,8 km/h (1 Bft) 95,74 %
17.10.2018 19:58 14,4 C 12,2 C 7,8 C 74 % 1017,6 hPa 0,0 l/m 2,6 km/h (1 Bft) O 95 0 min 0,000 mm 0,0 UV-I 0 W/m 9,8 C 14,4 C 4,8 km/h (1 Bft) 96,00 %
17.10.2018 20:00 14,3 C 12,2 C 7,8 C 74 % 1017,5 hPa 0,0 l/m 2,7 km/h (1 Bft) O 95 0 min 0,025 mm 0,0 UV-I 0 W/m 9,7 C 14,3 C 4,8 km/h (1 Bft) 94,74 %
17.10.2018 20:02 14,3 C 12,2 C 8,3 C 74 % 1017,5 hPa 0,0 l/m 2,5 km/h (1 Bft) O 95 0 min 0,000 mm 0,0 UV-I 0 W/m 9,7 C 14,3 C 4,8 km/h (1 Bft) 95,83 %
17.10.2018 20:04 14,3 C 12,2 C 8,3 C 74 % 1017,6 hPa 0,0 l/m 2,8 km/h (1 Bft) O 95 0 min 0,000 mm 0,0 UV-I 0 W/m 9,7 C 14,3 C 4,8 km/h (1 Bft) 94,23 %
17.10.2018 20:06 14,2 C 12,2 C 8,3 C 74 % 1017,6 hPa 0,0 l/m 3,1 km/h (1 Bft) O 95 0 min 0,000 mm 0,0 UV-I 0 W/m 9,6 C 14,2 C 4,8 km/h (1 Bft) 98,00 %
17.10.2018 20:09 14,1 C 12,2 C 7,8 C 75 % 1017,6 hPa 0,0 l/m 2,4 km/h (1 Bft) O 95 0 min 0,000 mm 0,0 UV-I 0 W/m 9,7 C 14,1 C 4,8 km/h (1 Bft) 98,39 %
17.10.2018 20:10 14,0 C 12,2 C 7,8 C 75 % 1017,6 hPa 0,0 l/m 1,9 km/h (1 Bft) O 95 0 min 0,000 mm 0,0 UV-I 0 W/m 9,6 C 14,0 C 3,2 km/h (1 Bft) 96,30 %
17.10.2018 20:12 13,8 C 12,2 C 7,8 C 75 % 1017,6 hPa 0,0 l/m 1,0 km/h (0 Bft) O 95 0 min 0,000 mm 0,0 UV-I 0 W/m 9,4 C 13,8 C 3,2 km/h (1 Bft) 95,74 %
17.10.2018 20:14 13,6 C 12,2 C 7,2 C 76 % 1017,6 hPa 0,0 l/m 0,7 km/h (0 Bft) O 95 0 min 0,000 mm 0,0 UV-I 0 W/m 9,4 C 13,6 C 1,6 km/h (1 Bft) 98,00 %
17.10.2018 20:16 13,3 C 12,2 C 7,2 C 77 % 1017,6 hPa 0,0 l/m 1,2 km/h (1 Bft) O 95 0 min 0,000 mm 0,0 UV-I 0 W/m 9,4 C 13,3 C 1,6 km/h (1 Bft) 97,37 %
17.10.2018 20:18 13,2 C 12,2 C 6,7 C 78 % 1017,6 hPa 0,0 l/m 0,9 km/h (0 Bft) O 95 0 min 0,000 mm 0,0 UV-I 0 W/m 9,4 C 13,2 C 1,6 km/h (1 Bft) 98,11 %
17.10.2018 20:20 13,0 C 12,2 C 6,7 C 79 % 1017,6 hPa 0,0 l/m 1,1 km/h (1 Bft) O 95 0 min 0,000 mm 0,0 UV-I 0 W/m 9,4 C 13,0 C 1,6 km/h (1 Bft) 97,56 %
17.10.2018 20:22 12,9 C 12,2 C 6,7 C 79 % 1017,6 hPa 0,0 l/m 1,0 km/h (0 Bft) O 95 0 min 0,000 mm 0,0 UV-I 0 W/m 9,3 C 12,9 C 1,6 km/h (1 Bft) 96,23 %
17.10.2018 20:24 12,9 C 12,2 C 6,1 C 79 % 1017,6 hPa 0,0 l/m 1,5 km/h (1 Bft) O 95 0 min 0,000 mm 0,0 UV-I 0 W/m 9,3 C 12,9 C 3,2 km/h (1 Bft) 98,00 %
17.10.2018 20:26 12,7 C 12,2 C 6,1 C 78 % 1017,6 hPa 0,0 l/m 0,9 km/h (0 Bft) O 95 0 min 0,000 mm 0,0 UV-I 0 W/m 9,0 C 12,7 C 1,6 km/h (1 Bft) 100,00 %
17.10.2018 20:28 12,5 C 12,2 C 6,7 C 79 % 1017,7 hPa 0,0 l/m 1,3 km/h (1 Bft) O 95 0 min 0,000 mm 0,0 UV-I 0 W/m 9,0 C 12,5 C 1,6 km/h (1 Bft) 100,00 %
17.10.2018 20:30 12,4 C 12,2 C 6,7 C 80 % 1017,7 hPa 0,0 l/m 2,0 km/h (1 Bft) O 84 0 min 0,000 mm 0,0 UV-I 0 W/m 9,0 C 12,4 C 3,2 km/h (1 Bft) 96,23 %
17.10.2018 20:32 12,4 C 12,2 C 6,7 C 81 % 1017,7 hPa 0,0 l/m 1,1 km/h (1 Bft) O 84 0 min 0,000 mm 0,0 UV-I 0 W/m 9,2 C 12,4 C 3,2 km/h (1 Bft) 98,00 %
17.10.2018 20:34 12,6 C 12,2 C 6,1 C 81 % 1017,7 hPa 0,0 l/m 2,4 km/h (1 Bft) O 84 0 min 0,000 mm 0,0 UV-I 0 W/m 9,4 C 12,6 C 3,2 km/h (1 Bft) 97,37 %
17.10.2018 20:36 12,7 C 12,2 C 6,1 C 80 % 1017,7 hPa 0,0 l/m 3,1 km/h (1 Bft) O 84 0 min 0,000 mm 0,0 UV-I 0 W/m 9,3 C 12,7 C 4,8 km/h (1 Bft) 100,00 %
17.10.2018 20:38 12,8 C 12,2 C 6,7 C 80 % 1017,7 hPa 0,0 l/m 4,3 km/h (1 Bft) O 88 0 min 0,000 mm 0,0 UV-I 0 W/m 9,4 C 12,8 C 8,0 km/h (2 Bft) 96,92 %
17.10.2018 20:40 12,8 C 12,2 C 6,7 C 80 % 1017,6 hPa 0,0 l/m 3,5 km/h (1 Bft) O 81 0 min 0,000 mm 0,0 UV-I 0 W/m 9,4 C 12,8 C 4,8 km/h (1 Bft) 97,87 %
17.10.2018 20:42 12,8 C 12,2 C 6,7 C 80 % 1017,6 hPa 0,0 l/m 4,1 km/h (1 Bft) O 80 0 min 0,000 mm 0,0 UV-I 0 W/m 9,4 C 12,8 C 6,4 km/h (2 Bft) 94,55 %
17.10.2018 20:44 12,8 C 12,2 C 6,7 C 80 % 1017,7 hPa 0,0 l/m 4,4 km/h (1 Bft) O 88 0 min 0,000 mm 0,0 UV-I 0 W/m 9,4 C 12,8 C 8,0 km/h (2 Bft) 97,44 %
17.10.2018 20:46 12,8 C 12,2 C 7,8 C 80 % 1017,7 hPa 0,0 l/m 4,7 km/h (1 Bft) O-SO 102 0 min 0,000 mm 0,0 UV-I 0 W/m 9,4 C 12,8 C 6,4 km/h (2 Bft) 98,21 %
17.10.2018 20:49 12,9 C 12,2 C 8,3 C 80 % 1017,7 hPa 0,0 l/m 5,8 km/h (2 Bft) O 82 0 min 0,000 mm 0,0 UV-I 0 W/m 9,5 C 12,9 C 9,7 km/h (2 Bft) 97,14 %
17.10.2018 20:50 12,9 C 12,2 C 7,8 C 80 % 1017,7 hPa 0,0 l/m 5,2 km/h (1 Bft) O 95 0 min 0,000 mm 0,0 UV-I 0 W/m 9,5 C 12,9 C 6,4 km/h (2 Bft) 100,00 %
17.10.2018 20:52 12,9 C 12,2 C 8,3 C 80 % 1017,7 hPa 0,0 l/m 5,2 km/h (1 Bft) O 91 0 min 0,000 mm 0,0 UV-I 0 W/m 9,5 C 12,9 C 9,7 km/h (2 Bft) 97,37 %
17.10.2018 20:54 13,0 C 12,2 C 8,3 C 80 % 1017,7 hPa 0,0 l/m 3,6 km/h (1 Bft) O 101 0 min 0,000 mm 0,0 UV-I 0 W/m 9,6 C 13,0 C 4,8 km/h (1 Bft) 94,00 %
17.10.2018 20:56 12,9 C 12,2 C 7,8 C 80 % 1017,7 hPa 0,0 l/m 4,5 km/h (1 Bft) O 91 0 min 0,000 mm 0,0 UV-I 0 W/m 9,5 C 12,9 C 6,4 km/h (2 Bft) 98,11 %
17.10.2018 20:58 12,9 C 12,2 C 7,8 C 80 % 1017,7 hPa 0,0 l/m 4,5 km/h (1 Bft) O-SO 105 0 min 0,000 mm 0,0 UV-I 0 W/m 9,5 C 12,9 C 6,4 km/h (2 Bft) 97,37 %
17.10.2018 21:00 12,9 C 12,2 C 8,3 C 80 % 1017,7 hPa 0,0 l/m 5,8 km/h (2 Bft) O 98 0 min 0,026 mm 0,0 UV-I 0 W/m 9,5 C 12,9 C 8,0 km/h (2 Bft) 96,00 %
17.10.2018 21:02 12,9 C 12,2 C 7,8 C 80 % 1017,7 hPa 0,0 l/m 5,2 km/h (1 Bft) O 83 0 min 0,000 mm 0,0 UV-I 0 W/m 9,5 C 12,9 C 6,4 km/h (2 Bft) 95,12 %
17.10.2018 21:04 12,9 C 12,2 C 8,3 C 81 % 1017,8 hPa 0,0 l/m 5,2 km/h (1 Bft) O-SO 103 0 min 0,000 mm 0,0 UV-I 0 W/m 9,7 C 12,9 C 6,4 km/h (2 Bft) 94,00 %
17.10.2018 21:06 13,1 C 12,2 C 8,3 C 80 % 1017,8 hPa 0,0 l/m 3,8 km/h (1 Bft) O 90 0 min 0,000 mm 0,0 UV-I 0 W/m 9,7 C 13,1 C 6,4 km/h (2 Bft) 93,62 %
17.10.2018 21:08 13,1 C 12,2 C 8,9 C 80 % 1017,8 hPa 0,0 l/m 3,7 km/h (1 Bft) O 90 0 min 0,000 mm 0,0 UV-I 0 W/m 9,7 C 13,1 C 4,8 km/h (1 Bft) 96,00 %
17.10.2018 21:10 13,1 C 12,2 C 8,3 C 80 % 1017,9 hPa 0,0 l/m 2,8 km/h (1 Bft) O 90 0 min 0,000 mm 0,0 UV-I 0 W/m 9,7 C 13,1 C 4,8 km/h (1 Bft) 95,74 %
17.10.2018 21:12 12,9 C 12,2 C 8,3 C 80 % 1017,9 hPa 0,0 l/m 3,1 km/h (1 Bft) O 90 0 min 0,000 mm 0,0 UV-I 0 W/m 9,5 C 12,9 C 4,8 km/h (1 Bft) 94,74 %
17.10.2018 21:14 12,9 C 12,2 C 8,3 C 80 % 1017,9 hPa 0,0 l/m 3,3 km/h (1 Bft) O 90 0 min 0,000 mm 0,0 UV-I 0 W/m 9,5 C 12,9 C 4,8 km/h (1 Bft) 96,23 %
17.10.2018 21:16 12,8 C 12,2 C 8,3 C 81 % 1017,9 hPa 0,0 l/m 3,5 km/h (1 Bft) O 86 0 min 0,000 mm 0,0 UV-I 0 W/m 9,6 C 12,8 C 6,4 km/h (2 Bft) 94,00 %
17.10.2018 21:18 12,7 C 12,2 C 8,3 C 81 % 1017,9 hPa 0,0 l/m 3,6 km/h (1 Bft) O 86 0 min 0,000 mm 0,0 UV-I 0 W/m 9,5 C 12,7 C 6,4 km/h (2 Bft) 95,24 %
17.10.2018 21:20 12,7 C 12,2 C 7,8 C 81 % 1017,9 hPa 0,0 l/m 3,1 km/h (1 Bft) O 86 0 min 0,000 mm 0,0 UV-I 0 W/m 9,5 C 12,7 C 4,8 km/h (1 Bft) 94,00 %
17.10.2018 21:22 12,7 C 12,2 C 7,8 C 81 % 1017,9 hPa 0,0 l/m 3,2 km/h (1 Bft) O 86 0 min 0,000 mm 0,0 UV-I 0 W/m 9,5 C 12,7 C 4,8 km/h (1 Bft) 94,00 %
17.10.2018 21:24 12,7 C 12,2 C 7,8 C 81 % 1017,9 hPa 0,0 l/m 3,0 km/h (1 Bft) O 86 0 min 0,000 mm 0,0 UV-I 0 W/m 9,5 C 12,7 C 4,8 km/h (1 Bft) 94,00 %
17.10.2018 21:26 12,8 C 12,2 C 8,3 C 82 % 1017,9 hPa 0,0 l/m 3,4 km/h (1 Bft) O 97 0 min 0,000 mm 0,0 UV-I 0 W/m 9,8 C 12,8 C 6,4 km/h (2 Bft) 97,37 %
17.10.2018 21:28 12,8 C 12,2 C 8,3 C 81 % 1017,9 hPa 0,0 l/m 3,2 km/h (1 Bft) O 97 0 min 0,000 mm 0,0 UV-I 0 W/m 9,6 C 12,8 C 4,8 km/h (1 Bft) 97,87 %
17.10.2018 21:30 12,8 C 12,2 C 7,8 C 81 % 1017,9 hPa 0,0 l/m 2,4 km/h (1 Bft) O 97 0 min 0,000 mm 0,0 UV-I 0 W/m 9,6 C 12,8 C 4,8 km/h (1 Bft) 95,74 %
17.10.2018 21:32 12,8 C 12,2 C 7,8 C 81 % 1017,9 hPa 0,0 l/m 3,2 km/h (1 Bft) O 97 0 min 0,000 mm 0,0 UV-I 0 W/m 9,6 C 12,8 C 4,8 km/h (1 Bft) 96,00 %
17.10.2018 21:34 12,8 C 12,2 C 7,8 C 81 % 1017,9 hPa 0,0 l/m 2,3 km/h (1 Bft) O 98 0 min 0,000 mm 0,0 UV-I 0 W/m 9,6 C 12,8 C 3,2 km/h (1 Bft) 93,62 %
17.10.2018 21:35 12,7 C 12,2 C 7,8 C 81 % 1017,9 hPa 0,0 l/m 3,2 km/h (1 Bft) O 90 0 min 0,000 mm 0,0 UV-I 0 W/m 9,5 C 12,7 C 4,8 km/h (1 Bft) 98,25 %
17.10.2018 21:40 12,4 C 12,2 C 6,7 C 82 % 1018,0 hPa 0,0 l/m 1,6 km/h (1 Bft) O 90 0 min 0,000 mm 0,0 UV-I 0 W/m 9,4 C 12,4 C 4,8 km/h (1 Bft) 100,00 %
17.10.2018 21:45 12,4 C 12,2 C 6,7 C 83 % 1017,9 hPa 0,0 l/m 1,6 km/h (1 Bft) O 90 0 min 0,000 mm 0,0 UV-I 0 W/m 9,6 C 12,4 C 4,8 km/h (1 Bft) 100,00 %
17.10.2018 21:50 12,2 C 12,2 C 6,1 C 83 % 1017,9 hPa 0,0 l/m 1,6 km/h (1 Bft) O 90 0 min 0,000 mm 0,0 UV-I 0 W/m 9,4 C 12,2 C 3,2 km/h (1 Bft) 99,12 %
17.10.2018 21:55 12,3 C 12,2 C 6,1 C 83 % 1018,0 hPa 0,0 l/m 1,6 km/h (1 Bft) O 90 0 min 0,000 mm 0,0 UV-I 0 W/m 9,5 C 12,3 C 3,2 km/h (1 Bft) 96,49 %
17.10.2018 22:00 11,9 C 12,2 C 6,1 C 83 % 1018,0 hPa 0,0 l/m 1,6 km/h (1 Bft) O 90 0 min 0,000 mm 0,0 UV-I 0 W/m 9,1 C 11,9 C 3,2 km/h (1 Bft) 95,61 %
17.10.2018 22:05 11,0 C 12,2 C 6,7 C 85 % 1017,9 hPa 0,0 l/m 1,6 km/h (1 Bft) O 90 0 min 0,000 mm 0,0 UV-I 0 W/m 8,6 C 11,0 C 3,2 km/h (1 Bft) 96,49 %
17.10.2018 22:10 10,4 C 12,2 C 6,7 C 88 % 1017,9 hPa 0,0 l/m 1,6 km/h (1 Bft) O 90 0 min 0,000 mm 0,0 UV-I 0 W/m 8,5 C 10,4 C 3,2 km/h (1 Bft) 95,61 %
17.10.2018 22:15 10,3 C 12,2 C 6,7 C 89 % 1017,9 hPa 0,0 l/m 1,6 km/h (1 Bft) O 90 0 min 0,000 mm 0,0 UV-I 0 W/m 8,6 C 10,3 C 3,2 km/h (1 Bft) 97,37 %
17.10.2018 22:20 10,3 C 12,2 C 6,7 C 89 % 1017,9 hPa 0,0 l/m 1,6 km/h (1 Bft) O 90 0 min 0,000 mm 0,0 UV-I 0 W/m 8,6 C 10,3 C 1,6 km/h (1 Bft) 99,12 %
17.10.2018 22:25 10,2 C 12,2 C 6,1 C 89 % 1017,9 hPa 0,0 l/m 1,6 km/h (1 Bft) O 90 0 min 0,000 mm 0,0 UV-I 0 W/m 8,5 C 10,2 C 1,6 km/h (1 Bft) 98,25 %
17.10.2018 22:30 10,1 C 12,2 C 6,1 C 89 % 1017,8 hPa 0,0 l/m 0,0 km/h (0 Bft) O 90 0 min 0,000 mm 0,0 UV-I 0 W/m 8,4 C 10,1 C 1,6 km/h (1 Bft) 100,00 %
17.10.2018 22:35 10,0 C 12,2 C 5,6 C 89 % 1017,9 hPa 0,0 l/m 0,0 km/h (0 Bft) O 90 0 min 0,000 mm 0,0 UV-I 0 W/m 8,3 C 10,0 C 1,6 km/h (1 Bft) 99,12 %
17.10.2018 22:40 9,9 C 12,2 C 6,1 C 89 % 1017,9 hPa 0,0 l/m 1,6 km/h (1 Bft) O 90 0 min 0,000 mm 0,0 UV-I 0 W/m 8,2 C 9,9 C 3,2 km/h (1 Bft) 97,37 %
17.10.2018 22:45 9,8 C 12,2 C 5,6 C 89 % 1017,9 hPa 0,0 l/m 1,6 km/h (1 Bft) O 90 0 min 0,000 mm 0,0 UV-I 0 W/m 8,1 C 9,8 C 3,2 km/h (1 Bft) 98,25 %
17.10.2018 22:50 10,1 C 12,2 C 5,6 C 90 % 1017,9 hPa 0,0 l/m 3,2 km/h (1 Bft) S-SO 157 0 min 0,000 mm 0,0 UV-I 0 W/m 8,5 C 10,1 C 6,4 km/h (2 Bft) 96,49 %
17.10.2018 22:55 10,2 C 12,2 C 5,6 C 90 % 1018,0 hPa 0,0 l/m 3,2 km/h (1 Bft) S-SO 157 0 min 0,000 mm 0,0 UV-I 0 W/m 8,6 C 10,2 C 3,2 km/h (1 Bft) 98,25 %
17.10.2018 23:00 9,6 C 12,2 C 5,6 C 89 % 1017,9 hPa 0,0 l/m 3,2 km/h (1 Bft) S-SO 157 0 min 0,000 mm 0,0 UV-I 0 W/m 7,9 C 9,6 C 3,2 km/h (1 Bft) 97,37 %
17.10.2018 23:05 9,5 C 12,2 C 5,6 C 91 % 1018,0 hPa 0,0 l/m 1,6 km/h (1 Bft) S-SO 157 0 min 0,000 mm 0,0 UV-I 0 W/m 8,1 C 9,5 C 3,2 km/h (1 Bft) 97,37 %
17.10.2018 23:10 9,6 C 12,2 C 5,0 C 91 % 1018,0 hPa 0,0 l/m 1,6 km/h (1 Bft) S-SO 157 0 min 0,000 mm 0,0 UV-I 0 W/m 8,2 C 9,6 C 3,2 km/h (1 Bft) 97,37 %
17.10.2018 23:15 9,4 C 12,2 C 5,0 C 92 % 1018,0 hPa 0,0 l/m 0,0 km/h (0 Bft) S-SO 157 0 min 0,000 mm 0,0 UV-I 0 W/m 8,2 C 9,4 C 1,6 km/h (1 Bft) 97,37 %
17.10.2018 23:20 9,5 C 12,2 C 5,0 C 92 % 1018,0 hPa 0,0 l/m 0,0 km/h (0 Bft) S-SO 164 0 min 0,000 mm 0,0 UV-I 0 W/m 8,3 C 9,5 C 0,0 km/h (0 Bft) 98,10 %
17.10.2018 23:22 9,6 C 12,2 C 5,0 C 92 % 1018,0 hPa 0,0 l/m 0,5 km/h (0 Bft) S-SO 164 0 min 0,000 mm 0,0 UV-I 0 W/m 8,4 C 9,6 C 1,6 km/h (1 Bft) 100,00 %
17.10.2018 23:24 9,6 C 12,2 C 5,0 C 92 % 1018,0 hPa 0,0 l/m 1,5 km/h (1 Bft) S-SO 164 0 min 0,000 mm 0,0 UV-I 0 W/m 8,4 C 9,6 C 3,2 km/h (1 Bft) 98,00 %
17.10.2018 23:26 9,6 C 12,2 C 5,0 C 91 % 1018,0 hPa 0,0 l/m 1,9 km/h (1 Bft) S-SO 164 0 min 0,000 mm 0,0 UV-I 0 W/m 8,2 C 9,6 C 3,2 km/h (1 Bft) 100,00 %
17.10.2018 23:29 9,4 C 12,2 C 5,0 C 91 % 1018,0 hPa 0,0 l/m 1,4 km/h (1 Bft) S-SO 164 0 min 0,000 mm 0,0 UV-I 0 W/m 8,0 C 9,4 C 3,2 km/h (1 Bft) 98,57 %
17.10.2018 23:30 9,3 C 12,2 C 5,0 C 91 % 1018,0 hPa 0,0 l/m 2,6 km/h (1 Bft) S-SO 164 0 min 0,000 mm 0,0 UV-I 0 W/m 7,9 C 9,3 C 3,2 km/h (1 Bft) 100,00 %
17.10.2018 23:32 9,1 C 12,2 C 5,6 C 91 % 1017,9 hPa 0,0 l/m 3,1 km/h (1 Bft) S-SO 164 0 min 0,000 mm 0,0 UV-I 0 W/m 7,7 C 9,1 C 3,2 km/h (1 Bft) 97,56 %
17.10.2018 23:34 9,0 C 12,2 C 5,6 C 91 % 1018,0 hPa 0,0 l/m 2,8 km/h (1 Bft) S-SO 164 0 min 0,000 mm 0,0 UV-I 0 W/m 7,6 C 9,0 C 3,2 km/h (1 Bft) 98,00 %
17.10.2018 23:36 8,9 C 12,2 C 5,0 C 92 % 1018,0 hPa 0,0 l/m 3,3 km/h (1 Bft) S-SO 164 0 min 0,000 mm 0,0 UV-I 0 W/m 7,7 C 8,9 C 6,4 km/h (2 Bft) 100,00 %
17.10.2018 23:38 8,8 C 12,2 C 5,6 C 92 % 1018,0 hPa 0,0 l/m 3,8 km/h (1 Bft) S-SO 164 0 min 0,000 mm 0,0 UV-I 0 W/m 7,6 C 8,8 C 6,4 km/h (2 Bft) 98,11 %
17.10.2018 23:40 8,9 C 12,2 C 5,0 C 92 % 1017,9 hPa 0,0 l/m 3,3 km/h (1 Bft) S-SO 164 0 min 0,000 mm 0,0 UV-I 0 W/m 7,7 C 8,9 C 6,4 km/h (2 Bft) 95,74 %
17.10.2018 23:42 9,0 C 12,2 C 5,0 C 92 % 1017,9 hPa 0,0 l/m 3,3 km/h (1 Bft) S-SO 164 0 min 0,000 mm 0,0 UV-I 0 W/m 7,8 C 9,0 C 6,4 km/h (2 Bft) 96,23 %
17.10.2018 23:44 8,9 C 12,2 C 5,0 C 92 % 1017,9 hPa 0,0 l/m 3,2 km/h (1 Bft) S-SO 164 0 min 0,000 mm 0,0 UV-I 0 W/m 7,7 C 8,9 C 6,4 km/h (2 Bft) 100,00 %
17.10.2018 23:46 9,0 C 12,2 C 5,0 C 93 % 1017,9 hPa 0,0 l/m 2,7 km/h (1 Bft) S-SO 164 0 min 0,000 mm 0,0 UV-I 0 W/m 7,9 C 9,0 C 3,2 km/h (1 Bft) 96,23 %
17.10.2018 23:49 9,1 C 12,2 C 5,0 C 92 % 1017,9 hPa 0,0 l/m 2,7 km/h (1 Bft) S-SO 164 0 min 0,000 mm 0,0 UV-I 0 W/m 7,9 C 9,1 C 3,2 km/h (1 Bft) 97,30 %
17.10.2018 23:50 9,1 C 12,2 C 5,6 C 92 % 1017,9 hPa 0,0 l/m 2,7 km/h (1 Bft) S-SO 164 0 min 0,000 mm 0,0 UV-I 0 W/m 7,9 C 9,1 C 3,2 km/h (1 Bft) 88,46 %
17.10.2018 23:52 9,2 C 12,2 C 5,6 C 93 % 1017,9 hPa 0,0 l/m 4,0 km/h (1 Bft) S-SO 165 0 min 0,000 mm 0,0 UV-I 0 W/m 8,1 C 9,2 C 6,4 km/h (2 Bft) 97,87 %
17.10.2018 23:54 9,1 C 12,2 C 6,1 C 92 % 1017,9 hPa 0,0 l/m 4,7 km/h (1 Bft) S-SO 165 0 min 0,000 mm 0,0 UV-I 0 W/m 7,9 C 9,1 C 6,4 km/h (2 Bft) 97,87 %
17.10.2018 23:56 9,0 C 12,2 C 6,1 C 92 % 1017,9 hPa 0,0 l/m 4,4 km/h (1 Bft) S-SO 165 0 min 0,000 mm 0,0 UV-I 0 W/m 7,8 C 9,0 C 6,4 km/h (2 Bft) 97,87 %
17.10.2018 23:58 8,8 C 12,2 C 6,1 C 91 % 1017,9 hPa 0,0 l/m 4,9 km/h (1 Bft) S-SO 165 0 min 0,000 mm 0,0 UV-I 0 W/m 7,4 C 8,8 C 6,4 km/h (2 Bft) 97,56 %
_ Min-Zeit 07:22 01:32 06:40 15:52 16:58 - 03:14 - - - - - - 07:20 07:24 03:14 00:02
Minimum _ 5,3 C 12,2 C 1,7 C 57 % 1017,0 hPa - 0,0 km/h (0 Bft) - - - - - - 4,4 C 5,3 C 0,0 km/h (0 Bft) 6,25 %
_ Max-Zeit 15:30 00:00 11:54 06:15 08:28 00:00 13:56 - - 08:26 14:00 12:14 12:50 13:24 15:30 13:56 01:04
Maximum _ 19,1 C 12,8 C 26,7 C 94 % 1019,7 hPa 0,0 l/m 6,6 km/h
NO (2 Bft)
- - 4 min 0,279 mm 1,7 UV-I 486 W/m 11,5 C 19,1 C 11,3 km/h
N-NO (2 Bft)
100,00 %
Durchschnitt _ 11,5 C 12,2 C 9,8 C 81 % 1018,4 hPa #0,0 l/m 2,4 km/h (1 Bft) SW - #9:58 h #1,753 mm 1,2 UV-I 274 W/m 8,2 C 11,5 C 3,8 km/h (1 Bft) 97,37 %